[[{"header":{"parameterUnit":"m.s-1","parameterCategory":1,"la1":30.6,"la2":28.766,"lo1":-90.7593,"lo2":-88.6598,"dy":0.0162,"dx":0.0183,"nx":116,"ny":114,"refTime":"2024-03-12T06:00:00:Z","depth":0,"parameterNumber":2,"parameterNumberName":"U-component_of_WINDS"},"data":[0.0,0.0,0.0,0.0,0.0,0.0,0.0,0.0,0.0,0.0,0.0,0.0,0.0,0.0,0.0,0.0,0.0,0.0,0.0,0.0,0.0,0.0,0.0,0.0,0.0,0.0,0.0,0.0,0.0,0.0,0.0,0.0,0.0,0.0,0.0,0.0,0.0,0.0,0.0,0.0,0.0,0.0,0.0,0.0,0.0,0.0,0.0,0.0,0.0,0.0,0.0,0.0,0.0,0.0,0.0,0.0,0.0,0.0,0.0,0.0,0.0,0.0,0.0,0.0,0.0,0.0,0.0,0.0,0.0,0.0,0.0,0.0,0.0,0.0,0.0,0.0,0.0,0.0,0.0,0.0,0.0,0.0,0.0,0.0,0.0,0.0,0.0,0.0,0.0,0.0,0.0,0.0,0.0,0.0,0.0,0.0,0.0,0.0,0.0,0.0,0.0,0.0,0.0,0.0,0.0,0.0,0.0,0.0,0.0,0.0,0.0,0.0,0.0,0.0,0.0,0.0,0.0,0.0,0.0,0.0,0.0,0.0,0.0,0.0,0.0,0.0,0.0,0.0,0.0,0.0,0.0,0.0,0.0,0.0,0.0,0.0,0.0,0.0,0.0,0.0,0.0,0.0,0.0,0.0,0.0,0.0,0.0,0.0,0.0,0.0,0.0,0.0,0.0,0.0,0.0,0.0,0.0,0.0,0.0,0.0,0.0,0.0,0.0,0.0,0.0,0.0,0.0,0.0,0.0,0.0,0.0,0.0,0.0,0.0,0.0,0.0,0.0,0.0,0.0,0.0,0.0,0.0,0.0,0.0,0.0,0.0,0.0,0.0,0.0,0.0,0.0,0.0,0.0,0.0,0.0,0.0,0.0,0.0,0.0,0.0,0.0,0.0,0.0,0.0,0.0,0.0,0.0,0.0,0.0,0.0,0.0,0.0,0.0,0.0,0.0,0.0,0.0,0.0,0.0,0.0,0.0,0.0,0.0,0.0,0.0,0.0,0.0,0.0,0.0,0.0,0.0,0.0,0.0,0.0,0.0,0.0,0.0,0.0,0.0,0.0,0.0,0.0,0.0,0.0,0.0,0.0,0.0,0.0,0.0,0.0,0.0,0.0,0.0,0.0,0.0,0.0,0.0,0.0,0.0,0.0,0.0,0.0,0.0,0.0,0.0,0.0,0.0,0.0,0.0,0.0,0.0,0.0,0.0,0.0,0.0,0.0,0.0,0.0,0.0,0.0,0.0,0.0,0.0,0.0,0.0,0.0,0.0,0.0,0.0,0.0,0.0,0.0,0.0,0.0,0.0,0.0,0.0,0.0,0.0,0.0,0.0,0.0,0.0,0.0,0.0,0.0,0.0,0.0,0.0,0.0,0.0,0.0,0.0,0.0,0.0,0.0,0.0,0.0,0.0,0.0,0.0,0.0,0.0,0.0,0.0,0.0,0.0,0.0,0.0,0.0,0.0,0.0,0.0,0.0,0.0,0.0,0.0,0.0,0.0,0.0,0.0,0.0,0.0,0.0,0.0,0.0,0.0,0.0,0.0,0.0,0.0,0.0,0.0,0.0,0.0,0.0,0.0,0.0,0.0,0.0,0.0,0.0,0.0,0.0,0.0,0.0,0.0,0.0,0.0,0.0,0.0,0.0,0.0,0.0,0.0,0.0,0.0,0.0,0.0,0.0,0.0,0.0,0.0,0.0,0.0,0.0,0.0,0.0,0.0,0.0,0.0,0.0,0.0,0.0,0.0,0.0,0.0,0.0,0.0,0.0,0.0,0.0,0.0,0.0,0.0,0.0,0.0,0.0,0.0,0.0,0.0,0.0,0.0,0.0,0.0,0.0,0.0,0.0,0.0,0.0,0.0,0.0,0.0,0.0,0.0,0.0,0.0,0.0,0.0,0.0,0.0,0.0,0.0,0.0,0.0,0.0,0.0,0.0,0.0,0.0,0.0,0.0,0.0,0.0,0.0,0.0,0.0,0.0,0.0,0.0,0.0,0.0,0.0,0.0,0.0,0.0,0.0,0.0,0.0,0.0,0.0,0.0,0.0,0.0,0.0,0.0,0.0,0.0,0.0,0.0,0.0,0.0,0.0,0.0,0.0,0.0,0.0,0.0,0.0,0.0,0.0,0.0,0.0,0.0,0.0,0.0,0.0,0.0,0.0,0.0,0.0,0.0,0.0,0.0,0.0,0.0,0.0,0.0,0.0,0.0,0.0,0.0,0.0,0.0,0.0,0.0,0.0,0.0,0.0,0.0,0.0,0.0,0.0,0.0,0.0,0.0,0.0,0.0,0.0,0.0,0.0,0.0,0.0,0.0,0.0,0.0,0.0,0.0,0.0,0.0,0.0,0.0,0.0,0.0,0.0,0.0,0.0,0.0,0.0,0.0,0.0,0.0,0.0,0.0,0.0,0.0,0.0,0.0,0.0,0.0,0.0,0.0,0.0,0.0,0.0,0.0,0.0,0.0,0.0,0.0,0.0,0.0,0.0,0.0,0.0,0.0,0.0,0.0,0.0,0.0,0.0,0.0,0.0,0.0,0.0,0.0,0.0,0.0,0.0,0.0,0.0,0.0,0.0,0.0,0.0,0.0,0.0,0.0,0.0,0.0,0.0,0.0,0.0,0.0,0.0,0.0,0.0,0.0,0.0,0.0,0.0,0.0,0.0,0.0,0.0,0.0,0.0,0.0,0.0,0.0,0.0,0.0,0.0,0.0,0.0,0.0,0.0,0.0,0.0,0.0,0.0,0.0,0.0,0.0,0.0,0.0,0.0,0.0,0.0,0.0,0.0,0.0,0.0,0.0,0.0,0.0,0.0,0.0,0.0,0.0,0.0,0.0,0.0,0.0,0.0,0.0,0.0,0.0,0.0,0.0,0.0,0.0,0.0,0.0,0.0,0.0,0.0,0.0,0.0,0.0,0.0,0.0,0.0,0.0,0.0,0.0,0.0,0.0,0.0,0.0,0.0,0.0,0.0,0.0,0.0,0.0,0.0,0.0,0.0,0.0,0.0,0.0,0.0,0.0,0.0,0.0,0.0,0.0,0.0,0.0,0.0,0.0,0.0,0.0,0.0,0.0,0.0,0.0,0.0,0.0,0.0,0.0,0.0,0.0,0.0,0.0,0.0,0.0,0.0,0.0,0.0,0.0,0.0,0.0,0.0,0.0,0.0,0.0,0.0,0.0,0.0,0.0,0.0,0.0,0.0,0.0,0.0,0.0,0.0,0.0,0.0,0.0,0.0,0.0,0.0,0.0,0.0,0.0,0.0,0.0,0.0,0.0,0.0,0.0,0.0,0.0,0.0,0.0,0.0,0.0,0.0,0.0,0.0,0.0,0.0,0.0,0.0,0.0,0.0,0.0,0.0,0.0,0.0,0.0,0.0,0.0,0.0,0.0,0.0,0.0,0.0,0.0,0.0,0.0,0.0,0.0,0.0,0.0,0.0,0.0,0.0,0.0,0.0,0.0,0.0,0.0,0.0,0.0,0.0,0.0,0.0,0.0,0.0,0.0,0.0,0.0,0.0,0.0,0.0,0.0,0.0,0.0,0.0,0.0,0.0,0.0,0.0,0.0,0.0,0.0,0.0,0.0,0.0,0.0,0.0,0.0,0.0,0.0,0.0,0.0,0.0,0.0,0.0,0.0,0.0,0.0,0.0,0.0,0.0,0.0,0.0,0.0,0.0,0.0,0.0,0.0,0.0,0.0,0.0,0.0,0.0,0.0,0.0,0.0,0.0,0.0,0.0,0.0,0.0,0.0,0.0,0.0,0.0,0.0,0.0,0.0,0.0,0.0,0.0,0.0,0.0,0.0,0.0,0.0,0.0,0.0,0.0,0.0,0.0,0.0,0.0,0.0,0.0,0.0,0.0,0.0,0.0,0.0,0.0,0.0,0.0,0.0,0.0,0.0,0.0,0.0,0.0,0.0,0.0,0.0,0.0,0.0,0.0,0.0,0.0,0.0,0.0,0.0,0.0,0.0,0.0,0.0,0.0,0.0,0.0,0.0,0.0,0.0,0.0,0.0,0.0,0.0,0.0,0.0,0.0,0.0,0.0,0.0,0.0,0.0,0.0,0.0,0.0,0.0,0.0,0.0,0.0,0.0,0.0,0.0,0.0,0.0,0.0,0.0,0.0,0.0,0.0,0.0,0.0,0.0,0.0,0.0,0.0,0.0,0.0,0.0,0.0,0.0,0.0,0.0,0.0,0.0,0.0,0.0,0.0,0.0,0.0,0.0,0.0,0.0,0.0,0.0,0.0,0.0,0.0,0.0,0.0,0.0,0.0,0.0,0.0,0.0,0.0,0.0,0.0,0.0,0.0,0.0,0.0,0.0,0.0,0.0,0.0,0.0,0.0,0.0,0.0,0.0,0.0,0.0,0.0,0.0,0.0,0.0,0.0,0.0,0.0,0.0,0.0,0.0,0.0,0.0,0.0,0.0,0.0,0.0,0.0,0.0,0.0,0.0,0.0,0.0,0.0,0.0,0.0,0.0,0.0,0.0,0.0,0.0,0.0,0.0,0.0,0.0,0.0,0.0,0.0,0.0,0.0,0.0,0.0,0.0,0.0,0.0,0.0,0.0,0.0,0.0,0.0,0.0,0.0,0.0,0.0,0.0,0.0,0.0,0.0,0.0,0.0,0.0,0.0,0.0,0.0,0.0,0.0,0.0,0.0,0.0,0.0,0.0,0.0,0.0,0.0,0.0,0.0,0.0,0.0,0.0,0.0,0.0,0.0,0.0,0.0,0.0,0.0,0.0,0.0,0.0,0.0,0.0,0.0,0.0,0.0,0.0,0.0,0.0,0.0,0.0,0.0,0.0,0.0,0.0,0.0,0.0,0.0,0.0,0.0,0.0,0.0,0.0,0.0,0.0,0.0,0.0,0.0,0.0,0.0,0.0,0.0,0.0,0.0,0.0,0.0,0.0,0.0,0.0,0.0,0.0,0.0,0.0,0.0,0.0,0.0,0.0,0.0,0.0,0.0,0.0,0.0,0.0,0.0,0.0,0.0,0.0,0.0,0.0,0.0,0.0,0.0,0.0,0.0,0.0,0.0,0.0,0.0,0.0,0.0,0.0,0.0,0.0,0.0,0.0,0.0,0.0,0.0,0.0,0.0,0.0,0.0,0.0,0.0,0.0,0.0,0.0,0.0,0.0,0.0,0.0,0.0,0.0,0.0,0.0,0.0,0.0,0.0,0.0,0.0,0.0,0.0,0.0,0.0,0.0,0.0,0.0,0.0,0.0,0.0,0.0,0.0,0.0,0.0,0.0,0.0,0.0,0.0,0.0,0.0,0.0,0.0,0.0,0.0,0.0,0.0,0.0,0.0,0.0,0.0,0.0,0.0,0.0,0.0,0.0,0.0,0.0,0.0,0.0,0.0,0.0,0.0,0.0,0.0,0.0,0.0,0.0,0.0,0.0,0.0,0.0,0.0,0.0,0.0,0.0,0.0,0.0,0.0,0.0,0.0,0.0,0.0,0.0,0.0,0.0,0.0,0.0,0.0,0.0,0.0,0.0,0.0,0.0,0.0,0.0,0.0,0.0,0.0,0.0,0.0,0.0,0.0,0.0,0.0,0.0,0.0,0.0,0.0,0.0,0.0,0.0,0.0,0.0,0.0,0.0,0.0,0.0,0.0,0.0,0.0,0.0,0.0,0.0,0.0,0.0,0.0,0.0,0.0,0.0,0.0,0.0,0.0,0.0,0.0,0.0,0.0,0.0,0.0,0.0,0.0,0.0,0.0,0.0,0.0,0.0,0.0,0.0,0.0,0.0,0.0,0.0,0.0,0.0,0.0,0.0,0.0,0.0,0.0,0.0,0.0,0.0,0.0,0.0,0.0,0.0,0.0,0.0,0.0,0.0,0.0,0.0,0.0,0.0,0.0,0.0,0.0,0.0,0.0,0.0,0.0,0.0,0.0,0.0,0.0,0.0,0.0,0.0,0.0,0.0,0.0,0.0,0.0,0.0,0.0,0.0,0.0,0.0,0.0,0.0,0.0,0.0,0.0,0.0,0.0,0.0,0.0,0.0,0.0,0.0,0.0,0.0,0.0,0.0,0.0,0.0,0.0,0.0,0.0,0.0,0.0,0.0,0.0,0.0,-1.9334,0.0,0.0,0.0,0.0,0.0,0.0,0.0,0.0,0.0,0.0,0.0,0.0,0.0,0.0,0.0,0.0,0.0,0.0,0.0,0.0,0.0,0.0,0.0,0.0,0.0,0.0,0.0,-2.2077,-2.1675,-2.1039,-2.0764,-2.0347,-1.9744,-1.9708,-1.9584,-1.9332,-1.9332,-1.9303,-1.9244,-1.9465,-1.9652,-1.9836,-2.0989,-2.185,-2.2441,0.0,0.0,0.0,0.0,0.0,0.0,0.0,0.0,0.0,0.0,0.0,0.0,0.0,0.0,0.0,0.0,0.0,0.0,0.0,0.0,0.0,0.0,0.0,0.0,0.0,0.0,0.0,0.0,0.0,0.0,0.0,0.0,0.0,0.0,0.0,0.0,0.0,0.0,0.0,0.0,0.0,0.0,0.0,0.0,0.0,0.0,0.0,0.0,0.0,0.0,0.0,0.0,0.0,0.0,0.0,0.0,0.0,0.0,0.0,0.0,0.0,0.0,0.0,0.0,0.0,0.0,0.0,0.0,0.0,0.0,0.0,-1.9214,0.0,0.0,0.0,0.0,0.0,0.0,0.0,0.0,0.0,0.0,0.0,0.0,0.0,0.0,0.0,0.0,0.0,0.0,0.0,0.0,0.0,0.0,0.0,-2.2237,-2.2268,-2.2194,-2.218,-2.1811,-2.0943,-2.0878,-2.0482,-1.9603,-1.9566,-1.9314,-1.8765,-1.8746,-1.8496,-1.794,-1.8127,-1.8513,-1.9027,-1.9663,-2.0559,0.0,0.0,0.0,0.0,0.0,0.0,0.0,0.0,0.0,0.0,0.0,0.0,0.0,0.0,0.0,0.0,0.0,0.0,0.0,0.0,0.0,0.0,0.0,0.0,0.0,0.0,0.0,0.0,0.0,0.0,0.0,0.0,0.0,0.0,0.0,0.0,0.0,0.0,0.0,0.0,0.0,0.0,0.0,0.0,0.0,0.0,0.0,0.0,0.0,0.0,0.0,0.0,0.0,0.0,0.0,0.0,0.0,0.0,0.0,0.0,0.0,0.0,0.0,0.0,0.0,-1.5331,-1.509,-1.5154,-1.4946,-1.5258,-1.6073,-1.7325,-1.7896,-1.793,-1.7909,0.0,0.0,0.0,0.0,0.0,0.0,0.0,0.0,0.0,0.0,0.0,0.0,0.0,0.0,0.0,0.0,0.0,0.0,0.0,0.0,0.0,-2.2046,-2.2135,-2.1735,-2.1688,-2.1321,-2.0449,-2.0399,-1.9971,-1.9043,-1.9006,-1.8746,-1.8224,-1.8224,-1.7906,-1.7322,-1.6388,-1.646,-1.7484,-1.7126,-1.8038,-1.9999,0.0,0.0,0.0,0.0,0.0,0.0,0.0,0.0,0.0,0.0,0.0,0.0,0.0,0.0,0.0,0.0,0.0,0.0,0.0,0.0,0.0,0.0,0.0,0.0,0.0,0.0,0.0,0.0,0.0,0.0,0.0,0.0,0.0,0.0,0.0,0.0,0.0,0.0,0.0,0.0,0.0,0.0,0.0,0.0,-1.9934,-2.0407,0.0,0.0,0.0,0.0,0.0,0.0,0.0,0.0,0.0,0.0,0.0,0.0,0.0,-1.3753,-1.3264,-1.3033,-1.2713,-1.2386,-1.2683,-1.2511,-1.1929,-1.2654,-1.2892,-1.2859,-1.3777,0.0,-1.7618,-1.7219,0.0,0.0,0.0,0.0,0.0,0.0,0.0,0.0,0.0,0.0,0.0,0.0,0.0,0.0,0.0,0.0,0.0,0.0,0.0,0.0,0.0,-2.1446,-2.1493,-2.1275,-2.0991,-2.057,-1.9956,-1.9626,-1.9156,-1.8496,-1.8458,-1.8039,-1.7156,-1.7136,-1.6705,-1.5792,-1.5296,-1.5308,-1.5792,-1.5857,-1.657,-1.7863,-1.9264,-2.0792,-2.2319,-2.234,0.0,0.0,0.0,0.0,0.0,0.0,0.0,0.0,0.0,0.0,0.0,0.0,0.0,0.0,0.0,0.0,0.0,0.0,0.0,0.0,0.0,0.0,0.0,0.0,0.0,0.0,0.0,0.0,0.0,0.0,0.0,0.0,0.0,0.0,0.0,0.0,0.0,0.0,0.0,-1.944,-1.9854,-1.8796,-1.8526,-1.8067,0.0,0.0,0.0,0.0,0.0,0.0,0.0,0.0,0.0,-1.4258,-1.3608,-1.322,-1.3054,-1.2549,-1.234,-1.2434,-1.218,-1.2123,-1.2254,-1.2424,-1.2558,-1.2658,-1.2815,-1.3682,-1.5019,-1.4999,-1.4816,-1.4573,0.0,0.0,0.0,0.0,-1.4238,-1.3997,0.0,0.0,0.0,0.0,0.0,0.0,0.0,0.0,0.0,0.0,0.0,0.0,-2.0373,-2.0389,-2.0374,-2.0436,-2.0068,-1.9602,-1.9016,-1.8608,-1.8107,-1.7471,-1.743,-1.6964,-1.6003,-1.566,-1.5016,-1.4071,-1.4116,-1.4251,-1.4491,-1.4981,-1.5617,-1.6358,-1.7105,-1.8932,-2.1465,-2.1569,-2.1936,0.0,0.0,0.0,0.0,0.0,0.0,0.0,0.0,0.0,0.0,0.0,0.0,0.0,0.0,0.0,0.0,0.0,0.0,0.0,0.0,0.0,0.0,0.0,0.0,0.0,0.0,0.0,0.0,0.0,0.0,0.0,0.0,0.0,0.0,0.0,0.0,0.0,0.0,-1.9314,-1.9508,-1.7697,-1.7741,-1.7396,0.0,0.0,0.0,0.0,0.0,0.0,-1.3592,-1.2894,-1.2555,-1.2716,-1.2218,-1.1981,-1.2112,-1.1682,-1.1667,-1.2103,-1.1685,-1.1634,-1.1928,-1.1684,-1.1609,-1.1577,-1.1367,-1.1434,-1.179,-1.2794,-1.3287,-1.3332,-1.3013,-1.2842,-1.2725,-1.2625,-1.1965,-1.1234,0.0,0.0,0.0,0.0,0.0,0.0,0.0,0.0,0.0,0.0,0.0,-1.8157,-1.8838,-1.8734,-1.8691,-1.8894,-1.8904,-1.8422,-1.739,-1.7288,-1.678,-1.5668,-1.5624,-1.5373,-1.4789,-1.3609,-1.2778,-1.2319,-1.2512,-1.3027,-1.3866,-1.425,-1.5048,-1.6125,-1.6361,-1.7685,-1.9751,-2.0121,-2.0831,-2.1657,0.0,0.0,0.0,0.0,0.0,0.0,0.0,0.0,0.0,0.0,0.0,0.0,0.0,0.0,0.0,0.0,0.0,0.0,0.0,0.0,0.0,0.0,0.0,0.0,0.0,0.0,0.0,0.0,0.0,0.0,0.0,0.0,0.0,0.0,0.0,0.0,0.0,0.0,0.0,-1.8564,-1.7809,0.0,0.0,0.0,0.0,-1.4299,-1.3812,-1.2871,-1.1337,-1.0331,-0.9449,-0.8723,-0.8533,-0.8523,-0.8658,-0.919,-0.9527,-0.9675,-1.0354,-1.0082,-0.9034,-0.9322,-0.8825,-0.7804,-0.8106,-0.8237,-0.8479,-1.1286,-1.2667,-1.2901,-1.1702,-1.1443,-1.1722,-1.1353,-1.0516,-0.9679,0.0,0.0,0.0,0.0,0.0,0.0,0.0,0.0,-1.6941,-1.6941,-1.6876,-1.6945,-1.7175,-1.7142,-1.7109,-1.7175,-1.6894,-1.6511,-1.6123,-1.578,-1.5538,-1.537,-1.5382,-1.4971,-1.4124,-1.2626,-1.1852,-1.1871,-1.195,-1.2155,-1.2477,-1.312,-1.3871,-1.4628,-1.4978,-1.5945,-1.746,-1.9118,-2.0169,-2.0734,-2.107,-2.1368,0.0,0.0,0.0,0.0,0.0,0.0,0.0,0.0,0.0,0.0,0.0,0.0,0.0,0.0,0.0,0.0,0.0,0.0,0.0,0.0,0.0,0.0,0.0,0.0,0.0,0.0,0.0,0.0,0.0,0.0,0.0,0.0,0.0,0.0,0.0,0.0,0.0,-1.6422,-1.6383,0.0,-1.4238,-1.3389,-1.2613,-1.1886,-1.1272,-1.0689,-1.0103,-0.9633,-0.9264,-0.898,-0.8946,-0.8829,-0.8641,-0.8881,-0.8911,-0.8803,-0.8958,-0.8832,-0.8413,-0.8447,-0.8243,-0.7813,-0.7959,-0.7994,-0.8081,-0.9127,-0.9643,-0.9749,-0.9273,-0.9014,-0.8866,-0.8792,-0.8374,-0.7858,0.0,0.0,0.0,0.0,0.0,0.0,0.0,0.0,-1.5676,-1.5455,-1.5245,-1.5111,-1.5088,-1.4877,-1.4933,-1.5377,-1.5092,-1.4801,-1.4586,-1.4602,-1.4352,-1.3816,-1.3895,-1.3516,-1.2636,-1.1616,-1.1122,-1.1151,-1.143,-1.1628,-1.1747,-1.2414,-1.2934,-1.3341,-1.3642,-1.4372,-1.5456,-1.742,-1.8814,-1.9765,-2.0513,-2.1042,-2.1368,0.0,0.0,0.0,0.0,0.0,0.0,0.0,0.0,0.0,0.0,0.0,0.0,0.0,0.0,0.0,0.0,0.0,0.0,0.0,0.0,0.0,0.0,0.0,0.0,0.0,0.0,0.0,0.0,0.0,0.0,0.0,0.0,0.0,0.0,0.0,-1.5556,-1.4011,-1.4276,-1.3963,-1.2373,-1.145,-1.0775,-1.0265,-0.9513,-0.9051,-0.9051,-0.8654,-0.8403,-0.8369,-0.8307,-0.817,-0.7952,-0.8148,-0.815,-0.8044,-0.8196,-0.8098,-0.7823,-0.775,-0.7549,-0.7243,-0.7214,-0.7187,-0.7182,-0.7148,-0.712,-0.7153,-0.7442,-0.7362,-0.7097,-0.7209,-0.6828,-0.6286,0.0,0.0,0.0,0.0,0.0,0.0,0.0,-1.4629,-1.4377,-1.3705,-1.309,-1.2686,-1.2652,-1.2042,-1.2168,-1.3483,-1.3601,-1.3375,-1.2783,-1.3728,-1.3248,-1.0913,-1.1062,-1.0917,-1.027,-1.0482,-1.0399,-1.0036,-1.086,-1.1398,-1.1734,-1.2186,-1.2388,-1.2393,-1.252,-1.3032,-1.3838,-1.5037,-1.6704,-1.8631,-1.9845,-2.0586,-2.0965,0.0,0.0,0.0,0.0,0.0,0.0,0.0,0.0,0.0,0.0,0.0,0.0,0.0,0.0,0.0,0.0,0.0,0.0,0.0,0.0,0.0,0.0,0.0,0.0,0.0,0.0,0.0,0.0,0.0,0.0,0.0,0.0,0.0,-1.3466,-1.3715,-1.3205,-1.1675,-1.1644,-1.1461,-1.071,-1.004,-0.9653,-0.9613,-0.8709,-0.8172,-0.8172,-0.7233,-0.663,-0.6525,-0.6385,-0.6313,-0.6313,-0.6813,-0.7154,-0.7278,-0.7981,-0.7889,-0.7051,-0.7047,-0.6583,-0.5793,-0.5657,-0.5596,-0.5586,-0.5467,-0.5402,-0.5498,-0.6334,-0.665,-0.6645,-0.665,-0.5995,-0.5086,0.0,0.0,0.0,0.0,0.0,0.0,0.0,-1.2918,-1.2361,-1.1688,-1.0981,-1.0747,-1.1273,-1.068,-1.0621,-1.1531,-1.1614,-1.1638,-1.1696,-1.1762,-1.1455,-1.0689,-0.9865,-0.9451,-0.951,-0.8756,-0.8443,-0.8573,-0.9623,-1.0078,-1.0028,-1.1536,-1.2142,-1.1989,-1.2318,-1.2586,-1.2834,-1.371,-1.4415,-1.5122,-1.7434,-1.8616,-1.9041,0.0,0.0,0.0,0.0,0.0,0.0,0.0,0.0,0.0,0.0,0.0,0.0,0.0,0.0,0.0,0.0,0.0,0.0,0.0,0.0,0.0,0.0,0.0,0.0,0.0,0.0,0.0,0.0,0.0,0.0,0.0,-1.1081,-1.099,-1.1784,-1.1496,-1.1178,-1.1022,-1.1051,-1.0673,-0.9655,-0.9354,-0.8928,-0.8107,-0.754,-0.7243,-0.7243,-0.6885,-0.6681,-0.6637,-0.66,-0.658,-0.658,-0.662,-0.6695,-0.6731,-0.6682,-0.6548,-0.629,-0.6212,-0.6015,-0.58,-0.5762,-0.5742,-0.5732,-0.5586,-0.5562,-0.5549,-0.57,-0.5676,-0.5553,-0.5709,-0.5562,-0.5277,0.0,0.0,0.0,0.0,0.0,0.0,0.0,-1.1555,-1.0679,-1.0,-0.9283,-0.888,-0.9018,-0.8933,-0.9141,-0.9854,-1.0335,-1.0609,-1.0664,-0.9989,0.0,0.0,0.0,-0.83,-0.8474,-0.8026,-0.7874,-0.807,-0.8799,-0.9079,-0.8947,-1.0071,-1.0519,-1.0386,-1.0555,-1.0826,-1.12,-1.1925,-1.2448,-1.2906,-1.4887,-1.6395,-1.7491,-1.7918,-1.8561,-1.9314,-1.9857,-2.0406,-2.0842,-2.0732,0.0,0.0,0.0,0.0,0.0,0.0,0.0,0.0,0.0,0.0,0.0,0.0,0.0,0.0,0.0,0.0,0.0,0.0,0.0,0.0,0.0,0.0,0.0,0.0,-0.9812,-0.9666,-0.9749,-0.9673,-0.9579,-0.9568,-0.9509,-0.9221,-0.8602,-0.8502,-0.8191,-0.7511,-0.7248,-0.7115,-0.7115,-0.697,-0.6858,-0.68,-0.6797,-0.6766,-0.6702,-0.6614,-0.6566,-0.6566,-0.6393,-0.6278,-0.6213,-0.6122,-0.6051,-0.5989,-0.5925,-0.5861,-0.5754,-0.5221,-0.5202,0.0,0.0,0.0,0.0,0.0,-0.5395,-0.5382,0.0,0.0,0.0,0.0,0.0,0.0,0.0,-1.0486,-0.9327,-0.8567,-0.7823,-0.7138,-0.6551,-0.7069,-0.7759,-0.8528,-0.9483,-0.9933,-0.9671,-0.8463,0.0,-0.8409,-0.7684,-0.7295,-0.7295,-0.7721,-0.7928,-0.7928,-0.8165,-0.8287,-0.8263,-0.8393,-0.8428,-0.8393,-0.828,-0.8615,-0.9336,-0.9974,-1.0674,-1.1377,-1.2174,-1.3906,-1.6033,-1.6094,-1.6822,-1.7756,-1.7948,-1.8806,-1.9813,-1.9444,0.0,0.0,0.0,0.0,0.0,0.0,0.0,0.0,0.0,0.0,0.0,0.0,0.0,0.0,0.0,0.0,0.0,0.0,0.0,0.0,0.0,0.0,0.0,0.0,-0.8403,-0.8387,-0.7893,-0.8241,-0.8397,-0.7856,-0.7699,-0.7675,-0.7797,-0.7695,-0.7624,-0.7624,-0.7482,-0.7443,-0.7443,0.0,0.0,0.0,0.0,-0.6905,-0.6753,-0.6732,-0.6725,-0.6725,-0.6709,-0.6627,-0.6538,-0.6518,-0.6364,-0.6119,-0.5929,-0.5714,-0.5436,-0.4447,-0.4462,-0.5113,-0.5199,-0.5296,-0.5395,-0.5292,-0.5296,-0.5395,0.0,0.0,0.0,0.0,0.0,0.0,0.0,-0.9787,-0.8423,-0.718,-0.636,-0.5851,-0.5725,-0.5851,-0.6465,-0.7791,-0.8336,-0.8614,-0.8655,0.0,-0.6863,-0.6679,-0.6214,-0.597,-0.597,-0.6154,-0.625,-0.625,-0.7202,-0.7577,-0.7362,-0.8298,-0.8602,-0.8398,-0.8364,-0.8444,-0.8607,-0.8734,-0.8847,-0.8892,-0.918,-1.1038,-1.3712,-1.4337,-1.4676,-1.5081,-1.6425,-1.7534,-1.8504,-1.9163,-2.0268,-2.1322,-2.0972,0.0,0.0,0.0,0.0,0.0,0.0,0.0,0.0,0.0,0.0,0.0,0.0,0.0,0.0,0.0,0.0,0.0,0.0,0.0,0.0,-0.8371,-0.7979,-0.7668,-0.7763,-0.7876,-0.7947,-0.7801,-0.7787,-0.778,-0.7807,-0.7787,-0.777,-0.777,-0.7638,-0.7556,-0.7556,-0.7526,-0.7441,-0.7288,-0.7285,-0.721,-0.7014,-0.69,-0.6842,-0.6839,0.0,0.0,-0.6651,-0.6569,-0.6014,-0.518,-0.5018,-0.4448,-0.3613,-0.3265,-0.318,-0.3279,-0.3984,-0.4722,-0.5296,-0.4553,-0.4755,-0.5395,0.0,0.0,0.0,0.0,0.0,0.0,0.0,-0.9018,-0.7395,-0.6698,-0.5674,-0.4995,-0.5011,-0.562,-0.6335,-0.7074,-0.7704,-0.7857,0.0,-0.6818,-0.627,-0.591,-0.5709,-0.5623,-0.5694,-0.584,-0.5915,-0.5915,-0.6589,-0.6813,-0.6697,-0.7297,-0.7202,-0.6548,-0.6463,-0.6132,-0.5689,-0.604,-0.6174,-0.6143,-0.6632,-0.778,-0.936,-1.1145,-1.2153,-1.2725,-1.412,-1.5349,-1.646,-1.7073,-1.8807,-2.0595,-1.9993,-2.0437,-2.1036,0.0,0.0,0.0,0.0,0.0,0.0,0.0,0.0,0.0,0.0,0.0,0.0,0.0,0.0,-0.8663,-0.7777,0.0,-0.7241,-0.6242,-0.6356,-0.6421,-0.5963,-0.5888,-0.6137,-0.6833,-0.7478,-0.7628,-0.6981,-0.6883,-0.718,-0.7828,-0.6523,-0.5971,-0.6643,-0.601,-0.5546,-0.5481,-0.5476,-0.5468,-0.5354,-0.5298,-0.5537,-0.6156,-0.5475,-0.5416,-0.5867,-0.5196,-0.458,-0.4,-0.3946,-0.3569,-0.2988,-0.2842,-0.2479,-0.2095,-0.3006,-0.3895,-0.4686,-0.4688,-0.499,-0.5395,0.0,0.0,0.0,0.0,0.0,0.0,0.0,-0.8803,-0.695,-0.6811,-0.5683,-0.4842,-0.4701,-0.5846,-0.663,-0.6703,-0.7209,0.0,0.0,-0.5903,-0.5545,-0.5051,-0.5054,-0.5127,-0.5219,-0.5356,-0.5425,-0.5425,-0.5611,-0.567,-0.567,-0.567,-0.5237,-0.437,-0.4284,-0.3753,-0.2996,-0.3591,-0.3801,-0.3858,-0.4584,-0.4847,-0.5057,-0.7429,-0.9088,-1.03,-1.1395,-1.2624,-1.3823,-1.4327,-1.6613,-1.9072,-1.8263,-1.9381,-2.0788,-1.9773,-1.937,0.0,0.0,0.0,0.0,0.0,0.0,0.0,0.0,0.0,-0.9138,-0.8702,-0.7772,-0.6525,-0.5055,-0.5708,-0.5872,-0.4141,-0.4728,-0.5111,-0.413,-0.3999,-0.4313,-0.513,-0.6406,-0.6781,-0.5727,-0.5627,-0.6077,-0.7132,-0.5102,-0.4322,-0.5398,-0.4305,-0.3662,-0.3637,-0.3635,-0.3638,-0.3592,-0.3592,-0.4078,-0.5045,-0.4061,-0.4024,-0.4779,-0.3771,-0.3151,-0.2847,-0.261,-0.2436,-0.2314,-0.2219,-0.1867,-0.1461,-0.238,-0.3293,-0.4178,-0.4873,-0.5259,-0.5395,0.0,0.0,0.0,0.0,0.0,0.0,0.0,0.0,-0.8239,-0.7565,-0.6843,-0.6113,-0.5454,-0.6104,-0.6723,-0.7005,0.0,0.0,-0.5276,-0.4617,-0.3881,-0.3064,-0.3141,-0.322,-0.3227,-0.3342,-0.3422,-0.3422,-0.3431,-0.3474,-0.3474,-0.3474,-0.3396,-0.3279,-0.327,-0.3188,-0.3073,-0.3179,-0.3137,-0.3045,-0.326,-0.3203,-0.3051,-0.3602,-0.52,-0.725,-0.8454,-0.9504,-1.052,-1.1619,-1.3496,-1.5426,-1.6079,-1.7127,-1.7976,-1.7152,0.0,-1.6565,-1.5028,-1.3308,-1.2082,-1.2553,-1.1496,-1.0527,0.0,0.0,-0.7262,-0.7293,-0.5595,-0.402,-0.3812,-0.397,-0.4145,-0.399,-0.411,-0.4157,-0.4012,-0.4018,-0.3638,-0.2588,-0.3639,-0.4366,-0.4218,-0.4218,-0.4266,-0.4418,-0.4159,-0.4054,-0.4203,-0.4045,-0.3908,-0.3789,-0.3788,-0.372,-0.358,-0.3579,-0.3681,-0.3792,-0.3659,-0.3655,-0.3774,-0.35,-0.2844,-0.1875,-0.0799,-0.0353,-0.0312,-0.0304,-0.0791,-0.165,-0.252,-0.3532,-0.4427,-0.4225,-0.4686,-0.5395,0.0,0.0,0.0,0.0,0.0,0.0,0.0,0.0,0.0,-0.8923,-0.7858,-0.7058,-0.6769,-0.6644,-0.6487,-0.6184,0.0,0.0,-0.4263,-0.3619,-0.3107,-0.2816,-0.2857,-0.293,-0.3001,-0.3072,-0.3089,-0.3085,-0.3089,-0.3087,-0.3085,-0.3085,-0.2457,-0.1286,-0.1286,-0.0623,0.0507,0.0633,0.0667,0.0616,0.067,0.0312,-0.0265,-0.0928,-0.25,-0.452,-0.6049,-0.7244,0.0,0.0,-1.1002,-1.2818,-1.33,-1.4363,-1.5331,-1.4741,-1.4741,0.0,-1.3255,-1.2157,-1.1149,0.0,-0.9158,-0.8364,-0.764,-0.6119,-0.4945,-0.5155,-0.4409,-0.3488,-0.2794,-0.3359,-0.3435,0.0,-0.2329,-0.2544,-0.1782,-0.1692,-0.1443,-0.0877,-0.2103,-0.2911,-0.286,-0.3537,-0.4016,-0.4016,-0.2564,-0.2013,-0.2815,-0.2113,-0.1648,-0.1568,-0.1598,-0.1568,-0.1523,-0.1506,-0.185,-0.2547,-0.1835,-0.1879,-0.2544,-0.1755,-0.1159,-0.0726,-0.0238,0.0,0.0,0.0,-0.0618,-0.1693,-0.255,-0.356,-0.4536,-0.4909,-0.5249,-0.5539,0.0,0.0,0.0,0.0,0.0,0.0,0.0,0.0,0.0,0.0,-0.9191,-0.8061,-0.7676,-0.7004,-0.6226,0.0,0.0,0.0,0.0,-0.2305,-0.1864,-0.1683,-0.1407,-0.126,-0.1338,-0.1289,-0.1253,-0.1272,-0.1253,-0.1253,-0.1272,-0.1272,-0.0437,0.0993,0.0947,0.1732,0.3156,0.3271,0.3214,0.3129,0.3264,0.262,0.148,0.0554,-0.0974,-0.2851,-0.4339,-0.556,0.0,0.0,-0.8741,-1.0152,-1.0488,-1.139,-1.2263,-1.1926,-1.2029,-1.204,-1.0952,0.0,0.0,-0.7614,-0.6786,-0.6164,-0.4938,-0.3812,-0.3046,-0.3282,-0.3006,-0.2574,-0.2108,-0.2815,-0.2914,-0.136,-0.1921,-0.223,-0.1218,-0.1122,-0.1126,-0.1126,-0.2368,-0.2895,-0.2069,-0.291,-0.3341,-0.2938,-0.1112,-0.0404,-0.141,-0.0504,0.0,0.0,0.0,0.0,0.0,0.0,-0.0458,-0.131,-0.0407,-0.0451,-0.1253,-0.0386,0.0,0.0,0.0,0.0,0.0,0.0,-0.0628,-0.1681,-0.2304,-0.3351,-0.4629,-0.5254,-0.5551,-0.5661,0.0,0.0,0.0,0.0,0.0,0.0,0.0,0.0,0.0,0.0,0.0,0.0,0.0,0.0,0.0,0.0,0.0,0.0,0.0,-0.0496,0.0395,0.143,0.2388,0.2969,0.3108,0.3307,0.3388,0.3387,0.3388,0.3388,0.3387,0.3387,0.3428,0.3467,0.3267,0.3234,0.3269,0.3158,0.3125,0.3085,0.3125,0.2503,0.148,0.0554,-0.0927,-0.2635,-0.3535,0.0,0.0,0.0,-0.6612,-0.7158,-0.7886,-0.8312,0.0,-0.8404,-0.8344,0.0,0.0,0.0,-0.5996,-0.5347,-0.4532,-0.3924,-0.399,-0.3007,-0.2058,-0.2061,-0.1007,-0.0504,-0.1762,-0.2013,-0.2464,-0.3665,-0.3924,-0.3919,-0.3867,-0.3876,-0.3865,-0.3865,-0.506,-0.4856,0.0,-0.2172,-0.1656,-0.0207,-0.0051,0.0,-0.005,0.0,0.0,0.0,0.0,0.0,0.0,0.0,0.0,-0.0046,0.0,0.0,-0.0045,0.0,0.0,0.0,0.0,0.0,0.0,0.0,-0.0628,-0.1607,-0.1644,-0.2891,-0.4681,-0.4717,-0.5179,-0.5796,0.0,0.0,0.0,0.0,0.0,0.0,0.0,0.0,0.0,0.0,0.0,0.0,0.0,0.0,0.0,0.0,0.0,0.0,0.0,0.0404,0.1274,0.2174,0.2695,0.3024,0.3159,0.3369,0.3519,0.3604,0.3615,0.3615,0.3604,0.3604,0.3936,0.4638,0.5135,0.5759,0.6477,0.7085,0.6924,0.6224,0.6224,0.4747,0.2504,0.1588,-0.0345,-0.2756,0.0,0.0,0.0,0.0,-0.6143,-0.6582,-0.7422,-0.7741,0.0,-0.7043,-0.6514,-0.6022,-0.5469,0.0,-0.4144,-0.3169,-0.2736,-0.2396,-0.1559,-0.1008,-0.0656,-0.0656,-0.03,-0.0396,-0.1632,-0.1927,-0.2419,-0.3651,-0.3957,-0.4003,-0.4003,-0.4024,-0.3989,-0.3989,-0.5295,0.0,0.0,0.0,0.0,-0.1475,-0.1314,-0.131,-0.131,-0.0504,0.0,0.0,0.0,0.0,0.0,0.0,0.0,0.0,0.0,0.0,0.0,0.0,0.0,0.0,0.0,0.0,0.0,0.0,-0.0628,-0.1607,-0.1607,-0.2425,-0.3632,-0.3632,-0.3787,-0.4114,0.0,0.0,0.0,0.0,0.0,0.0,0.0,0.0,0.0,0.0,0.0,0.0,0.0,0.0,0.0,0.0,0.0,0.0,0.0,0.0,0.2125,0.3,0.3746,0.4308,0.4607,0.4678,0.4814,0.5016,0.5131,0.5189,0.5199,0.5608,0.6125,0.6781,0.7264,0.7909,0.8584,0.9053,0.8609,0.7571,0.7241,0.5221,0.233,0.1194,-0.0842,0.0,0.0,0.0,0.0,-0.549,-0.5723,-0.5816,-0.635,-0.6362,-0.6061,-0.5506,-0.4844,-0.4165,-0.3491,-0.2785,-0.1931,-0.0768,-0.0196,0.0199,0.0604,0.0706,0.0555,0.0101,-0.0348,-0.103,-0.2301,-0.2982,-0.3752,-0.4986,-0.5254,-0.5365,-0.5365,-0.5365,-0.5379,-0.5415,-0.629,-0.6334,0.0,0.0,0.0,-0.2184,-0.2021,-0.1812,-0.131,-0.0454,0.0,0.0,0.0,0.0,0.0,0.0,0.0,0.0,0.0,0.0,0.0,0.0,0.0,0.0,0.0,0.0,0.0,0.0,-0.0392,-0.102,-0.102,-0.1645,-0.2579,-0.2579,-0.2579,-0.2696,0.0,0.0,0.0,0.0,0.0,0.0,0.0,0.0,0.0,0.0,0.0,0.0,0.0,0.0,0.0,0.0,0.0,0.0,0.0,0.0,0.0,0.3948,0.5503,0.6589,0.7175,0.7094,0.7186,0.7516,0.7762,0.7888,0.7905,0.9001,0.9494,0.9525,0.9424,0.9398,0.9364,0.8968,0.8162,0.713,0.6111,0.3937,0.107,-0.057,0.0,0.0,0.0,0.0,0.0,0.0,0.0,0.0,0.0,-0.4284,-0.3794,-0.3699,-0.3238,-0.2522,-0.1445,-0.0426,0.0631,0.179,0.294,0.3482,0.2348,0.2057,0.1606,0.0302,-0.0941,-0.2245,0.0,0.0,-0.6203,-0.7385,-0.7726,-0.7824,-0.7834,-0.7828,-0.7879,0.0,0.0,0.0,0.0,0.0,0.0,-0.2218,0.0,-0.1461,-0.0151,-0.0051,0.0,0.0,0.0,0.0,0.0,0.0,0.0,0.0,0.0,0.0,0.0,0.0,0.0,0.0,0.0,0.0,0.0,0.0,0.0,0.0,0.0,-0.0628,-0.1528,-0.1528,-0.1528,-0.1646,0.0,0.0,0.0,0.0,0.0,0.0,0.0,0.0,0.0,0.0,0.0,0.0,0.0,0.0,0.0,0.0,0.0,0.0,0.0,0.0,0.0,0.0,0.0,0.0,0.0,0.0,0.0,0.0,0.0,0.6399,0.6518,0.6821,0.6954,0.6984,0.7582,0.7816,0.7739,0.8263,0.7598,0.6104,0.0,0.2945,0.0302,0.0,0.0,0.0,0.0,0.0,0.0,0.0,0.0,0.0,0.0,-0.4144,-0.3808,-0.2379,-0.1297,-0.0352,0.0698,0.1723,0.2617,0.3055,0.3431,0.359,0.3273,0.2508,0.1538,0.0378,-0.0893,-0.2425,0.0,0.0,0.0,-0.7416,-0.7814,0.0,-0.8136,-0.8055,0.0,-0.8194,0.0,-0.7484,-0.6129,-0.5979,0.0,0.0,-0.2018,-0.1862,-0.1511,-0.0555,0.0,0.0,0.0,0.0,0.0,0.0,0.0,0.0,0.0,0.0,0.0,0.0,0.0,0.0,0.0,0.0,0.0,0.0,0.0,0.0,0.0,-0.0157,-0.0392,-0.0392,-0.0392,-0.0432,0.0,0.0,0.0,0.0,0.0,0.0,0.0,0.0,0.0,0.0,0.0,0.0,0.0,0.0,0.0,0.0,0.0,0.0,0.0,0.0,0.0,0.0,0.0,0.0,0.0,0.0,0.0,0.0,0.0,0.0,0.0,0.4679,0.5061,0.5093,0.5593,0.5775,0.5756,0.0,0.0,0.0,0.0,0.0,0.0,0.0,0.0,0.0,0.0,0.0,0.0,0.0,0.0,-0.504,-0.3818,-0.3192,-0.2619,-0.1103,0.0,0.1025,0.2084,0.3176,0.4031,0.4207,0.465,0.4788,0.3832,0.2709,0.1424,-0.027,-0.1581,0.0,0.0,0.0,0.0,0.0,0.0,0.0,-0.725,-0.7093,-0.6895,0.0,-0.6316,0.0,-0.5172,-0.4572,-0.3618,0.0,-0.2013,-0.1762,-0.1159,-0.0404,0.0,0.0,0.0,0.0,0.0,0.0,0.0,0.0,0.0,0.0,0.0,0.0,0.0,0.0,0.0,0.0,0.0,0.0,0.0,0.0,0.0,0.0,0.0,0.0,0.0,0.0,0.0,0.0,0.0,0.0,0.0,0.0,0.0,0.0,0.0,0.0,0.0,0.0,0.0,0.0,0.0,0.0,0.0,0.0,0.0,0.0,0.0,0.0,0.0,0.0,0.0,0.0,0.0,0.0,0.0,0.0,0.0,0.0,0.0,0.0,0.0,0.0,0.0,0.0,0.0,0.0,0.0,0.0,0.0,0.0,0.0,0.0,0.0,0.0,0.0,0.0,-0.2939,-0.3532,-0.2769,-0.1977,-0.1143,-0.0113,0.0962,0.2007,0.2895,0.4106,0.5157,0.5267,0.5986,0.6114,0.4077,0.2653,0.1139,-0.1073,0.0,-0.3323,-0.3312,-0.4518,-0.5508,-0.5402,0.0,-0.6876,-0.5748,-0.5594,-0.5181,-0.4173,-0.4022,-0.3915,-0.3765,-0.2665,-0.1913,-0.1762,-0.1712,-0.1209,-0.005,0.0,0.0,0.0,0.0,0.0,0.0,0.0,0.0,0.0,0.0,0.0,0.0,0.0,0.0,0.0,0.0,0.0,0.0,0.0,0.0,0.0,0.0,0.0,0.0,0.0,0.0,0.0,0.0,0.0,0.0,0.0,0.0,0.0,0.0,0.0,0.0,0.0,-1.2425,-1.1098,0.0,0.0,0.0,0.0,0.0,0.0,0.0,0.0,0.0,0.0,0.0,0.0,0.0,0.0,0.0,0.0,0.0,0.0,0.0,0.0,0.0,0.0,0.0,0.0,0.0,0.0,0.0,0.0,0.0,0.0,0.0,0.0,0.0,0.0,0.0,0.0,0.0,0.0,-0.1529,-0.2888,-0.187,-0.156,-0.1355,-0.0272,0.1365,0.2906,0.3257,0.4746,0.6262,0.6405,0.5892,0.5103,0.4009,0.2074,0.0,0.0,0.0,-0.3328,-0.3392,-0.3802,-0.413,-0.4124,0.0,0.0,0.0,0.0,-0.4275,0.0,0.0,0.0,0.0,0.0,0.0,0.0,-0.0353,-0.0252,0.0,0.0,0.0,0.0,0.0,0.0,0.0,0.0,0.0,0.0,0.0,0.0,0.0,0.0,0.0,0.0,0.0,0.0,0.0,0.0,0.0,0.0,0.0,0.0,0.0,0.0,0.0,0.0,0.0,0.0,0.0,0.0,0.0,0.0,0.0,-1.561,-1.5276,-1.4399,-1.3375,-1.2128,-1.0509,-0.9418,-0.8508,0.0,0.0,0.0,0.0,0.0,0.0,0.0,0.0,0.0,0.0,0.0,0.0,0.0,0.0,0.0,0.0,0.0,0.0,0.0,0.0,0.0,0.0,0.0,0.0,0.0,0.0,0.0,0.0,0.0,0.0,0.0,0.0,0.0,0.0,0.0,0.0913,0.0037,0.015,0.0456,0.0842,0.1362,0.2523,0.3807,0.4462,0.5395,0.6139,0.6213,0.5488,0.4522,0.3539,0.0,0.0,0.0,-0.1936,-0.2423,-0.2437,0.0,0.0,0.0,0.0,0.0,0.0,0.0,0.0,0.0,0.0,0.0,0.0,0.0,0.0,0.0,0.0,0.0,0.0,0.0,0.0,0.0,0.0,0.0,0.0,0.0,0.0,0.0,0.0,0.0,0.0,0.0,0.0,0.0,0.0,0.0,0.0,0.0,0.0,0.0,0.0,0.0,0.0,0.0,0.0,0.0,0.0,0.0,0.0,0.0,0.0,0.0,0.0,-1.5185,-1.4982,-1.4354,-1.3844,-1.2816,-1.1015,-1.0192,-0.9295,0.0,0.0,0.0,0.0,0.0,0.0,0.0,0.0,0.0,0.0,0.0,0.0,0.0,0.0,0.0,0.0,0.0,0.0,0.0,0.0,0.0,0.0,0.0,0.0,0.0,0.0,0.0,0.0,0.0,0.0,0.0,0.0,0.0,0.0,0.0,0.3157,0.2871,0.213,0.2338,0.2829,0.2613,0.3325,0.4393,0.5222,0.562,0.58,0.58,0.4964,0.3882,0.2854,0.1079,0.0,0.0,-0.1559,-0.152,-0.128,0.0,-0.1587,0.0,0.0,0.0,0.0,0.0,0.0,0.0,0.0,0.0,0.0,0.0,0.0,0.0,0.0,0.0,0.0,0.0,0.0,0.0,0.0,0.0,0.0,0.0,0.0,0.0,0.0,0.0,0.0,0.0,0.0,0.0,0.0,0.0,0.0,0.0,0.0,0.0,0.0,0.0,0.0,0.0,0.0,0.0,0.0,0.0,0.0,0.0,0.0,0.0,0.0,-1.3859,-1.3658,-1.3052,-1.2918,-1.2352,-1.0939,-1.0192,-0.951,0.0,0.0,0.0,0.0,0.0,0.0,0.0,0.0,0.0,0.0,0.0,0.0,0.0,0.0,0.0,0.0,0.0,0.0,0.0,0.0,0.0,0.0,0.0,0.0,0.0,0.0,0.0,0.0,0.0,0.0,0.0,0.0,0.0,0.0,0.0,0.0,0.3925,0.3059,0.2769,0.2537,0.1696,0.0,0.0,0.4318,0.5042,0.58,0.58,0.4424,0.2827,0.1931,0.0,0.0,-0.1332,-0.1477,-0.1293,-0.0343,-0.0156,-0.0203,0.0,0.0,0.0,0.0,0.0,0.0,0.0,0.0,0.0,0.0,0.0,0.0,0.0,0.0,0.0,0.0,0.0,0.0,0.0,0.0,0.0,0.0,0.0,0.0,0.0,0.0,0.0,0.0,0.0,0.0,0.0,0.0,0.0,0.0,0.0,0.0,0.0,0.0,0.0,0.0,0.0,0.0,0.0,0.0,0.0,0.0,0.0,0.0,0.0,-1.3148,-1.2431,-1.1951,-1.2128,-1.1782,-1.1189,-1.0305,-0.9961,-0.9536,-0.8857,0.0,0.0,0.0,0.0,0.0,0.0,0.0,0.0,0.0,0.0,0.0,0.0,0.0,0.0,0.0,0.0,0.0,0.0,0.0,0.0,0.0,0.0,0.0,0.0,0.0,0.0,0.0,0.0,0.0,0.0,0.0,0.0,0.0,0.0,0.0,0.0,0.2362,0.2688,0.0,0.0,0.3378,0.4776,0.4894,0.5227,0.5573,0.5573,0.4167,0.2683,0.2357,0.0,-0.0622,-0.054,-0.0574,-0.0492,-0.0076,0.0,0.0,0.0,0.0,0.0,0.0,0.0,0.0,0.0,0.0,0.0,0.0,0.0,0.0,0.0,0.0,0.0,0.0,0.0,0.0,0.0,0.0,0.0,0.0,0.0,0.0,0.0,0.0,0.0,0.0,0.0,0.0,0.0,0.0,-0.0369,0.0,-0.0275,-0.0392,-0.0902,-0.0235,0.0,0.0,0.0,0.0,0.0,0.0,0.0,0.0,0.0,0.0,-1.2144,-1.2214,-1.1371,-1.0831,-1.109,-1.0722,-1.0275,-0.9858,-0.9788,-0.9461,-0.8617,-0.8692,0.0,0.0,0.0,0.0,0.0,0.0,0.0,0.0,0.0,0.0,0.0,0.0,0.0,0.0,0.0,0.0,0.0,0.0,0.0,0.0,0.0,0.0,0.0,0.0,0.0,0.0,0.0,0.0,0.0,0.0,0.0,0.0,0.0,0.0,0.0,0.0,0.0,0.0,0.0,0.3821,0.512,0.5264,0.5358,0.5385,0.5337,0.4003,0.2681,0.0,0.0,0.0,0.0,0.0,0.0,0.0,0.0,0.0,0.0,0.0,0.0,0.0,0.0,0.0,0.0,0.0,0.0,0.0,0.0,0.0,0.0,0.0,0.0,0.0,0.0,0.0,0.0,0.0,0.0,0.0,0.0,0.0,0.0,0.0,0.0,0.0,0.0,-0.0176,-0.0462,-0.0126,0.0,0.0,-0.0549,-0.0628,-0.1489,-0.0432,0.0,0.0,0.0,0.0,0.0,0.0,0.0,0.0,0.0,0.0,0.0,-1.1023,-1.0813,-1.0568,-0.9917,-0.9814,-0.9814,-0.9788,-0.9788,-0.9302,-0.803,-0.8467,0.0,0.0,0.0,0.0,0.0,0.0,0.0,0.0,0.0,0.0,0.0,0.0,0.0,0.0,0.0,0.0,0.0,0.0,0.0,0.0,0.0,0.0,0.0,0.0,0.0,0.0,0.0,0.0,0.0,0.0,0.0,0.0,0.0,0.0,0.0,0.0,0.0,0.0,0.0,0.3732,0.51,0.51,0.5243,0.5358,0.514,0.3879,0.2652,0.0,0.0,0.0,0.0,0.0,0.0,0.0,0.0,0.0,0.0,0.0,0.0,0.0,0.0,0.0,0.0,0.0,0.0,0.0,0.0,0.0,0.0,0.0,0.0,0.0,0.0,0.0,0.0,0.0,0.0,0.0,0.0,0.0,0.0,0.0,0.0,0.0,0.0,-0.057,-0.1509,-0.0462,0.0,0.0,-0.0862,-0.0628,-0.1489,-0.0432,0.0,0.0,0.0,0.0,0.0,0.0,0.0,0.0,0.0,0.0,0.0,0.0,-1.0679,-1.0138,-1.0458,-1.0026,-0.9743,-0.9788,-0.9989,-0.9533,-0.802,-0.8072,0.0,0.0,0.0,0.0,0.0,0.0,0.0,0.0,0.0,0.0,-1.0788,-1.1499,0.0,0.0,0.0,0.0,0.0,0.0,0.0,0.0,0.0,0.0,0.0,0.0,0.0,0.0,0.0,0.0,0.0,0.0,0.0,0.0,0.0,0.0,0.0,0.0,0.0,0.0,0.0694,0.2289,0.4241,0.5068,0.5247,0.5061,0.4498,0.3508,0.2403,0.1211,0.0,-0.0152,-0.0646,-0.0358,0.0,0.0,0.0,0.0,0.0,0.0,0.0,0.0,0.0,0.0,0.0,0.0,0.0,0.0,0.0,0.0,0.0,0.0,0.0,0.0,0.0,0.0,0.0,0.0,0.0,0.0,0.0,0.0,0.0,0.0,0.0,0.0,0.0,-0.0176,0.0,0.0,0.0,0.0,-0.0592,-0.0634,-0.1484,-0.0434,0.0,0.0,0.0,0.0,0.0,0.0,0.0,0.0,0.0,0.0,0.0,0.0,-1.1057,-1.057,-1.0762,-1.0408,-1.012,-1.0159,-1.0238,-0.9797,-0.8585,-0.8316,0.0,0.0,0.0,0.0,0.0,0.0,0.0,0.0,-1.1151,-1.1627,-1.137,-1.1982,-1.1921,-1.1174,-1.0689,0.0,0.0,0.0,0.0,0.0,0.0,0.0,0.0,0.0,0.0,-0.95,0.0,0.0,0.0,0.0,0.0,0.0,0.0,0.0,0.0,0.0,0.0,0.0,0.0,0.059,0.2188,0.0,0.4257,0.408,0.3554,0.2599,0.0,0.0,0.0,-0.1083,-0.1532,-0.1291,-0.0923,-0.0541,-0.0479,-0.038,-0.004,0.0,0.0,0.0,0.0,0.0,0.0,0.0,0.0,0.0,0.0,0.0,0.0,0.0,0.0,0.0,0.0,0.0,0.0,0.0,0.0,0.0,0.0,0.0,0.0,0.0,0.0,0.0,0.0,-0.0217,-0.0581,0.0,0.0,0.0,-0.0592,-0.0633,-0.1481,-0.0434,0.0,0.0,0.0,0.0,0.0,0.0,0.0,0.0,0.0,0.0,0.0,0.0,-1.1888,-1.1641,-1.1023,-1.0948,-1.0939,-1.0889,-1.0651,-1.0228,-0.9535,0.0,0.0,0.0,0.0,0.0,0.0,0.0,0.0,0.0,-1.115,-1.1839,-1.2245,-1.2272,-1.2161,-1.1864,-1.1191,-1.0329,0.0,0.0,0.0,0.0,0.0,0.0,0.0,-1.014,-1.0314,0.0,0.0,0.0,0.0,0.0,0.0,0.0,0.0,0.0,0.0,0.0,0.0,0.0,0.0,0.0,0.0,0.0,0.232,0.246,0.2272,0.1148,0.0029,0.0,0.0,0.0,-0.2588,-0.2643,-0.2452,-0.1583,-0.142,-0.1158,-0.0362,-0.0166,0.0,0.0,0.0,0.0,0.0,0.0,0.0,0.0,0.0,0.0,0.0,0.0,0.0,0.0,0.0,0.0,0.0,0.0,0.0,0.0,0.0,0.0,0.0,0.0,0.0,0.0,0.0,-0.0553,0.0,0.0,0.0,0.0,-0.0787,-0.059,-0.1375,-0.0393,0.0,0.0,0.0,0.0,0.0,0.0,0.0,0.0,0.0,0.0,0.0,0.0,0.0,0.0,0.0,-1.2412,-1.2197,-1.1616,-1.2009,-1.1768,0.0,0.0,0.0,0.0,0.0,0.0,0.0,0.0,0.0,0.0,-1.0564,-1.1122,-1.1534,-1.2053,-1.2436,-1.2642,-1.1898,-1.1403,-1.1082,-1.0357,0.0,0.0,0.0,0.0,0.0,-1.0399,-1.0526,0.0,0.0,0.0,0.0,-0.9366,-0.891,0.0,0.0,0.0,0.0,0.0,0.0,0.0,0.0,-0.285,-0.2199,-0.1622,0.0,0.0463,-0.0218,-0.0688,-0.1303,0.0,0.0,0.0,0.0,0.0,-0.2793,-0.2554,-0.262,-0.2665,-0.2611,-0.1818,-0.1244,0.0,0.0,0.0,0.0,0.0,0.0,0.0,0.0,0.0,0.0,0.0,0.0,0.0,0.0,0.0,0.0,0.0,0.0,0.0,0.0,0.0,0.0,0.0,0.0,0.0,0.0,-0.0131,0.0,0.0,0.0,-0.0702,-0.0203,-0.0161,-0.0362,-0.0079,0.0,0.0,0.0,0.0,0.0,0.0,0.0,0.0,0.0,0.0,0.0,0.0,0.0,0.0,0.0,0.0,-1.2817,-1.2598,-1.2768,0.0,0.0,0.0,0.0,0.0,0.0,0.0,0.0,0.0,0.0,-1.1039,-1.1526,-1.1781,-1.1794,-1.2005,-1.2132,-1.2146,-1.1285,-1.0962,-1.104,-1.0456,0.0,0.0,0.0,0.0,0.0,-1.0526,0.0,0.0,0.0,0.0,0.0,-0.9032,-0.8601,0.0,-0.7471,-0.6773,-0.622,0.0,0.0,0.0,0.0,-0.4089,-0.3744,-0.3913,-0.2619,-0.1341,-0.1817,-0.2193,-0.2686,-0.3605,0.0,0.0,0.0,0.0,0.0,-0.3694,-0.3732,0.0,-0.2693,-0.2072,0.0,0.0,0.0,0.0,0.0,0.0,0.0,0.0,0.0,0.0,0.0,0.0,0.0,0.0,0.0,0.0,0.0,0.0,0.0,0.0,0.0,0.0,0.0,0.0,0.0,0.0,0.0,0.0,0.0,0.0,0.0,0.0,0.0,0.0,0.0,0.0,0.0,0.0,0.0,0.0,0.0,0.0,0.0,0.0,0.0,0.0,0.0,0.0,0.0,0.0,0.0,0.0,0.0,0.0,0.0,0.0,0.0,0.0,0.0,0.0,0.0,0.0,0.0,0.0,-1.2672,-1.2672,-1.2762,-1.2685,-1.2393,-1.1821,-1.1458,-1.1278,-1.0269,-0.9989,-1.0357,-1.0191,0.0,0.0,0.0,0.0,0.0,-1.0593,0.0,0.0,0.0,0.0,0.0,0.0,0.0,0.0,-0.673,-0.6367,-0.6191,-0.5586,0.0,0.0,0.0,0.0,0.0,-0.5296,-0.4273,-0.3161,-0.329,-0.3673,-0.408,-0.4198,0.0,0.0,0.0,0.0,0.0,0.0,0.0,0.0,0.0,0.0,0.0,0.0,0.0,0.0,0.0,0.0,0.0,0.0,0.0,0.0,0.0,0.0,0.0,0.0,0.0,0.0,0.0,0.0,0.0,0.0,0.0,0.0,0.0,0.0,0.0,0.0,0.0,0.0,0.0,0.0,0.0,0.0,0.0,0.0,0.0,0.0,0.0,0.0,0.0,0.0,0.0,0.0,0.0,0.0,0.0,0.0,0.0,0.0,0.0,0.0,0.0,0.0,0.0,0.0,0.0,0.0,0.0,0.0,0.0,0.0,0.0,0.0,0.0,-1.3061,-1.2926,-1.2926,-1.2296,-1.2133,-1.2393,-1.0754,-1.0416,-1.1278,-1.0223,-1.0037,-1.0627,-1.0251,-1.0281,-1.0593,0.0,0.0,-1.0593,-1.0593,0.0,0.0,0.0,0.0,0.0,0.0,0.0,0.0,-0.5714,-0.53,-0.4838,-0.4968,0.0,0.0,0.0,0.0,0.0,-0.5189,-0.5137,-0.5305,-0.593,-0.5603,-0.5353,0.0,0.0,0.0,0.0,0.0,0.0,0.0,0.0,0.0,0.0,0.0,0.0,0.0,0.0,0.0,0.0,0.0,0.0,0.0,0.0,0.0,0.0,0.0,0.0,0.0,0.0,0.0,0.0,0.0,0.0,0.0,0.0,0.0,0.0,0.0,0.0,0.0,0.0,0.0,0.0,0.0,0.0,0.0,0.0,0.0,0.0,0.0,0.0,0.0,0.0,0.0,0.0,0.0,0.0,0.0,0.0,0.0,0.0,0.0,0.0,0.0,0.0,0.0,0.0,0.0,0.0,0.0,0.0,0.0,0.0,0.0,0.0,0.0,-1.3056,-1.2195,-1.2103,-1.2978,-1.2488,-1.1908,-1.1264,-1.0472,-0.9937,-0.9631,-0.9484,-0.9701,-1.0171,-1.0129,-1.0281,-1.0593,0.0,-1.0333,-0.9945,0.0,0.0,0.0,0.0,0.0,0.0,0.0,0.0,0.0,0.0,-0.4804,-0.4515,-0.4655,0.0,0.0,0.0,0.0,0.0,-0.525,-0.542,-0.581,-0.6596,-0.6146,0.0,0.0,0.0,0.0,0.0,0.0,0.0,0.0,0.0,0.0,0.0,0.0,0.0,0.0,0.0,0.0,0.0,0.0,0.0,0.0,0.0,0.0,0.0,0.0,0.0,0.0,0.0,0.0,0.0,0.0,0.0,0.0,0.0,0.0,0.0,0.0,0.0,0.0,0.0,0.0,0.0,0.0,0.0,0.0,0.0,0.0,0.0,0.0,0.0,0.0,0.0,0.0,0.0,0.0,0.0,0.0,0.0,0.0,0.0,0.0,0.0,0.0,0.0,0.0,0.0,0.0,0.0,0.0,0.0,0.0,0.0,0.0,0.0,-1.1624,-1.1839,-1.0562,-1.0613,-1.2308,-1.1958,-1.1152,-0.9933,-0.9778,-0.922,-0.8343,-0.9295,-0.9911,-1.0221,-1.0331,-1.0581,-1.0863,-1.0681,-1.011,-0.937,0.0,0.0,0.0,0.0,0.0,0.0,0.0,0.0,0.0,0.0,0.0,0.0,0.0,0.0,0.0,-0.4884,-0.5015,-0.5085,-0.5003,-0.5309,-0.5696,-0.5879,0.0,0.0,0.0,0.0,0.0,0.0,0.0,0.0,0.0,0.0,0.0,0.0,0.0,0.0,0.0,0.0,0.0,0.0,0.0,0.0,0.0,0.0,0.0,0.0,0.0,0.0,0.0,0.0,0.0,0.0,0.0,0.0,0.0,0.0,0.0,0.0,0.0,0.0,0.0,0.0,0.0,0.0,0.0,0.0,0.0,0.0,0.0,0.0,0.0,0.0,0.0,0.0,0.0,0.0,0.0,0.0,0.0,0.0,0.0,0.0,0.0,0.0,0.0,0.0,0.0,0.0,0.0,0.0,0.0,0.0,0.0,0.0,0.0,0.0,-1.0092,-0.9124,-0.8103,-0.842,-1.035,-0.9652,-0.9112,-0.8825,-0.7841,-0.7793,-0.8692,-1.05,-1.1475,-1.1715,-1.1356,-1.1398,-1.1648,-1.0926,-1.011,-0.9306,-0.937,0.0,0.0,0.0,0.0,0.0,0.0,0.0,0.0,0.0,0.0,0.0,0.0,0.0,-0.4748,-0.5002,-0.509,-0.4911,-0.3982,-0.4719,-0.5354,-0.3471,0.0,0.0,0.0,0.0,0.0,0.0,0.0,0.0,0.0,0.0,0.0,0.0,0.0,0.0,0.0,0.0,0.0,0.0,0.0,0.0,0.0,0.0,0.0,0.0,0.0,0.0,0.0,0.0,0.0,0.0,0.0,0.0,0.0,0.0,0.0,0.0,0.0,0.0,0.0,0.0,0.0,0.0,0.0,0.0,0.0,0.0,0.0,0.0,0.0,0.0,0.0,0.0,0.0,0.0,0.0,0.0,0.0,0.0,0.0,0.0,0.0,0.0,0.0,0.0,0.0,0.0,0.0,0.0,0.0,0.0,0.0,0.0,0.0,0.0,-0.8725,-0.778,-0.6326,-0.5522,-0.5427,-0.6533,-0.7106,-0.7013,-0.8049,-0.9322,-1.0849,-1.2016,-1.2601,-1.2722,-1.2716,-1.2367,-1.1772,-1.1469,-1.0302,-0.8661,-0.9106,-0.81,0.0,0.0,0.0,0.0,0.0,0.0,0.0,0.0,-0.4684,-0.4672,-0.4853,-0.4748,-0.4638,-0.4911,-0.4968,-0.4786,-0.3966,-0.4266,-0.4488,-0.3154,0.0,0.0,0.0,0.0,0.0,0.0,0.0,0.0,0.0,0.0,0.0,0.0,0.0,0.0,0.0,0.0,0.0,0.0,0.0,0.0,0.0,0.0,0.0,0.0,0.0,0.0,0.0,0.0,0.0,0.0,0.0,0.0,0.0,0.0,0.0,0.0,0.0,0.0,0.0,0.0,0.0,0.0,0.0,0.0,0.0,0.0,0.0,0.0,0.0,0.0,0.0,0.0,0.0,0.0,0.0,0.0,0.0,0.0,0.0,0.0,0.0,0.0,0.0,0.0,0.0,0.0,0.0,0.0,0.0,0.0,0.0,0.0,0.0,-0.9281,-0.7969,-0.7187,-0.5434,-0.408,-0.314,-0.461,-0.5427,-0.5504,-0.7966,-1.0166,-1.2075,-1.2956,-1.3492,-1.3688,-1.3633,-1.3089,-1.2143,-1.1655,-1.0361,-0.8684,-0.8848,-0.7773,0.0,0.0,0.0,0.0,0.0,0.0,0.0,0.0,-0.485,-0.4779,-0.4887,-0.4741,-0.4614,-0.4843,-0.4701,-0.4329,-0.3595,-0.3585,-0.3485,0.0,0.0,0.0,0.0,0.0,0.0,0.0,0.0,0.0,0.0,0.0,0.0,0.0,0.0,0.0,0.0,0.0,0.0,0.0,0.0,0.0,0.0,0.0,0.0,0.0,0.0,0.0,0.0,0.0,0.0,0.0,0.0,0.0,0.0,0.0,0.0,0.0,0.0,0.0,0.0,0.0,0.0,0.0,0.0,0.0,0.0,0.0,0.0,0.0,0.0,0.0,0.0,0.0,0.0,0.0,0.0,0.0,0.0,0.0,0.0,0.0,0.0,0.0,0.0,0.0,0.0,0.0,0.0,0.0,0.0,0.0,0.0,0.0,0.0,-0.9153,-0.7938,-0.7355,-0.5531,-0.4514,-0.4512,-0.4214,-0.4159,-0.4448,-0.7296,-0.9819,-1.1939,-1.3212,-1.4157,-1.474,-1.3952,-1.337,-1.2887,-1.1296,-1.027,-0.9599,-0.8445,-0.7636,-0.6958,0.0,0.0,0.0,0.0,0.0,0.0,0.0,-0.4891,-0.4891,-0.4891,0.0,-0.4721,-0.4874,-0.4272,-0.3435,-0.2711,-0.27,0.0,0.0,0.0,0.0,0.0,0.0,0.0,0.0,0.0,0.0,0.0,0.0,0.0,0.0,0.0,0.0,0.0,0.0,0.0,0.0,0.0,0.0,0.0,0.0,0.0,0.0,0.0,0.0,0.0,0.0,0.0,0.0,0.0,0.0,0.0,0.0,0.0,0.0,0.0,0.0,0.0,0.0,0.0,0.0,0.0,0.0,0.0,0.0,0.0,0.0,0.0,0.0,0.0,0.0,0.0,0.0,0.0,0.0,0.0,0.0,0.0,0.0,0.0,0.0,0.0,0.0,0.0,0.0,0.0,0.0,0.0,0.0,0.0,0.0,0.0,-0.967,-0.8816,-0.8099,-0.7062,-0.6223,-0.572,-0.6628,-0.7119,-0.7155,-0.8697,-1.0572,-1.2687,-1.3354,-1.3778,-1.3939,-1.372,-1.3049,-1.2112,-1.1655,-1.072,-0.9487,-0.8407,-0.7565,-0.6852,0.0,0.0,0.0,0.0,0.0,0.0,0.0,0.0,0.0,-0.5036,0.0,-0.486,-0.4874,-0.4365,-0.3568,-0.2728,-0.2155,0.0,0.0,0.0,0.0,0.0,0.0,0.0,0.0,0.0,0.0,0.0,0.0,0.0,0.0,0.0,0.0,0.0,0.0,0.0,0.0,0.0,0.0,0.0,0.0,0.0,0.0,0.0,0.0,0.0,0.0,0.0,0.0,0.0,0.0,0.0,0.0,0.0,0.0,0.0,0.0,0.0,0.0,0.0,0.0,0.0,0.0,0.0,0.0,0.0,0.0,0.0,0.0,0.0,0.0,0.0,0.0,0.0,0.0,0.0,0.0,0.0,0.0,0.0,0.0,0.0,0.0,-1.541,-1.5079,0.0,0.0,0.0,-1.1865,-1.1045,0.0,-1.0593,-0.987,-0.9298,-0.9026,-0.8238,-0.7673,-0.7364,-0.8103,-0.8647,-0.9011,-0.9614,-1.086,-1.2679,-1.2732,-1.2923,-1.3177,0.0,-1.2343,-1.157,-1.1241,-1.0679,-0.9839,-0.8533,-0.7748,-0.7183,0.0,0.0,0.0,0.0,0.0,0.0,0.0,0.0,0.0,-0.407,0.0,0.0,-0.3955,-0.3355,-0.2615,-0.2163,0.0,0.0,0.0,0.0,0.0,0.0,0.0,0.0,0.0,0.0,0.0,0.0,0.0,0.0,0.0,0.0,0.0,0.0,0.0,0.0,0.0,0.0,0.0,0.0,0.0,0.0,0.0,0.0,0.0,0.0,0.1433,0.121,0.0718,0.0718,0.0494,0.0,0.0,0.0,0.0,0.0,0.0,0.0,0.0,0.0,0.0,0.0,0.0,0.0,0.0,0.0,0.0,0.0,0.0,0.0,0.0,0.0,0.0,0.0,0.0,-1.4163,-1.4163,0.0,0.0,0.0,0.0,0.0,-1.5303,-1.5391,-1.5079,0.0,0.0,0.0,-1.1981,-1.117,-1.0713,-1.0713,-0.9913,-0.9595,-1.0031,-0.9333,-0.9031,-0.9239,-0.9053,-0.9348,-1.0172,-1.0079,-1.0739,-1.2081,0.0,-1.1626,-1.223,0.0,-1.1145,-1.0937,-1.0248,-1.0168,-1.0326,-0.8559,-0.7894,-0.7795,-0.6027,0.0,0.0,0.0,0.0,0.0,0.0,0.0,0.0,-0.2537,-0.2507,-0.2512,-0.2507,-0.184,-0.1138,0.0,0.0,0.0,0.0,0.0,0.0,0.0,0.0,0.0,0.0,0.0,0.0,0.0,0.0,0.0,0.0,0.0,0.0,0.0,0.0,0.0,0.0,0.0,0.0,0.0,0.0,0.0,0.0,0.0,0.0,0.0,0.3614,0.3081,0.2013,0.1965,0.1429,0.0313,0.0313,0.0313,0.0268,0.0313,0.0266,0.0131,0.0043,0.0,0.0,0.0,0.0,0.0,0.0,0.0,0.0,0.0,0.0,0.0,0.0,0.0,0.0,0.0,0.0,-1.4648,-1.4648,0.0,0.0,0.0,0.0,-1.4814,-1.4912,-1.5205,-1.5079,-1.4302,-1.4064,0.0,-1.2818,-1.202,-1.1531,-1.1531,-1.0793,-1.0555,-1.1047,-1.1358,-1.1175,-1.0441,-1.1156,-1.1234,-1.0661,-0.9956,-1.0181,0.0,0.0,0.0,-0.9765,0.0,-0.8932,-0.8491,-0.8801,-0.9181,-0.9398,-0.7397,-0.7149,-0.778,-0.5892,-0.5123,0.0,0.0,0.0,0.0,0.0,0.0,0.0,-0.2529,-0.2583,-0.265,-0.2547,-0.1894,-0.1276,0.0,-0.0676,0.0,0.0,0.0,0.0,0.0,0.0,0.0,0.0,0.0,0.0,0.0,0.0,0.0,0.0,0.0,0.0,0.0,0.0,0.0,0.0,0.0,0.0,0.0,0.0,0.0,0.0,0.0,0.0,0.3614,0.3614,0.3481,0.3215,0.3078,0.2879,0.2661,0.2617,0.2552,0.0,0.2597,0.2176,0.1214,0.0384,0.0,0.0,0.0,0.0,0.0,0.0,0.0,0.0,0.0,0.0,0.0,0.0,0.0,0.0135,0.0,0.0,0.0,0.0,0.0,0.0,0.0,0.0,-1.4813,-1.4813,-1.4821,-1.474,-1.4513,-1.3468,0.0,0.0,-1.1571,-1.0998,-1.0998,-1.0756,-1.0854,-1.1369,-1.1991,-1.204,-1.1545,-1.2033,-1.2033,-1.1502,0.0,0.0,0.0,0.0,0.0,-0.8906,0.0,-0.8869,-0.8876,-0.905,-0.9329,-0.9575,-0.8229,-0.797,-0.8207,-0.6514,-0.5665,-0.5243,-0.4314,0.0,0.0,0.0,0.0,0.0,0.0,0.0,-0.1405,-0.1318,-0.0995,-0.0688,0.0,0.0,0.0,0.0,0.0,0.0,0.0,0.0,0.0,0.0,0.0,0.0,0.0,0.0,0.0,0.0,0.0,0.0,0.0,0.0,0.0,0.0,0.0,0.0,0.0,0.0,0.0,0.0,0.0,0.5262,0.5262,0.5262,0.4972,0.4351,0.4218,0.3873,0.3282,0.324,0.3178,0.3099,0.322,0.2924,0.2265,0.126,0.1078,0.1538,0.1003,0.0759,0.0721,0.0208,0.0334,0.0789,0.0217,0.0351,0.0871,0.0845,0.0852,0.1031,0.0,0.0,0.0,0.0,0.0,0.0,0.0,0.0,0.0,-1.4687,-1.4514,-1.4451,-1.46,-1.2882,-1.1779,0.0,0.0,0.0,-1.0319,-1.0528,-1.0803,-1.1123,-1.168,-1.1907,-1.1774,-1.1774,-1.1786,0.0,0.0,0.0,0.0,0.0,0.0,-0.8839,0.0,-0.9317,-0.9693,-0.9564,-0.9695,-0.9894,-0.9243,-0.8957,-0.8728,-0.7393,-0.642,0.0,0.0,-0.3754,-0.2973,-0.1904,0.0,0.0,0.0,0.0,0.0,0.0,0.0105,0.0243,0.0,0.0,0.0,0.0,0.0,0.0,0.0,0.0,0.0,0.0,0.0,0.0,0.0,0.0,0.0,0.0,0.0,0.0,0.0,0.0,0.0,0.0,0.0,0.0,0.0,0.0,0.0,0.0,0.0,0.7085,0.7061,0.7058,0.6549,0.5419,0.5352,0.4831,0.3703,0.3703,0.3654,0.3641,0.3449,0.3503,0.3643,0.2601,0.2535,0.3222,0.2268,0.1841,0.1807,0.0907,0.1163,0.1969,0.1007,0.1241,0.2095,0.2133,0.2102,0.2281,0.0,0.0,0.0,0.0,0.0,0.0,0.0,0.0,0.0,0.0,-1.4799,-1.4897,-1.4024,-1.3656,-1.3096,-1.2148,-1.1492,-1.113,-1.113,0.0,0.0,-1.0146,-1.0444,-1.0346,-0.9707,-0.9712,-0.9649,0.0,0.0,0.0,0.0,0.0,0.0,-0.8949,0.0,0.0,-0.8035,-0.8539,-0.8987,-0.9313,-0.8179,-0.8348,-0.9096,0.0,0.0,0.0,0.0,0.0,0.0,-0.3061,-0.199,0.0,0.0,0.0,0.0,0.0,0.0551,0.1158,0.0,0.0,0.0,0.0,0.0,0.0,0.0,0.0,0.0,0.0,0.0,0.0,0.0,0.0,0.0,0.0,0.0,0.0,0.0,0.0,0.0,0.0,0.0,0.0,0.0,0.0,0.0,0.0,0.7095,0.7045,0.692,0.6913,0.68,0.6479,0.6392,0.6236,0.6052,0.6052,0.5996,0.5843,0.4914,0.5031,0.6027,0.4829,0.3859,0.3113,0.2976,0.289,0.2901,0.2879,0.2969,0.3185,0.3115,0.3209,0.3379,0.3344,0.3349,0.3527,0.0,0.0,0.0,0.0,0.0,0.0,0.0,0.0,0.0,0.0,0.0,-1.4626,-1.4393,-1.3044,-1.2058,-1.1783,-1.0763,-1.0053,-0.992,-0.9983,-0.9742,-0.9071,-0.9442,-0.9515,-0.9178,-0.9183,-0.9194,0.0,0.0,0.0,0.0,-0.8986,-0.8977,0.0,0.0,0.0,0.0,0.0,-0.9672,-0.999,-0.9457,-0.9445,0.0,0.0,0.0,0.0,0.0,0.0,0.0,0.0,-0.2847,-0.1995,-0.1483,0.0,0.0,0.0,0.0,0.0,0.0,0.0,0.0,0.0,0.0,0.0,0.0,0.0,0.0,0.0,0.0,0.0,0.0,0.0,0.0,0.0,0.0,0.0,0.0,0.0,0.0,0.0,0.0,0.0,0.0,0.0,0.0,0.0,0.69,0.6865,0.6803,0.68,0.6729,0.6576,0.6549,0.6474,0.6395,0.6395,0.6361,0.63,0.581,0.5877,0.6352,0.5838,0.5365,0.4973,0.4279,0.4053,0.4075,0.3553,0.3796,0.4449,0.3837,0.4016,0.4596,0.4596,0.4596,0.4776,0.0,0.0,0.0,0.0,0.0,0.0,0.0,0.0,0.0,0.0,0.0,-1.4398,-1.4524,0.0,0.0,0.0,-1.006,-0.9154,-0.8769,-0.9015,-0.8823,-0.7999,-0.8353,-0.8479,-0.8256,-0.8313,0.0,0.0,0.0,0.0,-0.9059,-0.855,-0.8547,0.0,-0.9631,0.0,0.0,0.0,0.0,0.0,0.0,0.0,0.0,0.0,0.0,0.0,0.0,0.0,0.0,0.0,0.0,0.0,0.0,0.0,0.0,0.0,0.0,0.0,0.0,0.0,0.0,0.0,0.0,0.0,0.0,0.0,0.0,0.0,0.0,0.0,0.0,0.0,0.0,0.0,0.0,0.0,0.0,0.0,0.0,0.0,0.0,0.0,0.0,0.0,0.0,0.0,0.6787,0.6681,0.6644,0.6644,0.6573,0.6463,0.646,0.6409,0.6303,0.63,0.63,0.63,0.63,0.63,0.63,0.63,0.6358,0.641,0.5511,0.5187,0.527,0.452,0.4835,0.5677,0.4824,0.5041,0.5849,0.5849,0.5849,0.5935,0.0,0.0,0.0,0.0,0.0,0.0,0.0,0.0,0.0,0.0,0.0,-1.4524,-1.3921,-1.3035,-1.1988,-1.0659,-1.0024,-0.9376,-0.8657,-0.8739,-0.8211,-0.6843,-0.7038,0.0,-0.5989,0.0,0.0,0.0,0.0,0.0,-0.6876,-0.7657,-0.8037,-0.8091,-0.8962,-0.9631,-1.016,0.0,0.0,0.0,-0.9358,-0.9505,0.0,0.0,0.0,0.0,0.0,0.0,0.0,0.0,0.0,0.0,0.0,0.0,0.0,0.0,0.0,0.0,0.0,0.0,0.0,0.0,0.0,0.0,0.0,0.0,0.0,0.0,0.0,0.0,0.0,0.0,0.0,0.0,0.0,0.0,0.0,0.0,0.0,0.0,0.0,0.0,0.0,0.0,0.0,0.0,0.6787,0.6637,0.6532,0.6525,0.646,0.6317,0.631,0.6306,0.63,0.63,0.63,0.63,0.63,0.63,0.63,0.63,0.6303,0.631,0.6264,0.63,0.6404,0.6511,0.6664,0.6814,0.6906,0.6959,0.7007,0.7007,0.7007,0.7007,0.0,0.0,0.0,0.0,0.0,0.0,0.0,0.0,0.0,0.0,0.0,0.0,0.0,-1.3697,-1.2541,-1.1616,-1.0059,-0.8931,-0.8487,-0.7998,-0.7298,-0.6413,-0.6306,-0.6122,-0.5803,0.0,0.0,0.0,0.0,-0.6257,-0.6831,-0.649,-0.6924,-0.8027,-0.8318,-0.8564,-0.8773,-0.8896,0.0,0.0,-0.9057,-0.8981,0.0,0.0,0.0,0.0,0.0,0.0,0.0,0.0,0.0,0.0,0.0,0.0,0.0,0.0,0.0,0.0,0.0,0.0,0.0,0.0,0.0,0.0,0.0,0.0,0.0,0.0,0.0,0.0,0.0,0.0,0.0,0.0,0.0,0.0,0.0,0.0,0.0,0.0,0.0,0.0,0.0,0.0,0.0,0.0,0.0,0.6569,0.6515,0.6511,0.6446,0.6306,0.63,0.63,0.63,0.63,0.63,0.63,0.63,0.63,0.63,0.63,0.63,0.63,0.63,0.6381,0.6525,0.6637,0.679,0.69,0.7041,0.7095,0.7095,0.7095,0.7095,0.7095,0.0,0.0,0.0,0.0,0.0,0.0,0.0,0.0,0.0,0.0,0.0,0.0,0.0,0.0,-1.2632,-1.1519,-1.0008,-0.8918,-0.8487,-0.7963,-0.7258,-0.6312,-0.6241,-0.6061,-0.5732,0.0,0.0,0.0,0.0,0.0,0.0,-0.5703,-0.6013,-0.7116,-0.7116,-0.7404,0.0,0.0,0.0,-0.8641,0.0,-0.8088,-0.8157,0.0,0.0,0.0,0.0,0.0,0.0,0.0,0.0,0.0,0.0,0.0,0.0,0.0,0.0,0.0,0.0,0.0,0.0,0.0,0.0,0.0,0.0,0.0,0.0,0.0,0.0,0.0,0.0,0.0,0.0,0.0,0.0,0.0,0.0,0.0,0.0,0.0,0.0,0.0,0.0,0.0,0.0,0.0,0.0,0.0,0.6511,0.6467,0.6399,0.6303,0.63,0.63,0.63,0.63,0.63,0.63,0.63,0.63,0.63,0.63,0.63,0.63,0.63,0.6381,0.6518,0.658,0.6715,0.6861,0.6913,0.698,0.7024,0.7024,0.7055,0.7095,0.0,0.0,0.0,0.0,0.0,0.0,0.0,0.0,0.0,0.0,0.0,0.0,0.0,0.0,0.0,-1.0285,-0.9883,-0.9389,-0.8681,-0.8752,-0.8113,-0.654,-0.6886,-0.6651,-0.5669,0.0,0.0,0.0,0.0,0.0,0.0,0.0,-0.5395,-0.5395,-0.5395,-0.6144,-0.7466,0.0,-0.7745,-0.743,0.0,-0.6827,-0.7303,0.0,0.0,0.0,-0.529,-0.5096,0.0,-0.51,0.0,0.0,0.0,0.0,0.0,0.0,0.0,0.0,0.0,0.0,0.0,0.0,0.0,0.0,0.6852,0.0,0.7095,0.0,0.0,0.0,0.0,0.0,0.0,0.0,0.0,0.0,0.0,0.0,0.0,0.0,0.0,0.0,0.0,0.0,0.0,0.0,0.6563,0.6515,0.6518,0.6378,0.63,0.63,0.63,0.63,0.63,0.63,0.63,0.63,0.63,0.63,0.63,0.63,0.63,0.63,0.63,0.6378,0.6508,0.6511,0.6559,0.6695,0.6698,0.6793,0.6879,0.6883,0.697,0.7092,0.0,0.0,0.0,0.0,0.0,0.0,0.0,0.0,0.0,0.0,0.0,0.0,0.0,0.0,0.0,-1.0936,-1.0134,-0.9685,-0.9674,-0.9132,-0.8611,-0.8144,-0.7459,-0.6986,-0.669,0.0,0.0,0.0,0.0,0.0,0.0,0.0,0.0,0.0,-0.5395,-0.5632,-0.5981,-0.6092,0.0,0.0,-0.6572,-0.6614,0.0,0.0,0.0,0.0,0.0,-0.5012,-0.51,0.0,-0.4584,-0.3671,0.0,0.0,0.0,0.0,0.0,0.0,0.4628,0.0,0.0,0.0,0.0,0.0,0.6852,0.6994,0.7038,0.0,0.0,0.0,0.0,0.0,0.0,0.0,0.0,0.0,0.0,0.0,0.0,0.0,0.0,0.0,0.0,0.0,0.0,0.0,0.662,0.6562,0.663,0.6436,0.63,0.63,0.63,0.63,0.63,0.63,0.63,0.63,0.63,0.63,0.63,0.63,0.63,0.63,0.63,0.6323,0.6368,0.647,0.6538,0.6546,0.6658,0.6725,0.6776,0.6846,0.691,0.696,0.0,0.0,0.0,0.0,0.0,0.0,0.0,0.0,0.0,0.0,0.0,0.0,0.0,0.0,0.0,-1.1009,-1.0383,-1.0151,-1.0294,-0.9817,-0.9376,-0.9027,-0.8425,-0.7801,-0.7114,0.0,0.0,0.0,0.0,0.0,0.0,0.0,0.0,0.0,-0.5423,-0.5429,0.0,0.0,0.0,0.0,-0.6158,0.0,0.0,-0.5958,-0.5552,0.0,0.0,0.0,-0.5216,-0.512,-0.4569,0.0,0.0,0.0,0.0,0.0,0.0,0.0,0.0,0.0,0.0,0.0,0.0,0.0,0.6607,0.7193,0.7451,0.0,0.0,0.0,0.0,0.0,0.0,0.0,0.0,0.0,0.0,0.0,0.0,0.0,0.0,0.0,0.0,0.6715,0.6712,0.6824,0.6668,0.6552,0.6519,0.6392,0.63,0.63,0.63,0.63,0.63,0.63,0.63,0.63,0.63,0.63,0.63,0.63,0.63,0.63,0.63,0.63,0.6306,0.6388,0.6422,0.6433,0.6521,0.6552,0.6624,0.6776,0.6832,0.6906,0.0,0.0,-1.7576,-1.7202,-1.7243,0.0,0.0,0.0,0.0,0.0,0.0,0.0,0.0,0.0,0.0,0.0,-1.0676,-1.0606,-1.064,-1.0613,-1.0238,-0.9466,-0.947,-0.879,-0.7257,0.0,0.0,0.0,0.0,0.0,0.0,0.0,0.0,0.0,-0.5457,-0.547,0.0,0.0,0.0,-0.5593,-0.5606,-0.5613,0.0,0.0,-0.5409,-0.5395,-0.5395,-0.5395,-0.5375,-0.5203,-0.4606,0.0,0.0,0.0,0.0,0.0,-0.0068,0.0,0.0,0.0,0.0,0.0,0.0,0.0,0.6418,0.7551,0.811,0.7195,0.7761,0.0,0.0,0.0,0.0,0.0,0.0,0.0,0.0,0.0,0.0,0.0,0.0,0.0,0.691,0.6896,0.6829,0.6736,0.6695,0.6556,0.6313,0.63,0.6293,0.6276,0.6289,0.6289,0.6276,0.6289,0.63,0.63,0.63,0.63,0.63,0.63,0.63,0.63,0.63,0.63,0.63,0.63,0.63,0.63,0.63,0.6378,0.6508,0.6637,0.6787,0.6883,-1.6771,-1.6254,-1.5711,-1.5634,-1.6251,0.0,0.0,0.0,0.0,0.0,0.0,0.0,0.0,0.0,0.0,0.0,0.0,-1.0687,-1.0928,-1.072,-1.0523,-1.0333,-0.9804,-0.9019,-0.802,-0.7494,0.0,0.0,0.0,0.0,0.0,0.0,0.0,0.0,-0.5409,-0.5412,0.0,0.0,0.0,-0.5599,-0.5715,0.0,-0.5745,-0.5599,-0.5501,-0.5395,-0.5395,-0.5395,-0.5388,-0.5358,-0.5216,-0.4965,0.0,0.0,0.0,0.0,0.0,0.0,0.0,0.0,0.0,0.0,0.0,0.0,0.7299,0.7979,0.8369,0.0,0.9399,0.0,0.0,0.0,0.0,0.0,0.0,0.0,0.0,0.0,0.0,0.0,0.0,0.0,0.7055,0.6953,0.6873,0.6846,0.6658,0.648,0.631,0.63,0.6242,0.6078,0.6235,0.6238,0.6074,0.6238,0.63,0.63,0.63,0.63,0.63,0.63,0.63,0.63,0.63,0.63,0.63,0.63,0.63,0.63,0.63,0.6317,0.6375,0.6603,0.6719,0.6783,-1.5861,-1.5517,-1.5199,-1.5199,0.0,0.0,0.0,0.0,0.0,0.0,0.0,0.0,0.0,0.0,0.0,0.0,0.0,0.0,0.0,0.0,-1.0348,-1.0775,-0.9919,-0.907,-0.8314,-0.7997,-0.7248,0.0,0.0,0.0,0.0,0.0,0.0,0.0,0.0,0.0,0.0,0.0,-0.5918,-0.5951,-0.5833,0.0,-0.5681,-0.5566,-0.5463,-0.5395,-0.5395,-0.5395,-0.5382,-0.5274,-0.5348,0.0,0.0,-0.435,-0.3744,0.0,-0.1713,-0.0904,0.0,0.0,0.0,0.3378,0.0,0.0,0.0,0.7664,0.8213,0.8572,0.0,0.0,0.0,0.0,0.0,0.0,0.0,0.0,0.0,0.0,0.0,0.0,0.0,0.0,0.7095,0.7034,0.693,0.6824,0.6536,0.6375,0.6303,0.63,0.6265,0.6146,0.6259,0.6262,0.6146,0.6259,0.63,0.63,0.63,0.63,0.63,0.63,0.63,0.63,0.63,0.63,0.63,0.63,0.63,0.63,0.63,0.63,0.6327,0.6545,0.6634,0.6732,-1.4879,-1.4772,-1.4645,-1.4717,0.0,0.0,0.0,0.0,0.0,0.0,0.0,0.0,0.0,0.0,0.0,0.0,0.0,0.0,0.0,0.0,-1.0414,-1.0995,-0.9945,-0.9047,-0.8344,-0.8224,-0.7505,0.0,0.0,0.0,0.0,0.0,0.0,0.0,0.0,0.0,0.0,0.0,0.0,-0.6149,0.0,-0.5749,-0.5654,-0.5508,-0.544,-0.5436,-0.5405,-0.5395,-0.5382,-0.525,-0.5246,-0.5243,-0.506,-0.4481,0.0,0.0,0.0,0.0,0.0,0.0,0.0,0.0,0.0,0.3859,0.0,0.0,0.0,0.0,0.0,0.0,0.0,0.0,0.0,0.0,0.0,0.0,0.0,0.0,0.0,0.0,0.0,0.0,0.7139,0.7095,0.6987,0.6763,0.6525,0.6405,0.6344,0.634,0.6313,0.6255,0.6282,0.6286,0.6255,0.6286,0.63,0.63,0.63,0.63,0.63,0.63,0.63,0.63,0.63,0.63,0.63,0.63,0.63,0.63,0.63,0.63,0.6317,0.646,0.6569,0.6722,-1.3709,-1.32,-1.2711,-1.3017,0.0,0.0,0.0,0.0,0.0,0.0,0.0,0.0,0.0,0.0,0.0,0.0,0.0,0.0,-1.3251,0.0,0.0,-1.1028,-1.0124,-0.9157,-0.807,-0.7532,-0.6777,-0.5854,0.0,0.0,0.0,0.0,0.0,0.0,-0.5583,0.0,0.0,0.0,-0.5766,0.0,-0.5766,-0.5874,0.0,-0.5671,-0.5562,-0.5545,-0.5443,-0.5395,-0.5412,0.0,-0.4933,-0.4214,0.0,-0.37,-0.2563,-0.191,0.0,0.0,0.0,0.0,0.0,0.0,0.2468,0.0,0.0,0.0,0.8072,0.896,0.0,0.0,0.0,0.0,0.0,0.0,0.0,0.0,0.0,0.0,0.0,0.0,0.0,0.0,0.0,0.7095,0.7031,0.6873,0.6829,0.6732,0.6504,0.6487,0.6329,0.6027,0.619,0.6196,0.602,0.6231,0.63,0.63,0.63,0.63,0.63,0.63,0.63,0.63,0.63,0.63,0.63,0.63,0.63,0.63,0.63,0.63,0.6317,0.646,0.6569,0.6722,-1.2806,-1.2556,-1.2345,-1.2502,0.0,0.0,0.0,0.0,0.0,0.0,0.0,0.0,0.0,0.0,0.0,0.0,0.0,-1.4494,0.0,0.0,0.0,0.0,-1.0504,-0.944,-0.838,-0.8191,-0.7372,-0.5932,-0.619,0.0,0.0,0.0,0.0,0.0,-0.5677,0.0,-0.577,0.0,-0.5052,0.0,0.0,0.0,0.0,-0.5392,-0.5491,-0.5484,-0.5419,-0.5395,-0.5405,0.0,-0.529,0.0,0.0,0.0,0.0,0.0,0.0,0.0,0.0,0.0,0.0,0.0,0.0,0.0,0.4983,0.0,0.7215,0.0,0.0,0.0,0.0,0.0,0.0,0.0,1.2639,0.0,0.0,0.0,0.0,0.0,0.0,0.0,0.0,0.0,0.0,0.0,0.6848,0.6702,0.6525,0.6511,0.6416,0.6169,0.6265,0.6269,0.6166,0.6269,0.63,0.63,0.63,0.63,0.63,0.63,0.63,0.63,0.63,0.63,0.63,0.63,0.63,0.63,0.63,0.63,0.6317,0.646,0.6569,0.6722,-1.2412,0.0,0.0,0.0,0.0,0.0,0.0,0.0,0.0,0.0,0.0,0.0,-1.6529,-1.6342,0.0,0.0,-1.592,-1.5018,0.0,0.0,-1.1813,0.0,0.0,0.0,0.0,-0.8447,-0.7634,-0.5993,0.0,0.0,0.0,0.0,0.0,0.0,0.0,-0.5925,-0.5858,0.0,-0.4591,-0.4601,-0.4332,-0.4251,-0.4437,-0.5164,-0.5433,-0.5395,-0.5395,-0.5395,-0.5402,-0.5443,-0.539,0.0,-0.4921,0.0,0.0,0.0,0.0,0.0,-0.0038,0.0,0.0,0.0,0.0,0.0,0.0,0.0,0.0,0.0,0.0,0.0,0.0,0.0,0.0,0.0,0.0,0.0,0.0,0.0,0.0,0.0,0.0,0.0,0.0,0.0,0.0,0.0,0.0,0.68,0.6607,0.6559,0.6508,0.6361,0.632,0.63,0.63,0.63,0.63,0.63,0.63,0.63,0.63,0.63,0.63,0.63,0.63,0.63,0.63,0.63,0.63,0.63,0.63,0.63,0.6313,0.6416,0.6536,0.6715,-1.2717,-1.2536,0.0,0.0,0.0,0.0,0.0,0.0,0.0,0.0,0.0,0.0,0.0,0.0,0.0,0.0,0.0,-1.3787,-1.3376,0.0,-1.2454,0.0,0.0,-0.9855,0.0,0.0,-0.7019,-0.5993,0.0,0.0,0.0,0.0,0.0,0.0,0.0,-0.6286,-0.6205,-0.5151,-0.4619,-0.4408,-0.3359,-0.337,-0.4124,0.0,-0.5525,-0.5395,-0.5395,0.0,0.0,-0.5566,-0.4919,0.0,0.0,0.0,0.0,0.0,0.0,0.0,0.0,0.0,0.0,0.1315,0.0,0.0,0.0,0.0,0.6337,0.0,0.0,0.0,0.0,0.0,0.0,0.0,0.0,0.0,0.0,0.0,0.0,0.0,0.0,0.0,0.0,0.0,0.0,0.0,0.0,0.0,0.6886,0.6773,0.6624,0.6511,0.6371,0.63,0.63,0.63,0.63,0.63,0.63,0.63,0.63,0.63,0.63,0.63,0.63,0.63,0.63,0.63,0.63,0.63,0.63,0.63,0.63,0.6306,0.6491,0.6702,-1.2993,0.0,0.0,0.0,0.0,0.0,0.0,-1.3554,0.0,0.0,0.0,0.0,0.0,-1.4465,-1.4292,0.0,0.0,-1.3984,-1.3224,-1.3291,0.0,0.0,0.0,-1.0202,0.0,0.0,0.0,0.0,0.0,0.0,0.0,0.0,0.0,0.0,0.0,-0.477,0.0,0.0,0.0,0.0,0.0,-0.2428,-0.3362,0.0,0.0,-0.5395,-0.5395,-0.5395,0.0,-0.5453,-0.5297,-0.503,-0.4812,-0.3828,-0.2679,-0.2155,-0.1241,0.0,0.0,0.0,0.007,0.0447,0.0,0.0,0.0,0.0,0.0,0.0,0.0,0.0,0.0,0.0,0.0,0.0,0.0,0.0,0.0,0.0,0.0,0.0,0.0,0.0,0.0,0.0,0.0,0.0,0.0,0.0,0.0,0.6836,0.6736,0.6521,0.6467,0.6395,0.6303,0.63,0.63,0.63,0.63,0.63,0.63,0.63,0.63,0.63,0.63,0.63,0.63,0.63,0.63,0.63,0.63,0.63,0.6323,0.6481,0.6614,0.6729,-1.3307,0.0,0.0,0.0,0.0,0.0,0.0,0.0,0.0,0.0,-1.3848,0.0,-1.419,0.0,-1.3724,0.0,-1.391,-1.3587,-1.2842,-1.2885,0.0,-1.1759,-1.1156,0.0,0.0,0.0,0.0,0.0,0.0,-0.6457,0.0,0.0,0.0,0.0,0.0,-0.4071,-0.3044,0.0,-0.1518,0.0,0.0,-0.1444,0.0,0.0,-0.3632,-0.4445,0.0,-0.4453,-0.4453,-0.4453,-0.4507,-0.4538,-0.4267,-0.3533,-0.2664,-0.2139,-0.1222,-0.0351,-0.0072,0.0,0.0,0.0478,0.1091,0.0,0.2857,0.0,0.0,0.0,0.0,0.0,0.0,0.0,0.0,0.0,0.0,0.0,0.0,1.0442,0.0,0.0,0.0,0.0,0.0,0.0,0.0,0.0,0.0,0.0,0.0,0.0,0.6841,0.6641,0.658,0.6521,0.6375,0.6375,0.6351,0.63,0.63,0.63,0.63,0.63,0.63,0.6296,0.6242,0.6179,0.6179,0.6179,0.6179,0.6183,0.6279,0.63,0.633,0.6529,0.6688,0.6817,-1.3586,0.0,0.0,0.0,-1.3915,0.0,0.0,0.0,-1.4422,0.0,-1.4335,-1.4282,-1.3666,-1.3586,-1.3353,-1.2857,-1.279,-1.2663,-1.2345,-1.21,0.0,0.0,-1.0547,-0.9484,-0.8238,0.0,0.0,0.0,0.0,0.0,0.0,0.0,0.0,0.0,-0.4738,0.0,-0.2899,-0.2046,-0.164,-0.1447,-0.042,-0.0485,-0.1237,-0.1237,-0.1782,-0.2576,-0.2671,-0.2711,-0.2711,-0.2711,-0.2711,-0.2666,-0.2565,-0.2481,-0.2256,-0.1387,-0.1064,-0.0882,-0.0207,0.0,0.0247,0.1263,0.0,0.0,0.0,0.0,0.4624,0.0,0.0,0.0,0.0,0.0,0.0,0.0,0.0,0.0,0.0,0.0,0.0,0.0,0.0,0.0,0.0,0.0,0.0,0.0,0.0,0.0,0.0,0.0,0.6903,0.6886,0.6787,0.6637,0.6525,0.6515,0.6446,0.631,0.6303,0.63,0.63,0.63,0.6296,0.6279,0.6095,0.599,0.5983,0.599,0.5993,0.6006,0.6238,0.6303,0.6327,0.6463,0.6664,0.6906,-1.4153,-1.4476,-1.4629,0.0,-1.4329,-1.4208,0.0,0.0,0.0,0.0,-1.4282,-1.4055,-1.364,-1.3413,-1.326,-1.3106,-1.2918,0.0,0.0,0.0,0.0,-1.1422,-1.0282,-0.9186,-0.8209,-0.7204,0.0,-0.63,0.0,0.0,-0.5358,0.0,0.0,0.0,0.0,0.0,-0.0765,-0.0567,-0.0441,-0.0392,-0.0115,-0.0152,0.0,0.0,-0.0497,-0.0859,-0.2214,-0.2711,-0.2711,-0.2711,-0.2711,-0.2708,-0.2656,-0.2154,-0.1558,-0.1326,-0.0798,-0.0234,-0.0068,0.0,0.0069,0.0352,0.0425,0.0678,0.0,0.0,0.0,0.0,0.0,0.0,0.0,0.0,0.0,0.0,0.0,0.0,0.0,0.0,0.0,1.0503,0.0,0.0,0.0,0.0,0.0,0.0,0.0,0.0,0.0,0.0,0.0,0.6893,0.6849,0.6797,0.6644,0.6569,0.6494,0.6457,0.6351,0.63,0.63,0.63,0.6238,0.6088,0.601,0.5929,0.5867,0.5946,0.5993,0.6006,0.6238,0.6364,0.6463,0.6497,0.6664,0.6889,-1.4649,0.0,0.0,-1.4377,0.0,0.0,-1.4955,-1.493,0.0,-1.473,-1.4683,0.0,-1.4033,-1.384,-1.3627,-1.324,-1.3053,0.0,-1.279,0.0,0.0,-1.1824,-1.0497,-0.9493,-0.8884,-0.752,0.0,-0.6868,0.0,0.0,-0.5815,0.0,0.0,0.0,0.0,-0.0989,0.0,0.0,0.0,0.0,0.0,0.0,0.0,0.0,0.0,-0.0143,-0.1159,-0.1509,-0.1509,-0.1509,-0.1509,-0.1509,-0.1509,-0.1141,-0.0739,-0.0739,-0.037,0.0,0.0,0.0,0.0,0.0,0.0,0.0174,0.0748,0.1166,0.1746,0.0,0.0,0.0,0.0,0.0,0.0,0.0,0.0,0.0,0.0,0.0,0.0,0.0,0.8295,0.0,0.0,0.0,0.0,0.0,0.0,0.0,0.0,0.0,0.0,0.6987,0.6977,0.6876,0.6702,0.6614,0.6549,0.6419,0.6337,0.63,0.63,0.63,0.6252,0.6125,0.5986,0.5881,0.581,0.5895,0.5928,0.5952,0.6211,0.6351,0.6419,0.6419,0.6614,0.6886,0.0,0.0,0.0,0.0,0.0,0.0,0.0,-1.5068,0.0,-1.5048,0.0,-1.519,-1.4636,-1.4583,-1.4255,-1.3454,0.0,-1.3193,-1.2918,-1.2348,-1.2114,-1.2291,-1.0914,-1.0036,-0.9775,-0.8384,-0.7667,0.0,0.0,0.0,0.0,0.0,0.0,0.0,0.0,0.0,0.0,-0.0246,-0.0162,0.0,0.0,0.0,0.0,0.0,0.0,0.0,0.0,0.0,0.0,0.0,0.0,0.0,0.0,0.0,0.0,0.0,0.0,0.0,0.0,0.0,0.0,0.0,0.0,0.0,0.0,0.0732,0.1313,0.1014,0.1285,0.1391,0.0,0.0,0.0,0.0,0.0,0.0,0.0,0.0,0.0,0.0,0.0,0.0,0.0,0.0,0.0,0.0,0.0,0.0,0.0,0.0,0.0,0.7102,0.7095,0.6984,0.679,0.0,0.6583,0.6385,0.6327,0.63,0.63,0.63,0.6289,0.6255,0.5949,0.582,0.5803,0.5823,0.5844,0.5888,0.6194,0.63,0.63,0.63,0.6532,0.6856,0.0,0.0,0.0,0.0,0.0,-1.4952,-1.2789,-1.4137,-1.5291,-1.5048,-1.5217,-1.5264,-1.4968,-1.4928,-1.4723,-1.4322,-1.4068,0.0,0.0,0.0,0.0,-1.2311,-1.1136,-1.0373,-1.0042,-0.9062,-0.836,0.0,0.0,0.0,0.0,0.0,0.0,0.0,0.0,0.0,-0.1466,-0.1474,0.0,0.0,0.0,0.0,0.0,0.0,0.0,0.0,0.0,0.0,0.0,0.0,0.0,0.0,0.0,0.0,0.0,0.0,0.0,0.0,0.0,0.0,0.0,0.0,0.0,0.0,0.0,0.0136,0.0271,0.0202,0.0271,0.0273,0.0172,0.0,0.0,0.0,0.0,0.0,0.0,0.0,0.0,0.0,0.0,0.5275,0.0,0.0,0.0,0.0,0.0,0.0,0.0,0.0,0.0,0.0,0.7095,0.0,0.0,0.0,0.6736,0.6807,0.6477,0.63,0.63,0.63,0.6193,0.6067,0.5976,0.5918,0.5813,0.5902,0.6064,0.6224,0.6279,0.63,0.63,0.63,0.6504,0.6742,0.0,0.0,0.0,0.0,0.0,0.0,0.0,-1.2432,0.0,-1.4384,-1.4525,-1.4735,-1.4965,-1.5008,-1.4723,-1.4073,-1.3935,-1.3693,-1.34,-1.3146,-1.2891,-1.2583,-1.2019,0.0,-1.1026,-1.0164,-0.9691,-0.9576,0.0,0.0,0.0,0.0,0.0,0.0,0.0,-0.2326,0.0,0.0,0.0,0.0,0.0,0.0,0.0,0.0,0.0,0.0,0.0,0.0,0.0,0.0,0.0,0.0,0.0,0.0,0.0,0.0,0.0,0.0,0.0,0.0,0.0,0.0,0.0,0.0,0.0,0.0,0.0,0.0,-0.037,-0.0678,-0.0662,-0.068,0.0,0.0,0.0,0.0,0.0,0.0,0.0,0.0,0.0,0.0,0.0,0.0,0.0,0.0,0.0,0.0,0.0,0.0,0.0,0.0,0.0,0.0,0.0,0.0,0.0,0.6688,0.6439,0.63,0.63,0.63,0.6259,0.6146,0.6027,0.5949,0.5925,0.5963,0.6122,0.63,0.63,0.6344,0.6409,0.6409,0.6563,0.6807,0.0,-1.2619,0.0,0.0,-1.1068,0.0,-0.9801,-1.0681,-1.2091,-1.368,-1.3632,-1.3915,-1.5054,-1.4682,-1.4225,-1.3911,-1.3622,-1.343,-1.338,-1.334,-1.3193,-1.2985,-1.2851,-1.2569,-1.21,-1.1278,-1.093,0.0,0.0,0.0,0.0,0.0,0.0,0.0,0.0,0.0,0.0,0.0,-0.0245,0.0,0.0,0.0,0.0,0.0,0.0,0.0,0.0,0.0,0.0,0.0,0.0,0.0,0.0,0.0,0.0,0.0,0.0,0.0,0.0,0.0,0.0,0.0,0.0,0.0,0.0,0.0,0.0,0.0,-0.0538,-0.1015,-0.1009,-0.1027,0.0,0.0,0.0,0.0,0.0,0.0,0.0,0.0,0.0,0.0,0.4531,0.0,0.0,0.0,0.0,0.0,0.0,0.0,0.0,0.0,0.0,0.7092,0.7024,0.0,0.6641,0.6559,0.6381,0.63,0.63,0.63,0.63,0.6293,0.6132,0.6078,0.6078,0.6078,0.6149,0.63,0.63,0.6368,0.647,0.6501,0.6647,0.6822,0.0,0.0,0.0,0.0,0.0,0.0,-0.8581,-0.9312,-1.1068,-1.3584,-1.2861,-1.3043,-1.5461,-1.3622,-1.2931,-1.4711,-1.3778,-1.3334,-1.3957,-1.3713,-1.3547,-1.352,-1.3079,-1.2757,-1.2703,-1.2101,-1.1524,0.0,0.0,0.0,0.0,0.0,0.0,0.0,0.0,0.0,0.0,-0.2093,-0.0993,0.0,0.0,0.0,0.0,0.0,0.0,0.0,0.0,0.0,0.0,0.0,0.0,0.0,0.0,0.0,0.0,0.0,0.0,0.0,0.0,0.0,0.0,0.0,0.0,0.0,0.0,0.0,0.0,0.0,-0.0067,-0.0136,-0.0105,-0.0138,-0.0103,0.0,0.0,0.0,0.0,0.0,0.0,0.0,0.0,0.0,0.0,0.2664,0.0,0.0,0.5598,0.0,0.0,0.0,0.0,0.7346,0.0,0.7388,0.7329,0.6912,0.6695,0.6675,0.6433,0.63,0.63,0.63,0.63,0.63,0.6282,0.6279,0.6279,0.6279,0.6286,0.63,0.63,0.631,0.6334,0.6463,0.6576,0.6569,0.0,0.0,0.0,0.0,0.0,0.0,0.0,-0.8432,-0.9456,-1.1307,-1.1068,-1.1405,-1.304,-1.2305,-1.1942,-1.2586,-1.2188,-1.197,-1.2276,-1.2084,-1.1837,-1.1691,-1.1389,-1.1163,-1.0937,-1.0701,-1.0495,0.0,0.0,0.0,0.0,0.0,0.0,0.0,0.0,-0.3691,-0.2349,-0.1224,-0.046,0.0,0.0,0.0,0.0,0.0,0.0,0.0,0.0,0.0,0.0,0.0,0.0,0.0,0.0,0.0,0.0,0.0,0.0,0.0,0.0,0.0,0.0,0.0,0.0,0.0,0.0,0.0,0.0,0.0,0.0,0.0,0.0,0.0,0.0,0.0,0.0,0.0,0.0,0.0,0.0,0.0,0.0,0.0,0.0,0.0,0.0,0.0,0.0,0.0,0.0,0.0,0.0,0.7506,0.0,0.7234,0.7234,0.6878,0.6654,0.6563,0.6399,0.63,0.63,0.63,0.63,0.63,0.63,0.63,0.63,0.63,0.63,0.631,0.6395,0.6484,0.6461,0.5889,0.5766,0.5754,-0.9657,0.0,-0.7988,0.0,-0.7988,-0.7988,-0.7988,-0.7988,-0.8333,-0.9266,-0.941,-0.9992,-1.1479,-1.0934,-1.0663,-1.1152,-1.0859,-1.0742,-1.1089,-1.099,-1.0766,-1.0508,-1.0333,0.0,-0.985,-0.974,-0.9746,-0.9862,-0.9827,0.0,0.0,0.0,0.0,0.0,-0.3758,-0.2615,-0.1645,-0.0513,0.0,0.0,0.0,0.0,0.0,0.0,0.0,0.0,0.0,0.0,0.0,0.0,0.0,0.0,0.0,0.0,0.0,0.0,0.0,0.0,0.0,0.0,0.0,0.0,0.0,0.0,0.0,0.0,0.0,0.0,0.0,0.0,0.0,0.0,0.0,0.0,0.0,0.0,0.0,0.0,0.0,0.0,-0.132,-0.0493,0.0648,0.0723,0.0,0.0,0.0,0.0,0.0,0.0,0.0,0.0,0.0,0.0,0.0,0.6827,0.6603,0.645,0.6347,0.63,0.63,0.63,0.63,0.63,0.63,0.63,0.6303,0.6344,0.6361,0.6375,0.6521,0.6413,0.6071,0.5352,0.4973,0.4651,-0.8283,-0.7988,-0.7988,-0.7988,-0.7988,-0.7988,-0.7988,-0.7988,-0.7988,-0.8038,-0.8038,-0.9019,-1.1604,-0.9604,-0.8992,-1.128,-1.0278,-0.9961,-1.1007,-1.1084,-1.099,0.0,0.0,-1.0343,-1.0198,-0.986,-0.9705,-0.9705,0.0,0.0,-0.8369,0.0,-0.5556,-0.5312,-0.3038,-0.1857,-0.1517,-0.0434,0.0,0.0,0.0,0.0,0.0,0.0,0.0,0.0,0.0,0.0,0.0,0.0,0.0,0.0,0.0,0.0,0.0,0.0,0.0,0.0,0.0,0.0,0.0,0.0,0.0,0.0,0.0,0.0,0.0,0.0,0.0,0.0,0.0,0.0,0.0,0.0,0.0,0.0,0.0,0.0,0.0,-0.3215,-0.3187,-0.2717,-0.1826,-0.1748,0.0,0.0,0.0,0.0,0.0,0.0,0.0,0.737,0.7415,0.0,0.6893,0.6776,0.6552,0.6303,0.63,0.63,0.63,0.63,0.63,0.63,0.63,0.63,0.631,0.6453,0.6511,0.6525,0.6637,0.599,0.4955,0.5064,0.4395,0.328,-0.8573,-0.834,-0.8309,-0.8214,-0.8197,-0.8163,-0.8005,-0.7988,-0.7988,-0.7988,-0.7988,-0.8333,-0.9167,-0.8478,-0.8312,0.0,-0.8743,-0.8626,0.0,-0.8889,-0.8796,-0.8633,-0.8461,-0.8282,-0.8107,-0.7962,-0.7881,-0.7774,0.0,0.0,0.0,-0.582,-0.4613,-0.2801,-0.2133,-0.1339,-0.0489,-0.0133,0.0,0.0,0.0,0.0,0.0,0.0,0.0,0.0,0.0,0.0,0.0,0.0,0.0,0.0,0.0,0.0,0.0,0.0,0.0,0.0,0.0,0.0,0.0,0.0,0.0,0.0,0.0,0.0,0.0,0.0,0.0,0.0,0.0,0.0,0.0,0.0,0.0,0.0,0.0,0.0,0.0,-0.3683,-0.446,-0.4288,-0.2588,-0.2502,0.0,0.0,0.0,0.0,0.0,0.0,0.0,0.0,0.7322,0.0,0.6886,0.6776,0.6552,0.63,0.63,0.63,0.63,0.63,0.63,0.63,0.63,0.63,0.631,0.6453,0.6511,0.6538,0.6756,0.6083,0.4948,0.4314,0.3338,0.2151,-0.8605,-0.8482,-0.8438,-0.8347,-0.8323,-0.8218,-0.8012,-0.7988,-0.7988,-0.7988,-0.7988,-0.7988,-0.7988,-0.7988,0.0,-0.7988,-0.7988,-0.7988,-0.7988,-0.7901,-0.7831,-0.7685,-0.7587,-0.7465,-0.727,-0.7258,0.0,-0.7095,-0.677,-0.6242,-0.5359,-0.4572,-0.3281,-0.1668,-0.1292,-0.0718,0.0,0.0,0.0,0.0,0.0,0.0,0.0,0.0,0.0,0.0,0.0,0.0,0.0,0.0,0.0,0.0,0.0,0.0,0.0,0.0,0.0,0.0,0.0,0.0,0.0,0.0,0.0,0.0,0.0,0.0,0.0,0.0,0.0,0.0,0.0,0.0,0.0,0.0,0.0,-0.0323,-0.1287,0.0,0.0,0.0,0.0,0.0,0.0,-0.2439,-0.1806,0.0,0.0,0.0,0.0,0.0,0.0,0.7382,0.7196,0.0,0.6844,0.6749,0.6552,0.63,0.63,0.63,0.63,0.63,0.63,0.63,0.63,0.63,0.631,0.6453,0.6511,0.6495,0.628,0.5733,0.485,0.3454,0.2405,0.1544,-0.8469,-0.8499,-0.8452,0.0,-0.8323,0.0,-0.8012,-0.7988,-0.7988,-0.7988,-0.7988,-0.7988,-0.7988,-0.7988,-0.7988,-0.7988,0.0,0.0,0.0,-0.7988,-0.7921,-0.7818,-0.7811,-0.7743,-0.7604,-0.7461,-0.7433,-0.7433,-0.6059,-0.5369,-0.5235,-0.2907,-0.1747,-0.1615,-0.0494,0.0,0.0,0.0,0.0,0.0,0.0,0.0,0.0,0.0,0.0,0.0,0.0,0.0,0.0,0.0,0.0,0.0,0.0,0.0,0.0,0.0,0.0,0.0,0.0,0.0,0.0,0.0,0.0,0.0,0.0,0.0,0.0,0.0,0.0,0.0,0.0,0.0,0.0,0.0,0.0,-0.0333,-0.1363,0.0,0.0,0.0,0.0,0.0,0.0,-0.1761,-0.1284,0.0,0.0,0.0,0.0,0.0,0.6162,0.7054,0.7095,0.696,0.6719,0.6715,0.6573,0.633,0.632,0.632,0.633,0.631,0.6306,0.6313,0.6303,0.63,0.631,0.6453,0.6511,0.6404,0.5556,0.5035,0.4537,0.264,0.1731,0.1343,0.0,0.0,-0.8574,-0.8316,-0.8323,-0.8218,-0.8012,-0.7988,-0.7988,-0.7988,-0.7988,-0.7988,-0.7988,-0.7988,-0.7988,-0.7988,-0.7988,-0.7988,-0.7988,-0.7988,-0.7921,-0.7818,-0.7811,-0.7743,-0.7604,-0.7563,-0.7546,-0.7546,-0.619,-0.5077,-0.416,-0.2568,-0.131,-0.0413,-0.0136,0.0,0.0,0.0,0.0,0.0,0.0,0.0,0.0,0.0,0.0,0.0,0.0,0.0,0.0,0.0,0.0,0.0,0.0,0.0,0.0,0.0,0.0,0.0,0.0,0.0,0.0,0.0,0.0,0.0,0.0,0.0,0.0,0.0,0.0,0.0,0.0,0.0,0.0,0.0,0.0,-0.008,-0.036,-0.1034,0.0,0.0,-0.2558,-0.2676,-0.1527,-0.1551,-0.1191,0.0,0.0,0.0,0.0,0.575,0.7024,0.7102,0.7095,0.7011,0.6832,0.6832,0.678,0.6597,0.6518,0.6521,0.6586,0.6402,0.6361,0.6457,0.6347,0.63,0.631,0.6453,0.6511,0.6488,0.635,0.5241,0.3618,0.3199,0.1906,0.0338,-0.8784,-0.8757,-0.8638,-0.8408,-0.8364,-0.8218,-0.8012,-0.7988,-0.7988,-0.7988,-0.7988,-0.7988,-0.7988,-0.7988,-0.7988,-0.7988,-0.7988,-0.7988,-0.7988,-0.7988,-0.7955,-0.7919,-0.7916,-0.7879,-0.7801,-0.7733,-0.7665,-0.76,-0.6339,-0.5041,-0.3781,-0.2497,-0.1205,0.0,0.0,0.0,0.0,0.0,0.0,0.0,0.0,0.0,0.0,0.0,0.0,0.0,0.0,0.0,0.0,0.0,0.0,0.0,0.0,0.0,0.0,0.0,0.0,0.0,0.0,0.0,0.0,0.0,0.0,0.0,0.0,0.0,0.0,0.0,0.0,0.0,0.0,0.0,0.0,0.0,0.0,0.0,0.0,-0.0491,0.0,-0.0706,-0.1291,-0.1441,-0.077,-0.0786,-0.0403,0.0743,0.266,0.0,0.4397,0.6296,0.7299,0.7102,0.7095,0.7028,0.6886,0.6858,0.6783,0.6698,0.6617,0.662,0.6695,0.6504,0.6155,0.5743,0.5635,0.5303,0.4839,0.4912,0.4965,0.4897,0.4512,0.3887,0.3089,0.2192,0.1367,0.0642,-0.8815,-0.8733,-0.8594,-0.8442,-0.8316,-0.8191,-0.8008,-0.7988,-0.7988,-0.7988,-0.7988,-0.7988,-0.7988,-0.7988,-0.7988,-0.7988,-0.7988,-0.7988,-0.7988,-0.7988,-0.7988,-0.7988,-0.7988,-0.7988,-0.7988,-0.7913,-0.7787,-0.7665,-0.625,-0.4955,-0.3815,-0.2381,-0.1097,0.0,0.0,0.0,0.0,0.0,0.0,0.0,0.0,0.0,0.0,0.0,0.0,0.0,0.0,0.0,0.0,0.0,0.0,0.0,0.0,0.0,0.0,0.0,0.0,0.0,0.0,0.0,0.0,0.0,0.0,0.0,0.0,0.0,0.0,0.0,0.0,0.0,0.0,0.0,0.0,0.0,0.0,0.0,0.0,0.0,0.0,0.0,0.0,0.0,0.0,0.0161,0.0692,0.1718,0.3189,0.4458,0.5348,0.6656,0.7275,0.7098,0.7095,0.7038,0.692,0.6831,0.6766,0.6766,0.6746,0.6746,0.6759,0.642,0.5767,0.4915,0.4588,0.3957,0.309,0.309,0.3109,0.2995,0.2157,0.2237,0.264,0.0879,0.0727,0.1215,-0.8394,-0.8353,-0.8289,-0.8136,-0.8039,-0.8019,-0.7992,-0.7988,-0.7988,-0.7988,-0.7988,-0.7988,-0.7988,-0.7988,-0.7988,-0.7988,-0.7988,-0.7988,-0.7988,-0.7988,-0.7988,-0.7988,-0.7988,-0.7988,-0.7988,-0.7968,-0.7944,-0.7921,-0.5489,-0.4184,-0.3893,-0.1438,-0.0192,0.0,0.0,0.0,0.0,0.0,0.0,0.0,0.0,0.0,0.0,0.0,0.0,0.0,0.0,0.0,0.0,0.0,0.0,0.0,0.0,0.0,0.0,0.0,0.0,0.0,0.0,0.0,0.0,0.0,0.0,0.0,0.0,0.0,0.0,0.0,0.0,0.0,0.0,0.0,0.0,0.0,0.0,0.0,0.0,0.0,0.0,0.0,0.0,0.0,0.0,0.0942,0.1606,0.1797,0.389,0.5206,0.5372,0.6526,0.7122,0.7095,0.7095,0.7085,0.7061,0.7041,0.7028,0.7024,0.6906,0.6913,0.6974,0.5729,0.51,0.5024,0.3853,0.3245,0.3096,0.3117,0.312,0.3081,0.2936,0.2432,0.1794,0.1488,0.0866,0.0218,-0.8397,-0.8374,-0.8248,-0.8177,-0.8096,-0.7988,-0.7988,-0.7988,-0.7988,-0.7988,-0.7988,-0.7988,-0.7988,-0.7988,-0.7988,-0.7988,-0.7988,-0.7988,-0.7988,-0.7988,-0.7988,-0.7988,-0.7988,-0.7988,-0.7988,-0.7988,-0.7988,-0.7988,-0.6773,-0.5405,-0.3966,-0.2754,-0.138,0.0,0.0,0.0,0.0,0.0,0.0,0.0,0.0,0.0,0.0,0.0,0.0,0.0,0.0,0.0,0.0,0.0,0.0,0.0,0.0,0.0,0.0,0.0,0.0,0.0,0.0,0.0,0.0,0.0,0.0,0.0,0.0,0.0,0.0,0.0,0.0,0.0,0.0,0.0,0.0,0.0,0.0,0.0,0.0,0.0,0.0,0.0,0.0,0.0,0.0,0.1093,0.2076,0.2725,0.4417,0.5657,0.629,0.6827,0.7095,0.7095,0.7095,0.7095,0.7095,0.7095,0.7095,0.7095,0.7031,0.6724,0.6154,0.536,0.4398,0.3296,0.2593,0.1955,0.1433,0.1441,0.1429,0.1432,0.1447,0.1147,0.072,0.0743,0.0442,0.0,-0.8482,-0.8367,-0.8323,-0.8323,-0.8143,-0.7988,-0.7988,-0.7988,-0.7988,-0.7988,-0.7988,-0.7988,-0.7988,-0.7988,-0.7988,-0.7988,-0.7988,-0.7988,-0.7988,-0.7988,-0.7988,-0.7988,-0.7988,-0.7988,-0.7988,-0.7988,-0.7988,-0.7988,-0.7686,-0.6478,-0.4468,-0.3815,-0.2414,-0.0454,-0.0151,0.0,0.0,0.0,0.0,0.0,0.0,0.0,0.0,0.0,0.0,0.0,0.0,0.0,0.0,0.0,0.0,0.0,0.0,0.0,0.0,0.0,0.0,0.0,0.0,0.0,0.0,0.0,0.0,0.0,0.0,0.0,0.0,0.0,0.0,0.0,0.0,0.0,0.0,0.0,0.0,0.0,0.0,0.0,0.0,0.0,0.0,0.0,0.0,0.1077,0.2171,0.3098,0.4293,0.5356,0.6245,0.629,0.629,0.629,0.6827,0.7095,0.7095,0.7095,0.6962,0.6694,0.6694,0.6115,0.4952,0.452,0.3387,0.1787,0.1384,0.074,0.0,0.0,0.0,0.0,0.0,0.0,0.0,0.0,0.0,0.0,-0.8482,-0.8367,-0.8323,-0.8323,-0.8143,-0.7988,-0.7988,-0.7988,-0.7988,-0.7988,-0.7988,-0.7988,-0.7988,-0.7988,-0.7988,-0.7988,-0.7988,-0.7988,-0.7988,-0.7988,-0.7988,-0.7988,-0.7988,-0.7988,-0.7988,-0.7988,-0.7988,-0.7988,-0.6731,-0.6029,-0.5777,-0.3317,-0.2063,-0.181,-0.0545,0.0,0.0,0.0,0.0,0.0,0.0,0.0,0.0,0.0,0.0,0.0,0.0,0.0,0.0,0.0,0.0,0.0,0.0,0.0,0.0,0.0,0.0,0.0,0.0,0.0,0.0,0.0,0.0,0.0,0.0,0.0,0.0,0.0,0.0,0.0,0.0,0.0,0.0,0.0,0.0,0.0,0.0,0.0,0.0,0.0,0.0,0.0,0.0,0.1097,0.1836,0.1917,0.3034,0.3748,0.3837,0.3837,0.3837,0.3837,0.5977,0.7095,0.7095,0.7095,0.6561,0.5536,0.5536,0.491,0.3703,0.2544,0.1966,0.1745,0.0626,0.009,0.0,0.0,0.0,0.0,0.0,0.0,0.0,0.0,0.0,0.0,-0.8367,-0.8357,-0.8241,-0.8143,-0.8029,-0.7988,-0.7988,-0.7988,-0.7988,-0.7988,-0.7988,-0.7988,-0.7988,-0.7988,-0.7988,-0.7988,-0.7988,-0.7988,-0.7988,-0.7988,-0.7988,-0.7988,-0.7988,-0.7988,-0.7988,-0.7988,-0.7988,-0.7988,-0.7487,-0.6833,-0.5979,-0.4974,-0.3568,-0.1962,-0.145,-0.0798,0.0,0.0,0.0,0.0,0.0,0.0,0.0,0.0,0.0,0.0,0.0,0.0,0.0,0.0,0.0,0.0,0.0,0.0,0.0,0.0,0.0,0.0,0.0,0.0,0.0,0.0,0.0,0.0,0.0,0.0,0.0,0.0,0.0,0.0,0.0,0.0,0.0,0.0,0.0,0.0,0.0,0.0,0.0,0.0,0.0,0.0,0.0,0.1113,0.1819,0.1789,0.2903,0.3614,0.3614,0.3614,0.3614,0.3614,0.4461,0.4952,0.4952,0.4952,0.4727,0.4283,0.4283,0.366,0.2458,0.2013,0.1389,0.0673,0.018,0.0,0.0,0.0,0.0,0.0,0.0,0.0,0.0,0.0,0.0,0.0,-0.8489,-0.8401,-0.8303,-0.8197,-0.8052,-0.7988,-0.7988,-0.7988,-0.7988,-0.7988,-0.7988,-0.7988,-0.7988,-0.7988,-0.7988,-0.7988,-0.7988,-0.7988,-0.7988,-0.7988,-0.7988,-0.7988,-0.7988,-0.7988,-0.7988,-0.7988,-0.7988,-0.7988,-0.7988,-0.7537,-0.6631,-0.6179,-0.5024,-0.3217,-0.2364,-0.1511,-0.0605,-0.0202,0.0,0.0,0.0,0.0,0.0,0.0,0.0,0.0,0.0,0.0,0.0,0.0,0.0,0.0,0.0,0.0,0.0,0.0,0.0,0.0,0.0,0.0,0.0,0.0,0.0,0.0,0.0,0.0,0.0,0.0,0.0,0.0,0.0,0.0,0.0,0.0,0.0,0.0,0.0,0.0,0.0,0.0,0.0,0.0,0.0,0.0763,0.1254,0.1254,0.2013,0.2458,0.2458,0.2458,0.2458,0.2458,0.2458,0.2466,0.248,0.3224,0.3392,0.3037,0.3037,0.2413,0.1254,0.1254,0.0762,0.0,0.0,0.0,0.0,0.0,0.0,0.0,0.0,0.0,0.0,0.0,0.0,0.0,-0.8851,-0.8693,-0.8482,-0.8479,-0.8235,-0.7988,-0.7988,-0.7988,-0.7988,-0.7988,-0.7988,-0.7988,-0.7988,-0.7988,-0.7988,-0.7988,-0.7988,-0.7988,-0.7988,-0.7988,-0.7988,-0.7988,-0.7988,-0.7988,-0.7988,-0.7988,-0.7988,-0.7988,-0.7988,-0.7988,-0.7988,-0.6631,-0.6029,-0.5879,-0.3217,-0.2013,-0.1913,-0.0605,0.0,0.0,0.0,0.0,0.0,0.0,0.0,0.0,0.0,0.0,0.0,0.0,0.0,0.0,0.0,0.0,0.0,0.0,0.0,0.0,0.0,0.0,0.0,0.0,0.0,0.0,0.0,0.0,0.0,0.0,0.0,0.0,0.0,0.0,0.0,0.0,0.0,0.0,0.0,0.0,0.0,0.0,0.0,0.0,0.0,0.0,0.0,0.0,0.0,0.0,0.0,0.0,0.0,0.0,0.0,0.0,0.0,0.2393,0.2992,0.1791,0.179,0.1165,0.0,0.0,0.0,0.0,0.0,0.0,0.0,0.0,0.0,0.0,0.0,0.0,0.0,0.0,0.0,0.0,-0.8628,-0.8547,-0.8418,-0.8208,-0.8049,-0.7988,-0.7988,-0.7988,-0.7988,-0.7988,-0.7988,-0.7988,-0.7988,-0.7988,-0.7988,-0.7988,-0.7988,-0.7988,-0.7988,-0.7988,-0.7988,-0.7988,-0.7988,-0.7988,-0.7988,-0.7988,-0.7988,-0.7988,-0.7988,-0.7988,-0.7988,-0.7587,-0.6883,-0.5979,-0.5175,-0.377,-0.1962,-0.1561,-0.0857,0.0,0.0,0.0,0.0,0.0,0.0,0.0,0.0,0.0,0.0,0.0,0.0,0.0,0.0,0.0,0.0,0.0,0.0,0.0,0.0,0.0,0.0,0.0,0.0,0.0,0.0,0.0,0.0,0.0,0.0,0.0,0.0,0.0,0.0,0.0,0.0,0.0,0.0,0.0,0.0,0.0,0.0,0.0,0.0,0.0,0.0,0.0,0.0,0.0,0.0,0.0,0.0,0.0,0.0,0.0,0.0,0.073,0.0903,0.055,0.0542,0.0359,0.0,0.0,0.0,0.0,0.0,0.0,0.0,0.0,0.0,0.0,0.0,0.0,0.0,0.0,0.0,0.0,-0.8499,-0.8435,-0.8343,-0.8163,-0.8029,-0.7988,-0.7988,-0.7988,-0.7988,-0.7988,-0.7988,-0.7988,-0.7988,-0.7988,-0.7988,-0.7988,-0.7988,-0.7988,-0.7988,-0.7988,-0.7988,-0.7988,-0.7988,-0.7988,-0.7988,-0.7988,-0.7988,-0.7988,-0.7988,-0.7988,-0.7988,-0.7988,-0.7587,-0.6781,-0.6232,-0.5125,-0.3519,-0.2465,-0.1511,-0.0756,-0.0202,0.0,0.0,0.0,0.0,0.0,0.0,0.0,0.0,0.0,0.0,0.0,0.0,0.0,0.0,0.0,0.0,0.0,0.0,0.0,0.0,0.0,0.0,0.0,0.0,0.0,0.0,0.0,0.0,0.0,0.0,0.0,0.0,0.0,0.0,0.0,0.0,0.0,0.0,0.0,0.0,0.0,0.0,0.0,0.0,0.0,0.0,0.0,0.0,0.0,0.0,0.0,0.0,0.0,0.0,0.0,0.0,0.0,0.0,0.0,0.0,0.0,0.0,0.0,0.0,0.0,0.0,0.0,0.0,0.0,0.0,0.0,0.0,0.0,0.0,0.0,-0.8462,-0.836,-0.832,-0.8252,-0.8133,-0.7988,-0.7988,-0.7988,-0.7988,-0.7988,-0.7988,-0.7988,-0.7988,-0.7988,-0.7988,-0.7988,-0.7988,-0.8002,-0.8025,-0.8005,-0.7995,-0.8008,-0.7995,-0.7988,-0.7988,-0.7988,-0.7988,-0.7988,-0.7988,-0.7988,-0.7988,-0.7988,-0.7988,-0.7939,-0.6734,-0.6129,-0.5827,-0.3419,-0.2213,-0.1913,-0.0656,-0.0101,0.0,0.0,0.0,0.0,0.0,0.0,0.0,0.0,0.0,0.0,0.0,0.0,0.0,0.0,0.0,0.0,0.0,0.0,0.0,0.0,0.0,0.0,0.0,0.0,0.0,0.0,0.0,0.0,0.0,0.0,0.0,0.0,0.0,0.0,0.0,0.0,0.0,0.0,0.0,0.0,0.0,0.0,0.0,0.0,0.0,0.0,0.0,0.0,0.0,0.0,0.0,0.0,0.0,0.0,0.0,0.0,0.0,0.0,0.0,0.0,0.0,0.0,0.0,0.0,0.0,0.0,0.0,0.0,0.0,0.0,0.0,0.0,0.0,0.0,-0.8368,-0.8344,-0.8231,-0.8109,-0.8012,-0.7988,-0.7988,-0.7988,-0.7988,-0.7988,-0.7988,-0.7988,-0.7988,-0.7988,-0.7988,-0.7988,-0.7988,-0.8089,-0.837,-0.8167,-0.8092,-0.8214,-0.8102,-0.7988,-0.7988,-0.7988,-0.7988,-0.7988,-0.7988,-0.7988,-0.7988,-0.7988,-0.7988,-0.7988,-0.7686,-0.6983,-0.5979,-0.5377,-0.392,-0.1962,-0.1661,-0.0958,0.0,0.0,0.0,0.0,0.0,0.0,0.0,0.0,0.0,0.0,0.0,0.0,0.0,0.0,0.0,0.0,0.0,0.0,0.0,0.0,0.0,0.0,0.0,0.0,0.0,0.0,0.0,0.0,0.0,0.0,0.0,0.0,0.0,0.0,0.0,0.0,0.0,0.0,0.0,0.0,0.0,0.0,0.0,0.0,0.0,0.0,0.0,0.0,0.0,0.0,0.0,0.0,0.0,0.0,0.0,0.0,0.0,0.0,0.0,0.0,0.0,0.0,0.0,0.0,0.0,0.0,0.0,0.0,0.0,0.0,0.0,0.0,0.0,0.0,-0.816,-0.816,-0.8136,-0.8005,-0.7988,-0.7988,-0.7988,-0.7988,-0.7988,-0.7988,-0.7988,-0.7988,-0.7988,-0.7988,-0.8019,-0.8143,-0.8032,-0.8163,-0.8462,-0.8272,-0.8214,-0.8367,-0.8228,-0.815,-0.815,-0.8025,-0.7988,-0.7988,-0.7988,-0.7988,-0.7988,-0.7988,-0.7988,-0.7988,-0.7988,-0.7587,-0.6933,-0.6279,-0.5175,-0.382,-0.2515,-0.1561,-0.0907,-0.0252,0.0,0.0,0.0,0.0,0.0,0.0,0.0,0.0,0.0,0.0,0.0,0.0,0.0,0.0,0.0,0.0,0.0,0.0,0.0,0.0,0.0,0.0,0.0,0.0,0.0,0.0,0.0,0.0,0.0,0.0,0.0,0.0,0.0,0.0,0.0,0.0,0.0,0.0,0.0,0.0,0.0,0.0,0.0,0.0,0.0,0.0,0.0,0.0,0.0,0.0,0.0,0.0,0.0,0.0,0.0,0.0,0.0,0.0,0.0,0.0,0.0,0.0,0.0,0.0,0.0,0.0,0.0,0.0,0.0,0.0,0.0,0.0,-0.7988,-0.7988,-0.7988,-0.7988,-0.7988,-0.7988,-0.7988,-0.7988,-0.7988,-0.7988,-0.7988,-0.7988,-0.7988,-0.7988,-0.8102,-0.8306,-0.813,-0.8163,-0.8462,-0.835,-0.8385,-0.8476,-0.8347,-0.8323,-0.8323,-0.8119,-0.7988,-0.7988,-0.7988,-0.7988,-0.7988,-0.7988,-0.7988,-0.7988,-0.7988,-0.7988,-0.7939,-0.6833,-0.6229,-0.5827,-0.3568,-0.2565,-0.2213,-0.0857,-0.0353,-0.0303,-0.0101,0.0,0.0,0.0,0.0,0.0,0.0,0.0,0.0,0.0,0.0,0.0,0.0,0.0,0.0,0.0,0.0,0.0,0.0,0.0,0.0,0.0,0.0,0.0,0.0,0.0,0.0,0.0,0.0,0.0,0.0,0.0,0.0,0.0,0.0,0.0,0.0,0.0,0.0,0.0,0.0,0.0,0.0,0.0,0.0,0.0,0.0,0.0,0.0,0.0,0.0,0.0,0.0,0.0,0.0,0.0,0.0,0.0,0.0,0.0,0.0,0.0,0.0,0.0,0.0,0.0,0.0,0.0,0.0,0.0,-0.7988,-0.7988,-0.7988,-0.7988,-0.7988,-0.7988,-0.7988,-0.7988,-0.7988,-0.7988,-0.7988,-0.7988,-0.7988,-0.7988,-0.8102,-0.8306,-0.813,-0.8163,-0.8462,-0.835,-0.8385,-0.8476,-0.8347,-0.8323,-0.8323,-0.8119,-0.7988,-0.7988,-0.7988,-0.7988,-0.7988,-0.7988,-0.7988,-0.7988,-0.7988,-0.7988,-0.7988,-0.7789,-0.7083,-0.5979,-0.5627,-0.4772,-0.3565,-0.2264,-0.1712,-0.1561,-0.0404,0.0,0.0,0.0,0.0,0.0,0.0,0.0,0.0,0.0,0.0,0.0,0.0,0.0,0.0,0.0,0.0,0.0,0.0,0.0,0.0,0.0,0.0,0.0,0.0,0.0,0.0,0.0,0.0,0.0,0.0,0.0,0.0,0.0,0.0,0.0,0.0,0.0,0.0,0.0,0.0,0.0,0.0,0.0,0.0,0.0,0.0,0.0,0.0,0.0,0.0,0.0,0.0,0.0,0.0,0.0,0.0,0.0,0.0,0.0,0.0,0.0,0.0,0.0,0.0,0.0,0.0,0.0,0.0,0.0,-0.8008,-0.8109,-0.814,-0.8005,-0.7988,-0.7988,-0.7988,-0.7988,-0.7988,-0.7988,-0.7988,-0.7988,-0.7988,-0.7988,-0.8102,-0.8306,-0.813,-0.815,-0.8584,-0.8472,-0.8455,-0.8604,-0.855,-0.8438,-0.8327,-0.8204,-0.8126,-0.7988,-0.7988,-0.7988,-0.7988,-0.7988,-0.7988,-0.7988,-0.7988,-0.7988,-0.7988,-0.7988,-0.7637,-0.7033,-0.6282,-0.5627,-0.497,-0.3616,-0.2665,-0.1812,-0.0504,0.0,0.0,0.0,0.0,0.0,0.0,0.0,0.0,0.0,0.0,0.0,0.0,0.0,0.0,0.0,0.0,0.0,0.0,0.0,0.0,0.0,0.0,0.0,0.0,0.0,0.0,0.0,0.0,0.0,0.0,0.0,0.0,0.0,0.0,0.0,0.0,0.0,0.0,0.0,0.0,0.0,0.0,0.0,0.0,0.0,0.0,0.0,0.0,0.0,0.0,0.0,0.0,0.0,0.0,0.0,0.0,0.0,0.0,0.0,0.0,0.0,0.0,0.0,0.0,0.0,0.0,0.0,0.0,0.0]},{"header":{"parameterUnit":"m.s-1","parameterCategory":1,"la1":30.6,"la2":28.766,"lo1":-90.7593,"lo2":-88.6598,"dy":0.0162,"dx":0.0183,"nx":116,"ny":114,"refTime":"2024-03-12T06:00:00:Z","depth":0,"parameterNumber":3,"parameterNumberName":"V-component_of_WINDS"},"data":[0.0,0.0,0.0,0.0,0.0,0.0,0.0,0.0,0.0,0.0,0.0,0.0,0.0,0.0,0.0,0.0,0.0,0.0,0.0,0.0,0.0,0.0,0.0,0.0,0.0,0.0,0.0,0.0,0.0,0.0,0.0,0.0,0.0,0.0,0.0,0.0,0.0,0.0,0.0,0.0,0.0,0.0,0.0,0.0,0.0,0.0,0.0,0.0,0.0,0.0,0.0,0.0,0.0,0.0,0.0,0.0,0.0,0.0,0.0,0.0,0.0,0.0,0.0,0.0,0.0,0.0,0.0,0.0,0.0,0.0,0.0,0.0,0.0,0.0,0.0,0.0,0.0,0.0,0.0,0.0,0.0,0.0,0.0,0.0,0.0,0.0,0.0,0.0,0.0,0.0,0.0,0.0,0.0,0.0,0.0,0.0,0.0,0.0,0.0,0.0,0.0,0.0,0.0,0.0,0.0,0.0,0.0,0.0,0.0,0.0,0.0,0.0,0.0,0.0,0.0,0.0,0.0,0.0,0.0,0.0,0.0,0.0,0.0,0.0,0.0,0.0,0.0,0.0,0.0,0.0,0.0,0.0,0.0,0.0,0.0,0.0,0.0,0.0,0.0,0.0,0.0,0.0,0.0,0.0,0.0,0.0,0.0,0.0,0.0,0.0,0.0,0.0,0.0,0.0,0.0,0.0,0.0,0.0,0.0,0.0,0.0,0.0,0.0,0.0,0.0,0.0,0.0,0.0,0.0,0.0,0.0,0.0,0.0,0.0,0.0,0.0,0.0,0.0,0.0,0.0,0.0,0.0,0.0,0.0,0.0,0.0,0.0,0.0,0.0,0.0,0.0,0.0,0.0,0.0,0.0,0.0,0.0,0.0,0.0,0.0,0.0,0.0,0.0,0.0,0.0,0.0,0.0,0.0,0.0,0.0,0.0,0.0,0.0,0.0,0.0,0.0,0.0,0.0,0.0,0.0,0.0,0.0,0.0,0.0,0.0,0.0,0.0,0.0,0.0,0.0,0.0,0.0,0.0,0.0,0.0,0.0,0.0,0.0,0.0,0.0,0.0,0.0,0.0,0.0,0.0,0.0,0.0,0.0,0.0,0.0,0.0,0.0,0.0,0.0,0.0,0.0,0.0,0.0,0.0,0.0,0.0,0.0,0.0,0.0,0.0,0.0,0.0,0.0,0.0,0.0,0.0,0.0,0.0,0.0,0.0,0.0,0.0,0.0,0.0,0.0,0.0,0.0,0.0,0.0,0.0,0.0,0.0,0.0,0.0,0.0,0.0,0.0,0.0,0.0,0.0,0.0,0.0,0.0,0.0,0.0,0.0,0.0,0.0,0.0,0.0,0.0,0.0,0.0,0.0,0.0,0.0,0.0,0.0,0.0,0.0,0.0,0.0,0.0,0.0,0.0,0.0,0.0,0.0,0.0,0.0,0.0,0.0,0.0,0.0,0.0,0.0,0.0,0.0,0.0,0.0,0.0,0.0,0.0,0.0,0.0,0.0,0.0,0.0,0.0,0.0,0.0,0.0,0.0,0.0,0.0,0.0,0.0,0.0,0.0,0.0,0.0,0.0,0.0,0.0,0.0,0.0,0.0,0.0,0.0,0.0,0.0,0.0,0.0,0.0,0.0,0.0,0.0,0.0,0.0,0.0,0.0,0.0,0.0,0.0,0.0,0.0,0.0,0.0,0.0,0.0,0.0,0.0,0.0,0.0,0.0,0.0,0.0,0.0,0.0,0.0,0.0,0.0,0.0,0.0,0.0,0.0,0.0,0.0,0.0,0.0,0.0,0.0,0.0,0.0,0.0,0.0,0.0,0.0,0.0,0.0,0.0,0.0,0.0,0.0,0.0,0.0,0.0,0.0,0.0,0.0,0.0,0.0,0.0,0.0,0.0,0.0,0.0,0.0,0.0,0.0,0.0,0.0,0.0,0.0,0.0,0.0,0.0,0.0,0.0,0.0,0.0,0.0,0.0,0.0,0.0,0.0,0.0,0.0,0.0,0.0,0.0,0.0,0.0,0.0,0.0,0.0,0.0,0.0,0.0,0.0,0.0,0.0,0.0,0.0,0.0,0.0,0.0,0.0,0.0,0.0,0.0,0.0,0.0,0.0,0.0,0.0,0.0,0.0,0.0,0.0,0.0,0.0,0.0,0.0,0.0,0.0,0.0,0.0,0.0,0.0,0.0,0.0,0.0,0.0,0.0,0.0,0.0,0.0,0.0,0.0,0.0,0.0,0.0,0.0,0.0,0.0,0.0,0.0,0.0,0.0,0.0,0.0,0.0,0.0,0.0,0.0,0.0,0.0,0.0,0.0,0.0,0.0,0.0,0.0,0.0,0.0,0.0,0.0,0.0,0.0,0.0,0.0,0.0,0.0,0.0,0.0,0.0,0.0,0.0,0.0,0.0,0.0,0.0,0.0,0.0,0.0,0.0,0.0,0.0,0.0,0.0,0.0,0.0,0.0,0.0,0.0,0.0,0.0,0.0,0.0,0.0,0.0,0.0,0.0,0.0,0.0,0.0,0.0,0.0,0.0,0.0,0.0,0.0,0.0,0.0,0.0,0.0,0.0,0.0,0.0,0.0,0.0,0.0,0.0,0.0,0.0,0.0,0.0,0.0,0.0,0.0,0.0,0.0,0.0,0.0,0.0,0.0,0.0,0.0,0.0,0.0,0.0,0.0,0.0,0.0,0.0,0.0,0.0,0.0,0.0,0.0,0.0,0.0,0.0,0.0,0.0,0.0,0.0,0.0,0.0,0.0,0.0,0.0,0.0,0.0,0.0,0.0,0.0,0.0,0.0,0.0,0.0,0.0,0.0,0.0,0.0,0.0,0.0,0.0,0.0,0.0,0.0,0.0,0.0,0.0,0.0,0.0,0.0,0.0,0.0,0.0,0.0,0.0,0.0,0.0,0.0,0.0,0.0,0.0,0.0,0.0,0.0,0.0,0.0,0.0,0.0,0.0,0.0,0.0,0.0,0.0,0.0,0.0,0.0,0.0,0.0,0.0,0.0,0.0,0.0,0.0,0.0,0.0,0.0,0.0,0.0,0.0,0.0,0.0,0.0,0.0,0.0,0.0,0.0,0.0,0.0,0.0,0.0,0.0,0.0,0.0,0.0,0.0,0.0,0.0,0.0,0.0,0.0,0.0,0.0,0.0,0.0,0.0,0.0,0.0,0.0,0.0,0.0,0.0,0.0,0.0,0.0,0.0,0.0,0.0,0.0,0.0,0.0,0.0,0.0,0.0,0.0,0.0,0.0,0.0,0.0,0.0,0.0,0.0,0.0,0.0,0.0,0.0,0.0,0.0,0.0,0.0,0.0,0.0,0.0,0.0,0.0,0.0,0.0,0.0,0.0,0.0,0.0,0.0,0.0,0.0,0.0,0.0,0.0,0.0,0.0,0.0,0.0,0.0,0.0,0.0,0.0,0.0,0.0,0.0,0.0,0.0,0.0,0.0,0.0,0.0,0.0,0.0,0.0,0.0,0.0,0.0,0.0,0.0,0.0,0.0,0.0,0.0,0.0,0.0,0.0,0.0,0.0,0.0,0.0,0.0,0.0,0.0,0.0,0.0,0.0,0.0,0.0,0.0,0.0,0.0,0.0,0.0,0.0,0.0,0.0,0.0,0.0,0.0,0.0,0.0,0.0,0.0,0.0,0.0,0.0,0.0,0.0,0.0,0.0,0.0,0.0,0.0,0.0,0.0,0.0,0.0,0.0,0.0,0.0,0.0,0.0,0.0,0.0,0.0,0.0,0.0,0.0,0.0,0.0,0.0,0.0,0.0,0.0,0.0,0.0,0.0,0.0,0.0,0.0,0.0,0.0,0.0,0.0,0.0,0.0,0.0,0.0,0.0,0.0,0.0,0.0,0.0,0.0,0.0,0.0,0.0,0.0,0.0,0.0,0.0,0.0,0.0,0.0,0.0,0.0,0.0,0.0,0.0,0.0,0.0,0.0,0.0,0.0,0.0,0.0,0.0,0.0,0.0,0.0,0.0,0.0,0.0,0.0,0.0,0.0,0.0,0.0,0.0,0.0,0.0,0.0,0.0,0.0,0.0,0.0,0.0,0.0,0.0,0.0,0.0,0.0,0.0,0.0,0.0,0.0,0.0,0.0,0.0,0.0,0.0,0.0,0.0,0.0,0.0,0.0,0.0,0.0,0.0,0.0,0.0,0.0,0.0,0.0,0.0,0.0,0.0,0.0,0.0,0.0,0.0,0.0,0.0,0.0,0.0,0.0,0.0,0.0,0.0,0.0,0.0,0.0,0.0,0.0,0.0,0.0,0.0,0.0,0.0,0.0,0.0,0.0,0.0,0.0,0.0,0.0,0.0,0.0,0.0,0.0,0.0,0.0,0.0,0.0,0.0,0.0,0.0,0.0,0.0,0.0,0.0,0.0,0.0,0.0,0.0,0.0,0.0,0.0,0.0,0.0,0.0,0.0,0.0,0.0,0.0,0.0,0.0,0.0,0.0,0.0,0.0,0.0,0.0,0.0,0.0,0.0,0.0,0.0,0.0,0.0,0.0,0.0,0.0,0.0,0.0,0.0,0.0,0.0,0.0,0.0,0.0,0.0,0.0,0.0,0.0,0.0,0.0,0.0,0.0,0.0,0.0,0.0,0.0,0.0,0.0,0.0,0.0,0.0,0.0,0.0,0.0,0.0,0.0,0.0,0.0,0.0,0.0,0.0,0.0,0.0,0.0,0.0,0.0,0.0,0.0,0.0,0.0,0.0,0.0,0.0,0.0,0.0,0.0,0.0,0.0,0.0,0.0,0.0,0.0,0.0,0.0,0.0,0.0,0.0,0.0,0.0,0.0,0.0,0.0,0.0,0.0,0.0,0.0,0.0,0.0,0.0,0.0,0.0,0.0,0.0,0.0,0.0,0.0,0.0,0.0,0.0,0.0,0.0,0.0,0.0,0.0,0.0,0.0,0.0,0.0,0.0,0.0,0.0,0.0,0.0,0.0,0.0,0.0,0.0,0.0,0.0,0.0,0.0,0.0,0.0,0.0,0.0,0.0,0.0,0.0,0.0,0.0,0.0,0.0,0.0,0.0,0.0,0.0,0.0,0.0,0.0,0.0,0.0,0.0,0.0,0.0,0.0,0.0,0.0,0.0,0.0,0.0,0.0,0.0,0.0,0.0,0.0,0.0,0.0,0.0,0.0,0.0,0.0,0.0,0.0,0.0,0.0,0.0,0.0,0.0,0.0,0.0,0.0,0.0,0.0,0.0,0.0,0.0,0.0,0.0,0.0,0.0,0.0,0.0,0.0,0.0,0.0,0.0,0.0,0.0,0.0,0.0,0.0,0.0,0.0,0.0,0.0,0.0,0.0,0.0,0.0,0.0,0.0,0.0,0.0,0.0,0.0,0.0,0.0,0.0,0.0,0.0,0.0,0.0,0.0,0.0,0.0,0.0,0.0,0.0,0.0,0.0,0.0,0.0,0.0,0.0,0.0,0.0,0.0,0.0,0.0,0.0,0.0,0.0,0.0,0.0,0.0,0.0,0.0,0.0,0.0,0.0,0.0,0.0,0.0,0.0,0.0,0.0,0.0,0.0,0.0,0.0,0.0,0.0,0.0,0.0,0.0,0.0,0.0,0.0,0.0,0.0,0.0,0.0,0.0,0.0,0.0,0.0,0.0,0.0,0.0,0.0,0.0,0.0,0.0,0.0,0.0,0.0,0.0,0.0,0.0,0.0,0.0,0.0,0.0,0.0,0.0,0.0,0.0,0.0,0.0,0.0,0.0,0.0,0.0,0.0,0.0,0.0,0.0,0.0,0.0,0.0,0.0,0.0,0.0,0.0,0.0,0.0,0.0,0.0,0.0,0.0,0.0,0.0,0.0,0.0,0.0,0.0,0.0,0.0,0.0,0.0,0.0,0.0,0.0,0.0,0.0,0.0,0.0,0.0,0.0,0.0,0.0,0.0,0.0,0.0,0.0,0.0,0.0,0.0,0.0,0.0,0.0,0.0,0.0,0.0,0.0,0.0,0.0,0.0,0.0,0.0,0.0,0.0,0.0,0.0,0.0,0.0,0.0,0.0,0.0,0.0,0.0,0.0,0.0,0.0,0.0,0.0,0.0,0.0,1.6549,0.0,0.0,0.0,0.0,0.0,0.0,0.0,0.0,0.0,0.0,0.0,0.0,0.0,0.0,0.0,0.0,0.0,0.0,0.0,0.0,0.0,0.0,0.0,0.0,0.0,0.0,0.0,1.32,1.3742,1.4629,1.4983,1.5577,1.6457,1.65,1.6616,1.6879,1.6879,1.6854,1.6802,1.6515,1.62,1.5849,1.4358,1.3161,1.2248,0.0,0.0,0.0,0.0,0.0,0.0,0.0,0.0,0.0,0.0,0.0,0.0,0.0,0.0,0.0,0.0,0.0,0.0,0.0,0.0,0.0,0.0,0.0,0.0,0.0,0.0,0.0,0.0,0.0,0.0,0.0,0.0,0.0,0.0,0.0,0.0,0.0,0.0,0.0,0.0,0.0,0.0,0.0,0.0,0.0,0.0,0.0,0.0,0.0,0.0,0.0,0.0,0.0,0.0,0.0,0.0,0.0,0.0,0.0,0.0,0.0,0.0,0.0,0.0,0.0,0.0,0.0,0.0,0.0,0.0,0.0,1.6777,0.0,0.0,0.0,0.0,0.0,0.0,0.0,0.0,0.0,0.0,0.0,0.0,0.0,0.0,0.0,0.0,0.0,0.0,0.0,0.0,0.0,0.0,0.0,1.2968,1.2954,1.3041,1.3065,1.3563,1.4766,1.4858,1.5399,1.6595,1.6637,1.69,1.7422,1.7442,1.7706,1.8216,1.7891,1.7377,1.6723,1.5816,1.4699,0.0,0.0,0.0,0.0,0.0,0.0,0.0,0.0,0.0,0.0,0.0,0.0,0.0,0.0,0.0,0.0,0.0,0.0,0.0,0.0,0.0,0.0,0.0,0.0,0.0,0.0,0.0,0.0,0.0,0.0,0.0,0.0,0.0,0.0,0.0,0.0,0.0,0.0,0.0,0.0,0.0,0.0,0.0,0.0,0.0,0.0,0.0,0.0,0.0,0.0,0.0,0.0,0.0,0.0,0.0,0.0,0.0,0.0,0.0,0.0,0.0,0.0,0.0,0.0,0.0,2.3439,2.3572,2.3391,2.2851,2.262,2.2482,1.9669,1.8531,1.8607,1.8545,0.0,0.0,0.0,0.0,0.0,0.0,0.0,0.0,0.0,0.0,0.0,0.0,0.0,0.0,0.0,0.0,0.0,0.0,0.0,0.0,0.0,1.3214,1.3104,1.3647,1.3684,1.4179,1.541,1.5477,1.5993,1.7146,1.7188,1.7442,1.7987,1.7987,1.8221,1.8698,1.9445,1.9358,1.8465,1.8772,1.7842,1.5801,0.0,0.0,0.0,0.0,0.0,0.0,0.0,0.0,0.0,0.0,0.0,0.0,0.0,0.0,0.0,0.0,0.0,0.0,0.0,0.0,0.0,0.0,0.0,0.0,0.0,0.0,0.0,0.0,0.0,0.0,0.0,0.0,0.0,0.0,0.0,0.0,0.0,0.0,0.0,0.0,0.0,0.0,0.0,0.0,1.9674,1.9155,0.0,0.0,0.0,0.0,0.0,0.0,0.0,0.0,0.0,0.0,0.0,0.0,0.0,2.4062,2.4557,2.5648,2.5851,2.5185,2.5932,2.5581,2.4257,2.4504,2.4247,2.3621,2.3506,0.0,2.109,2.043,0.0,0.0,0.0,0.0,0.0,0.0,0.0,0.0,0.0,0.0,0.0,0.0,0.0,0.0,0.0,0.0,0.0,0.0,0.0,0.0,0.0,1.4061,1.4025,1.4283,1.4596,1.5117,1.5981,1.6323,1.6873,1.7706,1.7747,1.8118,1.8929,1.8948,1.9302,2.0032,2.0437,2.0453,2.0032,1.998,1.9316,1.8099,1.6057,1.4091,1.2308,1.2352,0.0,0.0,0.0,0.0,0.0,0.0,0.0,0.0,0.0,0.0,0.0,0.0,0.0,0.0,0.0,0.0,0.0,0.0,0.0,0.0,0.0,0.0,0.0,0.0,0.0,0.0,0.0,0.0,0.0,0.0,0.0,0.0,0.0,0.0,0.0,0.0,0.0,0.0,0.0,2.0621,2.074,2.0921,2.0666,2.0784,0.0,0.0,0.0,0.0,0.0,0.0,0.0,0.0,0.0,2.6329,2.678,2.7104,2.7292,2.8021,2.7879,2.6894,2.7437,2.7228,2.6353,2.6121,2.6036,2.6096,2.5845,2.553,2.4995,2.3375,2.3144,2.3781,0.0,0.0,0.0,0.0,2.203,2.1604,0.0,0.0,0.0,0.0,0.0,0.0,0.0,0.0,0.0,0.0,0.0,0.0,1.5317,1.5295,1.5283,1.533,1.5714,1.623,1.6972,1.739,1.7911,1.8612,1.865,1.9049,1.9939,2.0135,2.0716,2.1719,2.1737,2.1788,2.1841,2.1149,2.0537,1.9977,1.879,1.6566,1.3708,1.3543,1.3018,0.0,0.0,0.0,0.0,0.0,0.0,0.0,0.0,0.0,0.0,0.0,0.0,0.0,0.0,0.0,0.0,0.0,0.0,0.0,0.0,0.0,0.0,0.0,0.0,0.0,0.0,0.0,0.0,0.0,0.0,0.0,0.0,0.0,0.0,0.0,0.0,0.0,0.0,2.2366,2.274,2.2856,2.3068,2.3403,0.0,0.0,0.0,0.0,0.0,0.0,2.7944,2.8294,2.8788,2.942,2.9588,2.9748,2.9885,2.9657,2.9243,2.8599,2.8562,2.835,2.7931,2.761,2.7684,2.8036,2.77,2.7862,2.8201,2.5943,2.5121,2.5273,2.5131,2.4802,2.4379,2.4188,2.3868,2.3422,0.0,0.0,0.0,0.0,0.0,0.0,0.0,0.0,0.0,0.0,0.0,1.7496,1.7111,1.6905,1.6866,1.7049,1.7096,1.7558,1.8608,1.8702,1.9134,2.0054,2.0088,2.0355,2.0926,2.1621,2.2527,2.3665,2.3718,2.393,2.4199,2.3085,2.2102,2.1157,2.0025,1.8273,1.6173,1.5614,1.4722,1.3697,0.0,0.0,0.0,0.0,0.0,0.0,0.0,0.0,0.0,0.0,0.0,0.0,0.0,0.0,0.0,0.0,0.0,0.0,0.0,0.0,0.0,0.0,0.0,0.0,0.0,0.0,0.0,0.0,0.0,0.0,0.0,0.0,0.0,0.0,0.0,0.0,0.0,0.0,0.0,2.4357,2.6341,0.0,0.0,0.0,0.0,2.8291,2.9203,3.014,3.1041,3.1329,3.1647,3.1996,3.1299,3.1261,3.2034,3.0297,2.9762,3.0453,2.9443,2.8669,2.8116,2.8905,2.8979,2.8502,2.9229,2.9577,2.9448,2.7501,2.7087,2.7667,2.7156,2.7372,2.7869,2.7156,2.6527,2.5886,0.0,0.0,0.0,0.0,0.0,0.0,0.0,0.0,1.8939,1.8939,1.8866,1.8778,1.8621,1.8544,1.8549,1.8621,1.8928,1.9289,1.969,2.0016,2.0573,2.14,2.1416,2.1989,2.3162,2.3436,2.4033,2.4957,2.4984,2.5059,2.5162,2.4546,2.3904,2.324,2.2102,2.0827,1.9391,1.7063,1.5616,1.4858,1.4515,1.4143,0.0,0.0,0.0,0.0,0.0,0.0,0.0,0.0,0.0,0.0,0.0,0.0,0.0,0.0,0.0,0.0,0.0,0.0,0.0,0.0,0.0,0.0,0.0,0.0,0.0,0.0,0.0,0.0,0.0,0.0,0.0,0.0,0.0,0.0,0.0,0.0,0.0,2.8588,2.9708,0.0,3.0621,3.1257,3.2019,3.2878,3.3445,3.3902,3.4244,3.3872,3.3691,3.3808,3.3534,3.3242,3.2968,3.2297,3.1863,3.1609,3.0733,3.0179,2.9954,2.9701,2.9474,2.9288,2.9573,2.9705,2.9641,2.8947,2.882,2.9032,2.8859,2.8265,2.7595,2.7885,2.7177,2.6109,0.0,0.0,0.0,0.0,0.0,0.0,0.0,0.0,1.9974,2.0096,2.0231,2.0283,2.0251,2.0383,2.0366,2.0131,2.0443,2.0702,2.0831,2.1295,2.1839,2.2435,2.273,2.341,2.4535,2.484,2.5428,2.6351,2.621,2.6272,2.654,2.5953,2.5523,2.5158,2.399,2.3055,2.2176,1.9689,1.7854,1.6584,1.6317,1.5856,1.5347,0.0,0.0,0.0,0.0,0.0,0.0,0.0,0.0,0.0,0.0,0.0,0.0,0.0,0.0,0.0,0.0,0.0,0.0,0.0,0.0,0.0,0.0,0.0,0.0,0.0,0.0,0.0,0.0,0.0,0.0,0.0,0.0,0.0,0.0,0.0,3.2071,3.2222,3.3129,3.3918,3.4343,3.4723,3.5245,3.5946,3.6293,3.6472,3.6472,3.6046,3.5684,3.5371,3.5105,3.4696,3.4105,3.3456,3.2993,3.2717,3.1833,3.1455,3.1524,3.0939,3.0707,3.076,3.0486,3.0372,3.0353,3.006,2.9946,2.9939,2.9848,2.9123,2.8203,2.8779,2.8169,2.7093,0.0,0.0,0.0,0.0,0.0,0.0,0.0,2.1039,2.1165,2.1513,2.1893,2.2084,2.1969,2.2353,2.2352,2.163,2.1556,2.172,2.2141,2.2512,2.2888,2.3271,2.4064,2.4665,2.5025,2.5783,2.6741,2.7857,2.7483,2.7687,2.8415,2.7371,2.6872,2.6805,2.5598,2.4835,2.4396,2.349,2.1525,1.9042,1.9206,1.8905,1.8305,0.0,0.0,0.0,0.0,0.0,0.0,0.0,0.0,0.0,0.0,0.0,0.0,0.0,0.0,0.0,0.0,0.0,0.0,0.0,0.0,0.0,0.0,0.0,0.0,0.0,0.0,0.0,0.0,0.0,0.0,0.0,0.0,0.0,3.1628,3.3112,3.4513,3.5019,3.6652,3.7486,3.6895,3.7144,3.7327,3.7337,3.7538,3.7639,3.7639,3.787,3.7603,3.6769,3.5981,3.5577,3.5577,3.3673,3.3123,3.3875,3.2772,3.2393,3.2646,3.2627,3.2723,3.2852,3.2083,3.1737,3.1679,3.0808,3.0442,3.0405,3.0122,2.9994,2.9975,2.9994,2.9634,2.903,0.0,0.0,0.0,0.0,0.0,0.0,0.0,2.204,2.2357,2.2694,2.2958,2.3047,2.286,2.31,2.3105,2.2753,2.2732,2.3027,2.3718,2.3336,2.3684,2.5104,2.6297,2.7255,2.7917,2.7876,2.8278,2.9177,2.9506,2.9477,2.9123,2.8916,2.8519,2.7905,2.6797,2.6239,2.6097,2.5448,2.4717,2.3852,2.177,2.0585,1.9977,0.0,0.0,0.0,0.0,0.0,0.0,0.0,0.0,0.0,0.0,0.0,0.0,0.0,0.0,0.0,0.0,0.0,0.0,0.0,0.0,0.0,0.0,0.0,0.0,0.0,0.0,0.0,0.0,0.0,0.0,0.0,3.3117,3.4462,3.5868,3.6739,3.7735,3.9081,3.9681,4.0007,4.0024,4.0115,4.0272,4.0525,3.9482,3.8842,3.8842,3.8312,3.7892,3.7642,3.743,3.7315,3.7315,3.6157,3.5686,3.5878,3.4376,3.3686,3.3735,3.3114,3.2852,3.2891,3.2679,3.2564,3.2506,3.1679,3.1346,3.1269,3.0567,2.9896,2.9422,3.0068,3.0195,2.9929,0.0,0.0,0.0,0.0,0.0,0.0,0.0,2.274,2.3165,2.3487,2.3717,2.3829,2.3881,2.3892,2.3814,2.357,2.3768,2.3968,2.4093,2.4191,0.0,0.0,0.0,2.8361,2.8839,2.9312,2.9777,3.0251,3.0941,3.1023,3.0573,3.0654,3.0441,2.995,2.8998,2.8481,2.8252,2.7507,2.708,2.6757,2.496,2.3688,2.2743,2.1931,2.1493,2.1217,2.0384,2.0141,2.0171,1.989,0.0,0.0,0.0,0.0,0.0,0.0,0.0,0.0,0.0,0.0,0.0,0.0,0.0,0.0,0.0,0.0,0.0,0.0,0.0,0.0,0.0,0.0,0.0,0.0,3.5991,3.7545,4.0222,3.9718,3.9901,4.207,4.2023,4.2028,4.2517,4.2259,4.2141,4.2327,4.1104,4.0354,4.0354,3.9527,3.8892,3.8565,3.8546,3.8373,3.8007,3.7507,3.7238,3.7238,3.6257,3.5603,3.5238,3.4718,3.4314,3.3968,3.3603,3.3237,3.284,3.2058,3.1507,0.0,0.0,0.0,0.0,0.0,3.0404,3.0327,0.0,0.0,0.0,0.0,0.0,0.0,0.0,2.321,2.3678,2.4026,2.4258,2.4489,2.4773,2.4651,2.4422,2.4081,2.4624,2.4741,2.4088,2.5384,0.0,2.7942,2.8554,2.8858,2.8858,3.0402,3.1216,3.1216,3.2002,3.2334,3.2239,3.2306,3.2297,3.2165,3.1448,3.0932,3.0538,2.9595,2.8934,2.8517,2.842,2.7439,2.5909,2.4783,2.4533,2.4664,2.355,2.3223,2.325,2.2666,0.0,0.0,0.0,0.0,0.0,0.0,0.0,0.0,0.0,0.0,0.0,0.0,0.0,0.0,0.0,0.0,0.0,0.0,0.0,0.0,0.0,0.0,0.0,0.0,3.9746,4.1226,4.3925,4.2151,4.1503,4.3991,4.3662,4.3528,4.422,4.3643,4.3239,4.3239,4.2431,4.1942,4.1942,0.0,0.0,0.0,0.0,3.9161,3.8296,3.818,3.8142,3.8142,3.8046,3.7584,3.6846,3.6731,3.6322,3.5611,3.4732,3.3917,3.3151,3.2411,3.1502,3.0552,3.0458,3.0421,3.0404,3.0402,3.0421,3.0404,0.0,0.0,0.0,0.0,0.0,0.0,0.0,2.3555,2.4036,2.4436,2.4702,2.4848,2.4797,2.4848,2.4776,2.4432,2.5097,2.5745,2.6247,0.0,2.9004,2.8646,3.0207,3.1072,3.1072,3.2031,3.253,3.253,3.3172,3.3149,3.2537,3.2976,3.2817,3.2184,3.2052,3.193,3.1845,3.1629,3.111,3.0508,3.1115,2.9819,2.7427,2.6752,2.6545,2.652,2.6033,2.5631,2.5352,2.5373,2.4424,2.3218,2.3088,0.0,0.0,0.0,0.0,0.0,0.0,0.0,0.0,0.0,0.0,0.0,0.0,0.0,0.0,0.0,0.0,0.0,0.0,0.0,0.0,3.9593,4.0809,4.214,4.4028,4.3829,4.3677,4.4239,4.4162,4.4124,4.4278,4.4162,4.4066,4.4066,4.3316,4.2854,4.2854,4.2681,4.22,4.1335,4.1316,4.0893,4.0035,3.9381,3.9053,3.9034,0.0,0.0,3.7719,3.7019,3.6678,3.6568,3.5704,3.5267,3.5108,3.4298,3.3031,3.1529,3.0778,3.0456,3.0421,3.0462,3.0451,3.0404,0.0,0.0,0.0,0.0,0.0,0.0,0.0,2.3881,2.4474,2.4673,2.4949,2.5113,2.505,2.4961,2.483,2.467,2.5298,2.6313,0.0,2.8814,2.9657,3.0228,3.1181,3.1891,3.2295,3.3122,3.3545,3.3545,3.4295,3.445,3.4055,3.4331,3.4251,3.3885,3.3444,3.3288,3.3326,3.2788,3.2326,3.1974,3.2235,3.1495,3.0143,2.9613,2.8981,2.8413,2.8555,2.8492,2.8295,2.7929,2.7173,2.6243,2.5648,2.5069,2.4414,0.0,0.0,0.0,0.0,0.0,0.0,0.0,0.0,0.0,0.0,0.0,0.0,0.0,0.0,3.5742,3.7184,0.0,3.9796,4.2079,4.2851,4.3612,4.4918,4.5105,4.5092,4.5051,4.4988,4.4983,4.5028,4.5044,4.5017,4.4968,4.4307,4.3873,4.3796,4.3453,4.2846,4.1987,4.1949,4.1536,4.0665,4.0239,4.0029,3.9998,3.9584,3.9158,3.8679,3.7868,3.7298,3.6893,3.6034,3.5446,3.5029,3.4198,3.3365,3.2511,3.1576,3.0888,3.0442,3.0462,3.0433,3.0404,0.0,0.0,0.0,0.0,0.0,0.0,0.0,2.3941,2.4644,2.4663,2.4987,2.5203,2.521,2.4949,2.4853,2.5016,2.5667,0.0,0.0,2.9015,2.992,3.167,3.1907,3.237,3.3186,3.4054,3.4498,3.4498,3.518,3.5547,3.5547,3.5547,3.5574,3.5592,3.4894,3.4621,3.4675,3.3814,3.3358,3.3214,3.3141,3.2926,3.2618,3.2341,3.1305,3.002,3.0478,3.0667,3.0597,2.9953,2.9513,2.909,2.8056,2.7487,2.6909,2.5595,2.5999,0.0,0.0,0.0,0.0,0.0,0.0,0.0,0.0,0.0,3.5019,3.6597,3.7364,3.8474,4.0801,4.1267,4.2112,4.4534,4.4986,4.5298,4.6046,4.6292,4.6382,4.6377,4.5942,4.5711,4.5815,4.5828,4.577,4.5677,4.5221,4.489,4.4773,4.4205,4.3498,4.2638,4.2619,4.2109,4.1054,4.1054,4.095,4.0724,4.0775,4.0405,3.9635,3.8723,3.7916,3.7215,3.6195,3.5385,3.4728,3.3853,3.3522,3.3464,3.2511,3.1665,3.095,3.0551,3.0408,3.0404,0.0,0.0,0.0,0.0,0.0,0.0,0.0,0.0,2.4099,2.4176,2.4573,2.4865,2.4858,2.4827,2.5091,2.5804,0.0,0.0,2.8818,2.9781,3.0772,3.1825,3.2622,3.3439,3.4302,3.5115,3.5539,3.5539,3.5636,3.5671,3.5671,3.5671,3.5678,3.5689,3.5592,3.5541,3.5571,3.5444,3.4977,3.4377,3.5063,3.4441,3.32,3.3911,3.2833,3.0939,3.0875,3.0609,3.0337,3.077,3.0763,3.0522,3.0161,3.0119,2.9917,2.8475,0.0,2.8052,2.7042,2.9372,3.264,3.4963,3.6739,3.8448,0.0,0.0,4.0665,4.0838,4.1795,4.2721,4.3034,4.3726,4.4573,4.5607,4.64,4.6925,4.7036,4.7722,4.8242,4.8368,4.689,4.5867,4.59,4.59,4.5876,4.5881,4.5808,4.5758,4.5745,4.5661,4.5242,4.4428,4.4409,4.3611,4.1976,4.1957,4.1556,4.0781,4.0793,4.0754,4.0587,3.9023,3.8273,3.8157,3.6632,3.5916,3.576,3.4881,3.4503,3.4355,3.3421,3.2916,3.2532,3.1042,3.0442,3.0404,0.0,0.0,0.0,0.0,0.0,0.0,0.0,0.0,0.0,2.3708,2.4185,2.4512,2.4512,2.4688,2.4972,2.5391,0.0,0.0,2.8314,2.9742,3.1193,3.2593,3.3492,3.4348,3.5185,3.6021,3.6216,3.5707,3.6216,3.6197,3.5707,3.5707,3.5697,3.5699,3.5699,3.5698,3.5739,3.6244,3.597,3.5268,3.6127,3.578,3.4706,3.4011,3.3148,3.2164,3.0938,3.0318,0.0,0.0,3.0228,3.029,3.0679,3.0282,2.9451,2.8393,2.8393,0.0,3.0485,3.3175,3.5906,0.0,3.9278,4.1111,4.1728,4.1879,4.2172,4.315,4.3782,4.4316,4.4874,4.5207,4.5554,0.0,4.6367,4.6591,4.6665,4.6981,4.7243,4.7296,4.6984,4.6765,4.6768,4.6232,4.5899,4.5899,4.6042,4.6108,4.6027,4.6084,4.5751,4.4894,4.4385,4.3526,4.2297,4.1809,4.1345,4.0917,4.0994,4.0992,4.0858,3.9218,3.7931,3.6965,3.6288,3.5996,3.5976,3.5605,3.5424,3.5252,3.4319,3.3876,3.3601,3.2364,3.1578,3.1212,0.0,0.0,0.0,0.0,0.0,0.0,0.0,0.0,0.0,0.0,2.3711,2.418,2.4346,2.4629,2.4857,0.0,0.0,0.0,0.0,2.9284,3.1038,3.2789,3.3916,3.4997,3.6049,3.6911,3.7049,3.6423,3.7049,3.7049,3.6423,3.6423,3.6423,3.6412,3.6179,3.6052,3.6073,3.6475,3.6284,3.5762,3.6397,3.6331,3.5692,3.3882,3.3052,3.259,3.0632,2.9997,0.0,0.0,2.9392,2.9906,3.0245,2.977,2.8977,2.844,2.8863,3.0082,3.2851,0.0,0.0,3.9169,4.1381,4.3175,4.292,4.3034,4.3565,4.4821,4.5115,4.5337,4.5987,4.6027,4.6001,4.6152,4.6308,4.6431,4.6527,4.6764,4.69,4.69,4.7148,4.7333,4.7396,4.6745,4.6325,4.6372,4.6334,4.6268,4.615,4.6247,4.6016,4.5371,4.4746,4.4004,4.3125,4.2539,4.1951,4.1385,4.1482,4.1365,4.0996,3.9353,3.7773,3.6348,3.6094,3.5996,3.5996,3.5996,3.5951,3.582,3.5159,3.48,3.4574,3.3892,3.2954,3.2102,0.0,0.0,0.0,0.0,0.0,0.0,0.0,0.0,0.0,0.0,0.0,0.0,0.0,0.0,0.0,0.0,0.0,0.0,0.0,2.8433,3.0154,3.196,3.3626,3.5266,3.692,3.7805,3.8249,3.8229,3.8249,3.8249,3.8229,3.8229,3.8225,3.8183,3.7338,3.6968,3.6906,3.6093,3.5723,3.5707,3.5723,3.5791,3.5692,3.3882,3.2682,3.1707,2.987,0.0,0.0,0.0,2.8641,2.9817,2.8803,2.8988,0.0,2.9551,3.0217,0.0,0.0,0.0,3.8402,4.0961,4.3122,4.4848,4.5607,4.5878,4.5989,4.6048,4.6161,4.6228,4.6119,4.6108,4.6047,4.5928,4.6612,4.7162,4.7166,4.791,4.844,4.844,4.7642,4.7192,0.0,4.7372,4.7412,4.7539,4.6777,4.6308,4.6289,4.6308,4.6289,4.6269,4.623,4.5801,4.4922,4.4902,4.4023,4.2363,4.2363,4.1953,4.1133,3.9394,3.8105,3.7207,3.6367,3.5996,3.5996,3.5996,3.5951,3.5901,3.5861,3.5743,3.5553,3.5528,3.4397,3.2872,0.0,0.0,0.0,0.0,0.0,0.0,0.0,0.0,0.0,0.0,0.0,0.0,0.0,0.0,0.0,0.0,0.0,0.0,0.0,2.8454,2.9934,3.1096,3.3309,3.5006,3.6112,3.7564,3.8296,3.8307,3.8875,3.8875,3.8307,3.8307,3.8255,3.8117,3.7127,3.662,3.65,3.6029,3.5622,3.5295,3.5295,3.5169,3.4714,3.2324,3.1619,3.1501,0.0,0.0,0.0,0.0,2.7426,2.8367,2.8442,2.864,0.0,2.892,3.0484,3.2692,3.5025,0.0,4.1159,4.3282,4.4741,4.5718,4.6087,4.62,4.6226,4.6226,4.5819,4.5408,4.5322,4.5271,4.5209,4.5126,4.5806,4.6331,4.6331,4.6584,4.6764,4.6764,4.6929,0.0,0.0,0.0,0.0,4.6598,4.6329,4.6173,4.6173,4.6247,4.6308,4.6308,4.5742,4.5293,4.5,4.4433,4.3555,4.2383,4.1855,4.1152,4.0293,3.9121,3.8125,3.7246,3.6387,3.5996,3.5996,3.5996,3.5951,3.5901,3.5901,3.5797,3.5675,3.5675,3.5286,3.4757,0.0,0.0,0.0,0.0,0.0,0.0,0.0,0.0,0.0,0.0,0.0,0.0,0.0,0.0,0.0,0.0,0.0,0.0,0.0,0.0,2.9024,3.0124,3.1949,3.3572,3.4991,3.6144,3.6875,3.7163,3.8015,3.8125,3.7591,3.7809,3.7867,3.7735,3.673,3.6237,3.6103,3.5323,3.469,3.4151,3.3883,3.368,3.3317,3.1266,3.0867,0.0,0.0,0.0,0.0,2.6109,2.6638,2.7657,2.778,2.8258,2.8823,2.9172,3.1248,3.3925,3.6258,3.9218,4.2124,4.3978,4.5019,4.5703,4.6129,4.6225,4.6247,4.6289,4.5585,4.4949,4.4843,4.4744,4.4569,4.4192,4.481,4.5328,4.5328,4.5328,4.5444,4.5755,4.6215,4.6543,0.0,0.0,0.0,4.6531,4.6284,4.6117,4.6173,4.6248,4.6308,4.6308,4.5762,4.5469,4.5469,4.4902,4.4043,4.2851,4.1738,4.0918,4.0312,3.9141,3.8281,3.7695,3.6504,3.5996,3.5996,3.5996,3.5974,3.5942,3.5942,3.588,3.5766,3.5766,3.5766,3.5758,0.0,0.0,0.0,0.0,0.0,0.0,0.0,0.0,0.0,0.0,0.0,0.0,0.0,0.0,0.0,0.0,0.0,0.0,0.0,0.0,0.0,2.901,2.969,3.1166,3.3578,3.3735,3.4174,3.4983,3.5749,3.6141,3.6218,3.6786,3.7045,3.6997,3.6115,3.5698,3.5565,3.3912,3.2889,3.2328,3.1622,3.1493,3.1642,3.0756,0.0,0.0,0.0,0.0,0.0,0.0,0.0,0.0,0.0,2.8034,2.9562,3.0401,3.2515,3.4968,3.6768,3.9041,4.1323,4.3146,4.4121,4.4865,4.576,4.597,4.5987,4.6073,4.5381,4.4709,0.0,0.0,4.4136,4.3261,4.3816,4.4374,4.4432,4.4393,4.4682,0.0,0.0,0.0,0.0,0.0,0.0,4.7253,0.0,4.6168,4.6289,4.6308,4.6308,4.6308,4.6269,4.623,4.623,4.6133,4.5273,4.3613,4.1973,4.1191,4.1133,3.9394,3.8594,3.8496,3.6758,3.5996,3.5996,3.5996,3.5996,3.5996,3.5996,3.5951,3.5905,3.5905,3.5905,3.59,0.0,0.0,0.0,0.0,0.0,0.0,0.0,0.0,0.0,0.0,0.0,0.0,0.0,0.0,0.0,0.0,0.0,0.0,0.0,0.0,0.0,0.0,0.0,0.0,0.0,0.0,0.0,0.0,0.0,3.4112,3.4745,3.4886,3.496,3.4914,3.3849,3.3033,3.2389,3.1109,3.0614,3.0688,0.0,3.0581,3.0799,0.0,0.0,0.0,0.0,0.0,0.0,0.0,0.0,0.0,0.0,3.121,3.2178,3.2491,3.396,3.5858,3.7611,3.9474,4.1304,4.3017,4.3596,4.3779,4.4039,4.4167,4.4036,4.3319,4.3057,4.2705,0.0,0.0,0.0,4.3156,4.4316,0.0,4.6144,4.5682,0.0,4.6471,0.0,4.564,4.5783,4.5803,0.0,0.0,4.6225,4.6115,4.6147,4.6247,4.6308,4.6308,4.5664,4.5332,4.5332,4.4043,4.3164,4.2715,4.1699,4.1191,4.1133,3.9394,3.8594,3.8496,3.6758,3.5996,3.5996,3.5996,3.5996,3.5996,3.5996,3.5996,3.5974,3.5974,3.5974,3.5974,0.0,0.0,0.0,0.0,0.0,0.0,0.0,0.0,0.0,0.0,0.0,0.0,0.0,0.0,0.0,0.0,0.0,0.0,0.0,0.0,0.0,0.0,0.0,0.0,0.0,0.0,0.0,0.0,0.0,0.0,0.0,3.2023,3.2183,3.2158,3.1519,3.097,3.0497,0.0,0.0,0.0,0.0,0.0,0.0,0.0,0.0,0.0,0.0,0.0,0.0,0.0,0.0,3.0524,3.196,3.2775,3.3276,3.3693,0.0,3.6138,3.7422,3.8737,4.0032,4.1329,4.1616,4.162,4.1699,4.2042,4.2085,4.1229,4.1395,0.0,0.0,0.0,0.0,0.0,0.0,0.0,4.5777,4.5426,4.5457,0.0,4.6033,0.0,4.5842,4.5906,4.5971,0.0,4.6108,4.6138,4.6177,4.6268,4.6113,4.5742,4.5254,4.4824,4.4433,4.3086,4.2402,4.2383,4.1582,4.1191,4.1133,3.9394,3.8594,3.8496,0.0,3.5996,3.5996,3.5996,3.5996,3.5996,3.5996,3.5996,3.5996,3.5996,3.5996,3.5996,0.0,0.0,0.0,0.0,0.0,0.0,0.0,0.0,0.0,0.0,0.0,0.0,0.0,0.0,0.0,0.0,0.0,0.0,0.0,0.0,0.0,0.0,0.0,0.0,0.0,0.0,0.0,0.0,0.0,0.0,0.0,0.0,0.0,0.0,0.0,0.0,0.0,0.0,0.0,0.0,0.0,0.0,0.0,0.0,0.0,0.0,0.0,0.0,0.0,0.0,3.1602,3.1305,3.2891,3.3516,3.3789,3.4492,3.526,3.6038,3.6781,3.7491,3.8208,3.9021,3.9174,3.9154,3.9203,3.9814,4.014,3.9321,0.0,4.0528,4.0392,4.167,4.2555,4.2096,0.0,4.4353,4.4789,4.4749,4.5035,4.5963,4.5977,4.5907,4.592,4.6036,4.6113,4.6138,4.614,4.6175,4.6289,4.6308,4.5859,4.4863,4.4726,4.4238,4.3379,4.2617,4.2246,4.2226,4.1523,4.1191,4.1133,3.9512,3.8711,3.8516,3.6875,3.6113,3.5996,3.5996,3.5996,3.5996,3.5996,3.5996,3.5996,3.5996,3.5996,3.5996,0.0,0.0,0.0,0.0,0.0,0.0,0.0,0.0,0.0,0.0,2.23,2.2945,0.0,0.0,0.0,0.0,0.0,0.0,0.0,0.0,0.0,0.0,0.0,0.0,0.0,0.0,0.0,0.0,0.0,0.0,0.0,0.0,0.0,0.0,0.0,0.0,0.0,0.0,0.0,0.0,0.0,0.0,0.0,0.0,0.0,0.0,0.0,0.0,0.0,0.0,3.3344,3.3861,3.4246,3.4867,3.5482,3.5682,3.5736,3.5918,3.677,3.6982,3.7171,3.8019,3.828,3.8117,3.7364,3.799,0.0,0.0,0.0,3.8528,3.7817,3.9034,4.0571,4.1868,0.0,0.0,0.0,0.0,4.5973,0.0,0.0,0.0,0.0,0.0,0.0,0.0,4.6268,4.6288,4.6308,4.6308,4.5566,4.3984,4.3223,4.2461,4.1641,4.1484,4.1406,4.1406,4.1269,4.1191,4.1172,4.0137,3.9277,3.8535,3.7519,0.0,3.5996,3.5996,3.5996,3.5996,3.5996,3.5996,3.5996,3.5996,3.5996,3.5996,0.0,0.0,0.0,0.0,0.0,0.0,0.0,2.0297,2.055,2.1197,2.172,2.2396,2.3328,2.3832,2.4192,0.0,0.0,0.0,0.0,0.0,0.0,0.0,0.0,0.0,0.0,0.0,0.0,0.0,0.0,0.0,0.0,0.0,0.0,0.0,0.0,0.0,0.0,0.0,0.0,0.0,0.0,0.0,0.0,0.0,0.0,0.0,0.0,0.0,0.0,0.0,3.3484,3.3906,3.4433,3.486,3.5087,3.4661,3.4458,3.4419,3.4773,3.4799,3.4814,3.5238,3.5397,3.5238,3.4389,0.0,0.0,0.0,3.6179,3.7598,3.7186,0.0,0.0,0.0,0.0,0.0,0.0,0.0,0.0,0.0,0.0,0.0,0.0,0.0,0.0,0.0,4.5879,4.582,4.6289,4.5449,4.4355,4.3066,4.2207,4.1582,4.1191,4.1191,4.1191,4.1191,4.1191,4.1191,4.1172,4.0293,3.9414,3.8555,3.7676,0.0,3.5996,3.5996,3.5996,3.5996,3.5996,3.5996,3.5996,3.5996,3.5996,3.5996,0.0,0.0,0.0,0.0,0.0,0.0,0.0,2.0568,2.0716,2.118,2.1471,2.2032,2.3093,2.3511,2.3901,0.0,0.0,0.0,0.0,0.0,0.0,0.0,0.0,0.0,0.0,0.0,0.0,0.0,0.0,0.0,0.0,0.0,0.0,0.0,0.0,0.0,0.0,0.0,0.0,0.0,0.0,0.0,0.0,0.0,0.0,0.0,0.0,0.0,0.0,0.0,3.317,3.3236,3.3624,3.3963,3.4043,3.3198,3.3017,3.3088,3.2968,3.2922,3.2891,3.2891,3.2968,3.2798,3.1825,3.2971,0.0,0.0,3.4828,3.6648,3.6657,0.0,3.9304,0.0,0.0,0.0,0.0,0.0,0.0,0.0,0.0,0.0,0.0,0.0,0.0,0.0,4.5215,4.5019,4.5703,4.4433,4.3301,4.2422,4.1621,4.1191,4.1191,4.1191,4.1191,4.1191,4.1191,4.1191,4.1172,4.0488,3.9609,3.8555,3.7871,0.0,0.0,3.5996,3.5996,3.5996,3.5996,3.5996,3.6016,3.6211,3.6152,3.6035,0.0,0.0,0.0,0.0,0.0,0.0,0.0,2.1391,2.1543,2.1938,2.204,2.234,2.3129,2.3511,2.3837,0.0,0.0,0.0,0.0,0.0,0.0,0.0,0.0,0.0,0.0,0.0,0.0,0.0,0.0,0.0,0.0,0.0,0.0,0.0,0.0,0.0,0.0,0.0,0.0,0.0,0.0,0.0,0.0,0.0,0.0,0.0,0.0,0.0,0.0,0.0,0.0,3.2852,3.1414,3.2049,3.3165,3.2358,0.0,0.0,3.3079,3.2996,3.2891,3.2891,3.3045,3.273,3.1014,0.0,0.0,3.128,3.3014,3.4859,3.492,3.5703,3.7148,0.0,0.0,0.0,0.0,0.0,0.0,0.0,0.0,0.0,0.0,0.0,0.0,4.5176,4.4316,4.3848,4.3926,4.3789,4.3301,4.2422,4.1621,4.1191,4.1191,4.1191,4.1191,4.1191,4.1191,4.1191,4.1191,4.1113,4.0176,3.8594,3.8516,3.7539,0.0,3.5996,3.5996,3.5996,3.5996,3.5996,3.6094,3.6894,3.668,3.6113,0.0,0.0,0.0,0.0,0.0,0.0,2.1881,2.214,2.2358,2.2396,2.2513,2.2814,2.3419,2.361,2.3827,2.417,0.0,0.0,0.0,0.0,0.0,0.0,0.0,0.0,0.0,0.0,0.0,0.0,0.0,0.0,0.0,0.0,0.0,0.0,0.0,0.0,0.0,0.0,0.0,0.0,0.0,0.0,0.0,0.0,0.0,0.0,0.0,0.0,0.0,0.0,0.0,0.0,3.0867,3.0722,0.0,0.0,3.0536,3.0804,3.1339,3.1444,3.1404,3.1404,3.1128,3.0664,2.9946,0.0,3.1654,3.0952,3.2866,3.4664,3.4707,3.541,3.668,0.0,0.0,0.0,0.0,0.0,0.0,0.0,0.0,0.0,0.0,0.0,0.0,4.3496,4.3594,4.3262,4.2246,4.2656,4.2539,4.1699,4.1367,4.1191,4.1191,4.1191,4.1191,4.1191,4.1191,4.1191,4.1191,4.1191,4.0254,3.8594,3.8594,3.7596,0.0,3.5975,3.5974,3.5946,3.5976,3.5996,3.6035,3.6387,3.6309,3.6055,0.0,0.0,0.0,0.0,0.0,2.2542,2.2438,2.2745,2.2965,2.2928,2.3059,2.3283,2.3653,2.3703,2.3941,2.4589,2.4376,0.0,0.0,0.0,0.0,0.0,0.0,0.0,0.0,0.0,0.0,0.0,0.0,0.0,0.0,0.0,0.0,0.0,0.0,0.0,0.0,0.0,0.0,0.0,0.0,0.0,0.0,0.0,0.0,0.0,0.0,0.0,0.0,0.0,0.0,0.0,0.0,0.0,0.0,0.0,2.9027,2.9223,2.9852,3.0192,3.0346,3.0077,2.9653,2.9174,0.0,0.0,3.0449,3.0176,3.2168,3.4023,3.4277,3.5039,3.6191,0.0,0.0,0.0,0.0,0.0,0.0,0.0,0.0,0.0,0.0,0.0,4.3066,4.2441,4.2754,4.2441,4.1269,4.1738,4.1797,4.1211,4.1191,4.1191,4.1191,4.1191,4.1191,4.1191,4.1191,4.1191,4.1191,4.1191,4.0234,3.8532,3.8574,0.0,0.0,3.5953,3.5951,3.5907,3.5974,3.5996,3.6035,3.6289,3.6211,3.6035,0.0,0.0,0.0,0.0,0.0,0.0,2.3111,2.3189,2.3323,2.3649,2.3692,2.3692,2.3703,2.3703,2.4233,2.5565,2.4764,0.0,0.0,0.0,0.0,0.0,0.0,0.0,0.0,0.0,0.0,0.0,0.0,0.0,0.0,0.0,0.0,0.0,0.0,0.0,0.0,0.0,0.0,0.0,0.0,0.0,0.0,0.0,0.0,0.0,0.0,0.0,0.0,0.0,0.0,0.0,0.0,0.0,0.0,0.0,2.8586,2.9107,2.9107,2.9737,3.0192,2.9338,2.9216,2.8863,0.0,0.0,2.9375,2.8496,3.041,3.2461,3.3262,3.4121,3.5273,3.7031,0.0,0.0,0.0,0.0,0.0,0.0,0.0,0.0,0.0,0.0,4.2402,4.2402,4.168,0.0,4.1191,4.1211,4.1211,4.1191,4.1191,4.1191,4.1191,4.1191,4.1191,4.1191,4.1191,4.1191,4.1191,4.1191,4.0172,3.8408,3.8532,0.0,0.0,3.5927,3.5951,3.5907,3.5974,3.5996,3.6094,3.6973,3.6738,3.6113,0.0,0.0,0.0,0.0,0.0,0.0,0.0,2.3165,2.3385,2.3351,2.3476,2.3595,2.3703,2.4191,2.4835,2.563,2.5409,0.0,0.0,0.0,0.0,0.0,0.0,0.0,0.0,0.0,0.0,2.32,2.3576,0.0,0.0,0.0,0.0,0.0,0.0,0.0,0.0,0.0,0.0,0.0,0.0,0.0,0.0,0.0,0.0,0.0,0.0,0.0,0.0,0.0,0.0,0.0,0.0,0.0,0.0,2.8898,2.8678,2.8593,2.9688,2.9756,2.9451,2.9226,2.883,2.8179,2.7063,0.0,2.789,2.8176,2.9861,3.1738,3.3144,3.4101,3.5273,3.7012,3.8027,0.0,0.0,0.0,0.0,0.0,0.0,0.0,0.0,0.0,4.2168,4.1621,4.1348,4.1191,4.1191,4.1191,4.1191,4.1191,4.1191,4.1191,4.1191,4.1191,4.0898,4.0312,4.0918,4.0898,4.0332,4.0937,4.0234,0.0,0.0,0.0,0.0,3.6206,3.6303,3.6747,3.6208,3.5996,3.6035,3.6309,3.623,3.6113,0.0,0.0,0.0,0.0,0.0,0.0,0.0,2.2987,2.3193,2.3212,2.3309,2.3414,2.3504,2.4341,2.5193,2.594,2.6376,0.0,0.0,0.0,0.0,0.0,0.0,0.0,0.0,2.3914,2.3708,2.3508,2.3837,2.365,2.3038,2.3868,0.0,0.0,0.0,0.0,0.0,0.0,0.0,0.0,0.0,0.0,2.8497,0.0,0.0,0.0,0.0,0.0,0.0,0.0,0.0,0.0,0.0,0.0,0.0,0.0,2.8451,2.7805,0.0,2.9361,2.9031,2.8431,2.7946,0.0,0.0,0.0,2.7557,2.8064,2.9562,3.1314,3.3042,3.3805,3.4861,3.6953,3.8027,0.0,0.0,0.0,0.0,0.0,0.0,0.0,0.0,4.1836,4.1738,4.123,4.1191,4.1191,4.1191,4.1191,4.1191,4.1191,4.1191,4.1191,4.1191,4.0879,4.0449,3.9902,4.0449,4.0254,3.9434,4.0312,3.9745,3.8062,0.0,0.0,0.0,3.6186,3.6283,3.6669,3.6189,3.5996,3.5996,3.5996,3.6211,3.6562,0.0,0.0,0.0,0.0,0.0,0.0,0.0,2.2656,2.2784,2.3111,2.3147,2.3129,2.3153,2.4206,2.5316,2.6376,0.0,0.0,0.0,0.0,0.0,0.0,0.0,0.0,0.0,2.5416,2.5102,2.4033,2.4019,2.3549,2.2669,2.3009,2.3898,0.0,0.0,0.0,0.0,0.0,0.0,0.0,2.786,2.8338,0.0,0.0,0.0,0.0,0.0,0.0,0.0,0.0,0.0,0.0,0.0,0.0,0.0,0.0,0.0,0.0,0.0,2.8676,2.8841,2.7347,2.6968,2.6738,0.0,0.0,0.0,2.8163,2.9471,3.1154,3.295,3.3349,3.4238,3.6854,3.8007,0.0,0.0,0.0,0.0,0.0,0.0,0.0,0.0,4.1641,4.1269,4.1191,4.1191,4.1191,4.1191,4.1191,4.1191,4.1191,4.1191,4.1191,4.1191,4.0332,3.9863,3.9805,3.9863,3.9414,3.8535,3.9531,3.9019,0.0,0.0,0.0,0.0,3.6046,3.6069,3.6009,3.5994,3.5996,3.5996,3.5996,3.6543,3.7305,0.0,0.0,0.0,0.0,0.0,0.0,0.0,0.0,0.0,0.0,2.2508,2.2581,2.2797,2.4152,2.5308,0.0,0.0,0.0,0.0,0.0,0.0,0.0,0.0,0.0,0.0,2.6065,2.5428,2.4317,2.4108,2.345,2.2402,2.2673,2.3774,2.5488,2.5159,0.0,0.0,0.0,0.0,0.0,2.8473,2.8822,0.0,0.0,0.0,0.0,2.654,2.6532,0.0,0.0,0.0,0.0,0.0,0.0,0.0,0.0,2.9943,2.9586,2.9134,0.0,2.8297,2.8573,2.8644,2.8427,0.0,0.0,0.0,0.0,0.0,3.1144,3.2909,3.3766,3.484,3.6763,3.7847,3.9297,0.0,0.0,0.0,0.0,0.0,0.0,4.0742,4.1484,4.1855,4.125,4.1191,4.1191,4.1191,4.1191,4.1191,4.1191,4.1191,4.1191,4.1191,4.0332,3.957,3.8906,3.957,3.9082,3.7676,3.9883,3.9922,0.0,0.0,0.0,3.7864,3.7245,3.6992,3.6912,3.625,3.5996,3.5996,3.5996,3.6543,3.7402,0.0,0.0,0.0,0.0,0.0,0.0,0.0,0.0,0.0,0.0,0.0,2.2482,2.2963,2.4268,0.0,0.0,0.0,0.0,0.0,0.0,0.0,0.0,0.0,0.0,2.6652,2.6828,2.6461,2.5511,2.4958,2.42,2.3271,2.3202,2.3916,2.5315,2.5962,0.0,0.0,0.0,0.0,0.0,2.8822,0.0,0.0,0.0,0.0,0.0,2.5954,2.5894,0.0,2.5022,2.5058,2.5663,0.0,0.0,0.0,0.0,2.9326,2.9431,2.9724,2.9199,2.8562,2.8673,2.8666,2.8546,2.809,0.0,0.0,0.0,0.0,0.0,3.339,3.4427,0.0,3.7344,3.8734,0.0,0.0,0.0,0.0,0.0,0.0,0.0,0.0,0.0,4.207,4.1269,4.1191,4.1191,4.1191,4.1191,4.1191,4.1191,4.0801,4.0801,4.1191,3.9941,3.9277,3.9199,3.9277,3.8809,3.7969,3.9785,3.9863,0.0,0.0,0.0,3.7949,3.7051,3.6699,3.666,3.6172,3.5996,3.5996,3.5996,3.6797,3.7969,0.0,0.0,0.0,0.0,0.0,0.0,0.0,0.0,0.0,0.0,0.0,0.0,0.0,0.0,0.0,0.0,0.0,0.0,0.0,0.0,0.0,0.0,0.0,2.6869,2.6869,2.7603,2.7595,2.6805,2.6014,2.5214,2.4394,2.3903,2.4191,2.5159,2.6988,0.0,0.0,0.0,0.0,0.0,2.9005,0.0,0.0,0.0,0.0,0.0,0.0,0.0,0.0,2.5009,2.4842,2.4946,2.5329,0.0,0.0,0.0,0.0,0.0,2.9846,2.9931,2.946,2.86,2.8377,2.836,2.8304,0.0,0.0,0.0,0.0,0.0,0.0,0.0,0.0,0.0,0.0,0.0,0.0,0.0,0.0,0.0,0.0,0.0,4.2187,4.2324,4.207,4.1269,4.1191,4.1191,4.1191,4.1191,4.1191,4.1191,4.0351,4.0312,4.1191,3.9336,3.8906,3.9883,3.9023,3.8594,3.8633,3.9648,3.9551,3.8574,0.0,0.0,3.7246,3.6504,3.6113,3.5996,3.5996,3.5996,3.5996,3.5996,3.7109,3.8633,0.0,0.0,0.0,0.0,0.0,0.0,0.0,0.0,0.0,0.0,0.0,0.0,0.0,0.0,0.0,0.0,0.0,0.0,0.0,0.0,0.0,0.0,2.8088,2.772,2.772,2.8112,2.7821,2.6805,2.6452,2.562,2.4394,2.3795,2.4382,2.5977,2.7236,2.8246,2.9005,0.0,0.0,2.9005,2.9005,0.0,0.0,0.0,0.0,0.0,0.0,0.0,0.0,2.5,2.5071,2.5482,2.6968,0.0,0.0,0.0,0.0,0.0,2.9429,3.029,3.1074,2.9985,2.987,2.9975,0.0,0.0,0.0,0.0,0.0,0.0,0.0,0.0,0.0,0.0,0.0,0.0,0.0,0.0,0.0,0.0,0.0,4.3613,4.1582,4.1992,4.207,4.1269,4.1191,4.1191,4.1191,4.1191,4.1191,4.1191,4.0351,4.0312,4.1191,3.873,3.8301,3.9883,3.9023,3.8594,3.8652,4.0273,4.0117,3.8633,0.0,3.8652,3.7285,3.7168,3.668,3.5996,3.5996,3.5996,3.5996,3.5996,3.7109,3.8809,0.0,0.0,0.0,0.0,0.0,0.0,0.0,0.0,0.0,0.0,0.0,0.0,0.0,0.0,0.0,0.0,0.0,0.0,0.0,0.0,0.0,2.9848,2.926,2.8599,2.7911,2.7642,2.7386,2.7193,2.6082,2.539,2.509,2.4707,2.5189,2.641,2.7365,2.8246,2.9005,0.0,2.9078,2.9192,0.0,0.0,0.0,0.0,0.0,0.0,0.0,0.0,0.0,0.0,2.5608,2.5442,2.6231,0.0,0.0,0.0,0.0,0.0,2.9775,3.0737,3.154,3.0866,3.0898,0.0,0.0,0.0,0.0,0.0,0.0,0.0,0.0,0.0,0.0,0.0,0.0,0.0,0.0,0.0,0.0,0.0,0.0,4.3848,4.2656,4.2891,4.2578,4.1308,4.1191,4.1191,4.1191,4.1191,4.1191,4.1191,4.0351,4.0312,4.1191,3.9062,3.8887,4.0586,3.9238,3.9082,4.0019,4.0351,4.0059,3.9277,0.0,3.8047,3.7266,3.6797,3.6367,3.5996,3.5996,3.5996,3.6113,3.7051,3.8203,3.9473,0.0,0.0,0.0,0.0,0.0,0.0,0.0,0.0,0.0,0.0,0.0,0.0,0.0,0.0,0.0,0.0,0.0,0.0,0.0,0.0,3.058,3.1146,3.0674,2.9559,2.7808,2.7258,2.7091,2.7291,2.5807,2.5161,2.5301,2.5196,2.5568,2.6369,2.7269,2.8114,2.8863,2.8952,2.9156,2.9382,0.0,0.0,0.0,0.0,0.0,0.0,0.0,0.0,0.0,0.0,0.0,0.0,0.0,0.0,0.0,2.7876,2.8626,2.9209,2.9699,3.0895,3.1898,3.1527,0.0,0.0,0.0,0.0,0.0,0.0,0.0,0.0,0.0,0.0,0.0,0.0,0.0,0.0,0.0,0.0,0.0,0.0,0.0,4.3691,4.3691,4.334,4.2578,4.1308,4.1191,4.1191,4.1191,4.1191,4.1191,4.1191,4.0351,4.0312,4.1191,3.9473,3.9473,4.1172,3.9434,3.9512,4.1172,4.0293,3.9785,3.9512,3.8184,3.7363,3.6934,3.6289,3.6113,3.6289,3.6074,3.6113,3.6523,3.8262,3.9336,4.0019,0.0,0.0,0.0,0.0,0.0,0.0,0.0,0.0,0.0,0.0,0.0,0.0,0.0,0.0,0.0,0.0,0.0,0.0,0.0,0.0,3.2881,3.3182,3.2501,3.0621,2.7408,2.764,2.7432,2.6664,2.6155,2.5291,2.4126,2.4293,2.4819,2.5633,2.6752,2.7687,2.8471,2.8839,2.9156,2.9402,2.9382,0.0,0.0,0.0,0.0,0.0,0.0,0.0,0.0,0.0,0.0,0.0,0.0,0.0,2.6928,2.8549,2.905,2.8961,2.8335,3.0437,3.265,3.2019,0.0,0.0,0.0,0.0,0.0,0.0,0.0,0.0,0.0,0.0,0.0,0.0,0.0,0.0,0.0,0.0,0.0,0.0,0.0,4.3691,4.3691,4.2285,4.1328,4.1211,4.1191,4.1191,4.1191,4.1191,4.1191,4.1191,4.0351,4.0312,4.1191,3.9473,3.9473,4.1172,3.9434,3.9512,4.1172,4.0293,3.9453,3.8691,3.8555,3.7598,3.6094,3.6035,3.6484,3.7129,3.6328,3.6484,3.7422,3.916,3.9844,4.0019,0.0,0.0,0.0,0.0,0.0,0.0,0.0,0.0,0.0,0.0,0.0,0.0,0.0,0.0,0.0,0.0,0.0,0.0,0.0,0.0,3.2562,3.2721,3.2734,3.1928,3.02,2.8439,2.7111,2.6288,2.5723,2.5269,2.495,2.599,2.6643,2.6975,2.7903,2.8358,2.842,2.8565,2.9296,3.033,2.9669,2.9838,0.0,0.0,0.0,0.0,0.0,0.0,0.0,0.0,2.6563,2.6327,2.7525,2.6928,2.6135,2.7852,2.8357,2.8408,2.8672,3.0839,3.2977,3.2759,0.0,0.0,0.0,0.0,0.0,0.0,0.0,0.0,0.0,0.0,0.0,0.0,0.0,0.0,0.0,0.0,0.0,0.0,0.0,0.0,4.3808,4.3125,4.2324,0.0,0.0,0.0,4.1191,4.1191,4.1191,4.1191,4.0879,4.0879,4.1191,4.0547,4.0547,4.1172,3.9434,3.9512,4.1152,3.9746,3.8906,3.8574,3.8027,3.7109,3.5996,3.5996,3.6191,3.6504,3.6738,3.7344,3.8242,3.9453,4.0234,4.0762,0.0,0.0,0.0,0.0,0.0,0.0,0.0,0.0,0.0,0.0,0.0,0.0,0.0,0.0,0.0,0.0,0.0,0.0,0.0,3.1208,3.2112,3.2756,3.2914,3.2637,3.1877,2.9525,2.7756,2.6605,2.536,2.5005,2.5531,2.6711,2.721,2.7156,2.8423,2.8721,2.8264,2.8489,2.9462,3.0791,2.9869,3.0328,0.0,0.0,0.0,0.0,0.0,0.0,0.0,0.0,2.7505,2.7101,2.7717,2.689,2.6,2.7467,2.7907,2.8126,2.9016,3.1162,3.3157,0.0,0.0,0.0,0.0,0.0,0.0,0.0,0.0,0.0,0.0,0.0,0.0,0.0,0.0,0.0,0.0,0.0,0.0,0.0,0.0,0.0,0.0,0.0,0.0,0.0,0.0,0.0,0.0,4.1191,4.1191,4.1191,4.1191,4.1191,4.1191,4.1191,4.1191,4.1172,3.9707,3.9785,4.1133,3.9394,3.8594,3.8555,3.7676,3.6953,3.6406,3.6406,3.6562,3.6934,3.8086,3.873,3.9121,3.998,4.0684,4.1191,0.0,0.0,0.0,0.0,0.0,0.0,0.0,0.0,0.0,0.0,0.0,0.0,0.0,0.0,0.0,0.0,0.0,0.0,0.0,3.0655,3.1838,3.3699,3.3274,3.2638,3.185,3.0964,2.9592,2.7692,2.5236,2.4534,2.553,2.593,2.5939,2.5725,2.7984,2.8591,2.7954,2.8676,2.9617,3.0559,2.9945,3.0343,3.1226,0.0,0.0,0.0,0.0,0.0,0.0,0.0,2.7915,2.7915,2.7915,0.0,2.6774,2.764,2.7957,2.8229,2.9152,3.1251,0.0,0.0,0.0,0.0,0.0,0.0,0.0,0.0,0.0,0.0,0.0,0.0,0.0,0.0,0.0,0.0,0.0,0.0,0.0,0.0,0.0,0.0,0.0,0.0,0.0,0.0,0.0,0.0,0.0,4.1191,4.1191,4.1191,4.1191,4.1191,4.1191,4.1191,4.1191,4.1191,4.0312,4.0351,4.1133,3.9394,3.8594,3.8535,3.7676,3.7305,3.7305,3.7305,3.7812,3.8769,4.0508,4.0644,3.998,4.0879,4.1191,4.1191,0.0,0.0,0.0,0.0,0.0,0.0,0.0,0.0,0.0,0.0,0.0,0.0,0.0,0.0,0.0,0.0,0.0,0.0,0.0,3.0209,3.1261,3.2482,3.2523,3.2973,3.3955,3.2395,3.0087,2.7058,2.6088,2.6168,2.7207,2.7842,2.8092,2.8034,2.8684,2.8717,2.8277,2.8489,2.9354,3.0553,2.9935,3.0341,3.123,0.0,0.0,0.0,0.0,0.0,0.0,0.0,0.0,0.0,2.8742,0.0,2.7563,2.7818,2.8357,2.9059,3.0052,3.1313,0.0,0.0,0.0,0.0,0.0,0.0,0.0,0.0,0.0,0.0,0.0,0.0,0.0,0.0,0.0,0.0,0.0,0.0,0.0,0.0,0.0,0.0,0.0,0.0,0.0,0.0,0.0,0.0,0.0,4.1191,4.1191,4.1191,4.1191,4.1191,4.1191,4.1191,4.1191,4.1191,4.0937,4.0625,4.0254,3.9121,3.8262,3.7676,3.7402,3.7305,3.7305,3.7305,3.7441,3.7793,3.8926,3.9219,3.918,4.0644,4.1191,4.1191,0.0,0.0,0.0,0.0,0.0,0.0,0.0,0.0,0.0,0.0,2.6691,2.6857,0.0,0.0,0.0,2.8381,2.8773,0.0,2.9005,2.9712,3.0652,3.1871,3.2145,3.2906,3.4276,3.2501,3.0659,2.8799,2.753,2.7483,2.8562,2.8346,2.8195,2.8099,0.0,2.8134,2.7933,2.8088,2.8849,2.9948,2.9758,3.0093,3.0654,0.0,0.0,0.0,0.0,0.0,0.0,0.0,0.0,0.0,2.9427,0.0,0.0,2.8595,2.8888,2.9513,3.0451,0.0,0.0,0.0,0.0,0.0,0.0,0.0,0.0,0.0,0.0,0.0,0.0,0.0,0.0,0.0,0.0,0.0,0.0,0.0,0.0,0.0,0.0,0.0,0.0,0.0,0.0,0.0,0.0,0.0,0.0,4.1049,4.1076,4.1126,4.1126,4.1149,4.1191,4.1191,4.1191,4.1191,4.1191,4.0742,3.9883,3.9355,3.8633,3.7793,3.7441,3.7305,3.7344,3.8047,3.8125,3.7949,3.916,3.9414,3.9297,4.0684,4.1191,4.1191,0.0,0.0,2.4592,2.4592,0.0,0.0,0.0,0.0,0.0,2.6505,2.6657,2.6857,0.0,0.0,0.0,2.8311,2.8725,2.894,2.894,2.9203,3.0089,3.1693,3.2149,3.2702,3.3455,3.1965,3.1432,3.2017,2.927,2.8534,2.9623,0.0,2.7061,2.6837,0.0,2.7157,2.7326,2.7592,2.8224,2.906,2.9364,2.959,2.9738,3.0126,0.0,0.0,0.0,0.0,0.0,0.0,0.0,0.0,3.0128,3.0169,3.0639,2.9777,2.9552,2.9802,0.0,0.0,0.0,0.0,0.0,0.0,0.0,0.0,0.0,0.0,0.0,0.0,0.0,0.0,0.0,0.0,0.0,0.0,0.0,0.0,0.0,0.0,0.0,0.0,0.0,0.0,0.0,0.0,0.0,0.0,0.0,4.0797,4.086,4.0986,4.091,4.0932,4.1053,4.1053,4.1014,4.0937,4.1014,4.0644,3.9883,3.9805,3.9258,3.832,3.7617,3.7305,3.7422,3.9101,3.9316,3.8769,4.043,4.0605,4.0019,4.0879,4.1191,4.1191,0.0,0.0,2.5372,2.5372,0.0,0.0,0.0,0.0,2.5659,2.5828,2.6336,2.6857,2.7257,2.738,0.0,2.7964,2.8316,2.854,2.854,2.8868,2.9807,3.1415,3.2754,3.3642,3.402,3.3463,3.3334,3.3685,3.0527,2.9359,0.0,0.0,0.0,2.7767,0.0,2.7389,2.8101,2.739,2.7944,2.925,2.8348,2.8673,2.9681,2.9455,2.9817,0.0,0.0,0.0,0.0,0.0,0.0,0.0,3.1696,3.1496,3.1471,3.0656,3.0429,3.0774,0.0,3.2591,0.0,0.0,0.0,0.0,0.0,0.0,0.0,0.0,0.0,0.0,0.0,0.0,0.0,0.0,0.0,0.0,0.0,0.0,0.0,0.0,0.0,0.0,0.0,0.0,0.0,0.0,0.0,0.0,4.0797,4.0797,4.0809,4.085,4.0234,3.9916,3.9931,3.9934,3.9605,0.0,3.9622,3.9862,3.9727,3.9139,3.8027,3.6582,3.707,3.7305,3.7383,3.8437,3.8769,3.8711,3.9766,4.0078,4.0019,4.0879,4.1191,4.1172,0.0,0.0,0.0,0.0,0.0,0.0,0.0,0.0,2.5592,2.5592,2.6397,2.6867,2.6523,2.6938,0.0,0.0,2.7594,2.81,2.81,2.8674,2.9721,3.1342,3.2944,3.3881,3.4012,3.3863,3.3863,3.4006,0.0,0.0,0.0,0.0,0.0,2.8033,0.0,2.6896,2.8043,2.7144,2.7483,2.8616,2.8463,2.8618,2.8977,2.9384,2.9838,3.0312,3.0458,0.0,0.0,0.0,0.0,0.0,0.0,0.0,3.2997,3.1789,3.143,3.1535,0.0,0.0,0.0,0.0,0.0,0.0,0.0,0.0,0.0,0.0,0.0,0.0,0.0,0.0,0.0,0.0,0.0,0.0,0.0,0.0,0.0,0.0,0.0,0.0,0.0,0.0,0.0,0.0,0.0,4.0657,4.0657,4.0657,4.0497,4.0136,3.9718,3.9321,3.8983,3.8987,3.8757,3.8312,3.8753,3.8777,3.841,3.8475,3.7992,3.7077,3.6764,3.6633,3.6731,3.8066,3.8319,3.8058,3.9824,4.0233,3.9912,4.0772,4.1104,4.1081,0.0,0.0,0.0,0.0,0.0,0.0,0.0,0.0,0.0,2.5439,2.6456,2.6824,2.5805,2.6486,2.6611,0.0,0.0,0.0,2.7691,2.8634,2.9885,3.1409,3.2869,3.3742,3.3954,3.3954,3.3867,0.0,0.0,0.0,0.0,0.0,0.0,2.8034,0.0,2.6495,2.7854,2.7009,2.719,2.8135,2.8766,2.8734,2.8437,2.9377,2.9884,0.0,0.0,3.0571,3.0873,3.1701,0.0,0.0,0.0,0.0,3.4004,3.2617,3.209,3.1854,0.0,0.0,0.0,0.0,0.0,0.0,0.0,0.0,0.0,0.0,0.0,0.0,0.0,0.0,0.0,0.0,0.0,0.0,0.0,0.0,0.0,0.0,0.0,0.0,0.0,0.0,0.0,0.0,0.0,4.0439,4.0304,4.0285,3.9935,3.9178,3.9009,3.8644,3.8023,3.8023,3.7949,3.7813,3.7988,3.7669,3.6989,3.7782,3.8041,3.7773,3.6433,3.5871,3.599,3.7802,3.8068,3.7566,4.0124,4.0625,3.9984,4.0706,4.0962,4.0952,0.0,0.0,0.0,0.0,0.0,0.0,0.0,0.0,0.0,0.0,2.5893,2.6601,2.61,2.6162,2.6054,2.5539,2.6588,2.729,2.729,0.0,0.0,3.1697,3.2627,3.3579,3.4561,3.458,3.4212,0.0,0.0,0.0,0.0,0.0,0.0,2.8061,0.0,0.0,2.8255,2.7289,2.7761,2.9093,2.7949,2.8184,2.9182,0.0,0.0,0.0,0.0,0.0,0.0,3.1787,3.2537,0.0,0.0,0.0,3.248,3.2266,3.1577,3.1209,0.0,0.0,0.0,0.0,0.0,0.0,0.0,0.0,0.0,0.0,0.0,0.0,0.0,0.0,0.0,0.0,0.0,0.0,0.0,0.0,0.0,0.0,0.0,0.0,0.0,0.0,0.0,0.0,4.0496,4.0208,3.9496,3.9457,3.9061,3.8204,3.7446,3.7017,3.6909,3.6909,3.6562,3.5875,3.6704,3.6964,3.6755,3.6991,3.6712,3.6038,3.5814,3.5723,3.5859,3.7624,3.8264,3.8325,4.0133,4.0772,4.0661,4.0781,4.0839,4.0824,0.0,0.0,0.0,0.0,0.0,0.0,0.0,0.0,0.0,0.0,0.0,2.6729,2.5898,2.5949,2.5711,2.4913,2.5667,2.6622,2.7629,2.8993,3.0206,3.1249,3.2524,3.3458,3.3957,3.3976,3.4014,0.0,0.0,0.0,0.0,3.0582,2.9709,0.0,0.0,0.0,0.0,0.0,2.8088,2.9115,2.847,2.833,0.0,0.0,0.0,0.0,0.0,0.0,0.0,0.0,3.214,3.2615,3.3131,0.0,0.0,0.0,0.0,0.0,0.0,0.0,0.0,0.0,0.0,0.0,0.0,0.0,0.0,0.0,0.0,0.0,0.0,0.0,0.0,0.0,0.0,0.0,0.0,0.0,0.0,0.0,0.0,0.0,0.0,0.0,0.0,0.0,3.9381,3.8931,3.8584,3.8565,3.8161,3.7296,3.6904,3.6481,3.6038,3.6038,3.5846,3.55,3.592,3.6087,3.6026,3.6093,3.6167,3.6242,3.5819,3.5924,3.6472,3.7763,3.8544,3.9044,4.0306,4.0779,4.0738,4.0738,4.0738,4.0736,0.0,0.0,0.0,0.0,0.0,0.0,0.0,0.0,0.0,0.0,0.0,2.6586,2.5802,0.0,0.0,0.0,2.5216,2.6304,2.7708,2.8593,2.9551,3.0653,3.2297,3.3232,3.3268,3.3496,0.0,0.0,0.0,0.0,3.1334,3.0829,3.018,0.0,2.8577,0.0,0.0,0.0,0.0,0.0,0.0,0.0,0.0,0.0,0.0,0.0,0.0,0.0,0.0,0.0,0.0,0.0,0.0,0.0,0.0,0.0,0.0,0.0,0.0,0.0,0.0,0.0,0.0,0.0,0.0,0.0,0.0,0.0,0.0,0.0,0.0,0.0,0.0,0.0,0.0,0.0,0.0,0.0,0.0,0.0,0.0,0.0,0.0,0.0,0.0,0.0,3.8488,3.7892,3.768,3.768,3.7276,3.6423,3.6404,3.6115,3.5519,3.55,3.55,3.55,3.55,3.55,3.55,3.55,3.5827,3.6353,3.5809,3.6054,3.6911,3.7836,3.8683,3.9457,4.0377,4.0685,4.0655,4.0655,4.0655,4.0623,0.0,0.0,0.0,0.0,0.0,0.0,0.0,0.0,0.0,0.0,0.0,2.5802,2.6044,2.6433,2.6153,2.4884,2.586,2.6661,2.6944,2.7717,2.8753,3.0091,3.1749,0.0,3.2916,0.0,0.0,0.0,0.0,0.0,3.0083,2.9874,2.9734,2.9678,2.9427,2.8783,2.7915,0.0,0.0,0.0,2.8071,2.8001,0.0,0.0,0.0,0.0,0.0,0.0,0.0,0.0,0.0,0.0,0.0,0.0,0.0,0.0,0.0,0.0,0.0,0.0,0.0,0.0,0.0,0.0,0.0,0.0,0.0,0.0,0.0,0.0,0.0,0.0,0.0,0.0,0.0,0.0,0.0,0.0,0.0,0.0,0.0,0.0,0.0,0.0,0.0,0.0,3.8488,3.7642,3.6808,3.6769,3.6404,3.5596,3.5558,3.5538,3.55,3.55,3.55,3.55,3.55,3.55,3.55,3.55,3.5519,3.5558,3.5526,3.5956,3.679,3.7644,3.8529,3.9395,4.0192,4.05,4.0512,4.0512,4.0512,4.0512,0.0,0.0,0.0,0.0,0.0,0.0,0.0,0.0,0.0,0.0,0.0,0.0,0.0,2.5964,2.5501,2.527,2.5132,2.5575,2.6814,2.733,2.8091,2.9227,3.1524,3.2832,3.291,0.0,0.0,0.0,0.0,3.0757,3.0814,3.0369,2.9992,2.9696,2.9616,2.9383,2.9035,2.9325,0.0,0.0,2.8293,2.7743,0.0,0.0,0.0,0.0,0.0,0.0,0.0,0.0,0.0,0.0,0.0,0.0,0.0,0.0,0.0,0.0,0.0,0.0,0.0,0.0,0.0,0.0,0.0,0.0,0.0,0.0,0.0,0.0,0.0,0.0,0.0,0.0,0.0,0.0,0.0,0.0,0.0,0.0,0.0,0.0,0.0,0.0,0.0,0.0,0.0,3.7019,3.6712,3.6692,3.6327,3.5538,3.55,3.55,3.55,3.55,3.55,3.55,3.55,3.55,3.55,3.55,3.55,3.55,3.55,3.5962,3.6769,3.7642,3.8507,3.9381,4.0189,4.0496,4.0496,4.0496,4.0496,4.0496,0.0,0.0,0.0,0.0,0.0,0.0,0.0,0.0,0.0,0.0,0.0,0.0,0.0,0.0,2.6043,2.6256,2.5488,2.5538,2.6814,2.732,2.794,2.8769,3.1377,3.2705,3.2506,0.0,0.0,0.0,0.0,0.0,0.0,3.0586,3.0228,2.9927,2.9927,2.9696,0.0,0.0,0.0,2.9055,0.0,2.7975,2.7426,0.0,0.0,0.0,0.0,0.0,0.0,0.0,0.0,0.0,0.0,0.0,0.0,0.0,0.0,0.0,0.0,0.0,0.0,0.0,0.0,0.0,0.0,0.0,0.0,0.0,0.0,0.0,0.0,0.0,0.0,0.0,0.0,0.0,0.0,0.0,0.0,0.0,0.0,0.0,0.0,0.0,0.0,0.0,0.0,0.0,3.6692,3.6442,3.6058,3.5519,3.55,3.55,3.55,3.55,3.55,3.55,3.55,3.55,3.55,3.55,3.55,3.55,3.55,3.5962,3.6731,3.7315,3.8084,3.8911,3.9457,3.9842,4.0092,4.0092,4.0265,4.0496,0.0,0.0,0.0,0.0,0.0,0.0,0.0,0.0,0.0,0.0,0.0,0.0,0.0,0.0,0.0,2.7786,2.706,2.6698,2.6916,2.7652,2.8293,2.8758,3.1222,3.2331,3.1744,0.0,0.0,0.0,0.0,0.0,0.0,0.0,3.0404,3.0404,3.0404,2.9703,2.8612,0.0,2.9286,2.8601,0.0,2.8711,2.8493,0.0,0.0,0.0,2.8716,2.9088,0.0,2.9107,0.0,0.0,0.0,0.0,0.0,0.0,0.0,0.0,0.0,0.0,0.0,0.0,0.0,0.0,3.9111,0.0,4.0496,0.0,0.0,0.0,0.0,0.0,0.0,0.0,0.0,0.0,0.0,0.0,0.0,0.0,0.0,0.0,0.0,0.0,0.0,0.0,3.7219,3.6712,3.6731,3.5942,3.55,3.55,3.55,3.55,3.55,3.55,3.55,3.55,3.55,3.55,3.55,3.55,3.55,3.55,3.55,3.5942,3.6673,3.6692,3.7199,3.7969,3.7988,3.8527,3.9265,3.9284,3.9785,4.0477,0.0,0.0,0.0,0.0,0.0,0.0,0.0,0.0,0.0,0.0,0.0,0.0,0.0,0.0,0.0,2.7411,2.6926,2.6883,2.7509,2.7899,2.8166,2.8284,3.107,3.252,3.2343,0.0,0.0,0.0,0.0,0.0,0.0,0.0,0.0,0.0,3.0404,3.0202,2.9896,3.0112,0.0,0.0,2.9952,2.9682,0.0,0.0,0.0,0.0,0.0,2.8607,2.9107,0.0,2.9569,3.0168,0.0,0.0,0.0,0.0,0.0,0.0,3.3194,0.0,0.0,0.0,0.0,0.0,3.9111,3.9919,4.0169,0.0,0.0,0.0,0.0,0.0,0.0,0.0,0.0,0.0,0.0,0.0,0.0,0.0,0.0,0.0,0.0,0.0,0.0,0.0,3.7546,3.6981,3.7603,3.6269,3.55,3.55,3.55,3.55,3.55,3.55,3.55,3.55,3.55,3.55,3.55,3.55,3.55,3.55,3.55,3.5635,3.5885,3.6462,3.6846,3.7123,3.7757,3.8142,3.843,3.9073,3.9438,3.9727,0.0,0.0,0.0,0.0,0.0,0.0,0.0,0.0,0.0,0.0,0.0,0.0,0.0,0.0,0.0,2.7949,2.7771,2.7794,2.8282,2.841,2.8538,2.863,3.064,3.2032,3.2592,0.0,0.0,0.0,0.0,0.0,0.0,0.0,0.0,0.0,3.0558,3.0596,0.0,0.0,0.0,0.0,3.0956,0.0,0.0,2.9781,2.9243,0.0,0.0,0.0,2.9583,2.9223,2.9472,0.0,0.0,0.0,0.0,0.0,0.0,0.0,0.0,0.0,0.0,0.0,0.0,0.0,3.8202,3.905,3.9479,0.0,0.0,0.0,0.0,0.0,0.0,0.0,0.0,0.0,0.0,0.0,0.0,0.0,0.0,0.0,0.0,3.8084,3.8065,3.87,3.7815,3.7161,3.6969,3.6019,3.55,3.55,3.55,3.55,3.55,3.55,3.55,3.55,3.55,3.55,3.55,3.55,3.55,3.55,3.55,3.55,3.5538,3.6,3.6192,3.625,3.675,3.7161,3.7565,3.843,3.8996,3.9419,0.0,0.0,3.1145,3.0481,3.0323,0.0,0.0,0.0,0.0,0.0,0.0,0.0,0.0,0.0,0.0,0.0,2.9037,2.9042,2.9133,2.906,2.9112,2.9351,3.0149,3.1167,3.24,0.0,0.0,0.0,0.0,0.0,0.0,0.0,0.0,0.0,3.075,3.0827,0.0,0.0,0.0,3.1718,3.1795,3.1833,0.0,0.0,3.0481,3.0404,3.0404,3.0404,3.0288,2.9506,2.9288,0.0,0.0,0.0,0.0,0.0,3.1328,0.0,0.0,0.0,0.0,0.0,0.0,0.0,3.6867,3.7748,3.857,3.7897,3.7725,0.0,0.0,0.0,0.0,0.0,0.0,0.0,0.0,0.0,0.0,0.0,0.0,0.0,3.9438,3.9361,3.8977,3.82,3.7969,3.718,3.5577,3.55,3.5462,3.5365,3.5442,3.5442,3.5365,3.5442,3.55,3.55,3.55,3.55,3.55,3.55,3.55,3.55,3.55,3.55,3.55,3.55,3.55,3.55,3.55,3.5942,3.6673,3.7642,3.8488,3.9284,3.1541,3.1986,3.2213,3.2055,3.1724,0.0,0.0,0.0,0.0,0.0,0.0,0.0,0.0,0.0,0.0,0.0,0.0,2.9262,2.9922,2.9354,2.901,2.9078,3.0063,3.0817,3.1293,3.2787,0.0,0.0,0.0,0.0,0.0,0.0,0.0,0.0,3.0481,3.05,0.0,0.0,0.0,3.1756,3.241,0.0,3.2583,3.1756,3.1,3.0404,3.0404,3.0404,3.0365,3.0192,3.0158,3.0279,0.0,0.0,0.0,0.0,0.0,0.0,0.0,0.0,0.0,0.0,0.0,0.0,3.6484,3.7141,3.7555,0.0,3.7351,0.0,0.0,0.0,0.0,0.0,0.0,0.0,0.0,0.0,0.0,0.0,0.0,0.0,4.0265,3.9688,3.9227,3.9073,3.7757,3.6519,3.5558,3.55,3.5173,3.4468,3.5135,3.5154,3.4449,3.5154,3.55,3.55,3.55,3.55,3.55,3.55,3.55,3.55,3.55,3.55,3.55,3.55,3.55,3.55,3.55,3.5596,3.5923,3.745,3.8104,3.8469,3.2074,3.235,3.2501,3.2501,0.0,0.0,0.0,0.0,0.0,0.0,0.0,0.0,0.0,0.0,0.0,0.0,0.0,0.0,0.0,0.0,2.9735,2.9604,2.986,3.0496,3.158,3.2527,3.3382,0.0,0.0,0.0,0.0,0.0,0.0,0.0,0.0,0.0,0.0,0.0,3.3564,3.3538,3.3083,0.0,3.2218,3.1365,3.0788,3.0404,3.0404,3.0404,3.0327,2.991,3.0333,0.0,0.0,3.0472,3.0769,0.0,3.2024,3.1862,0.0,0.0,0.0,3.5484,0.0,0.0,0.0,3.6449,3.6669,3.5704,0.0,0.0,0.0,0.0,0.0,0.0,0.0,0.0,0.0,0.0,0.0,0.0,0.0,0.0,4.0496,4.015,3.9554,3.87,3.7065,3.5923,3.5519,3.55,3.5308,3.4853,3.5269,3.5288,3.4853,3.5269,3.55,3.55,3.55,3.55,3.55,3.55,3.55,3.55,3.55,3.55,3.55,3.55,3.55,3.55,3.55,3.55,3.5654,3.6885,3.7623,3.818,3.2648,3.2697,3.2797,3.2957,0.0,0.0,0.0,0.0,0.0,0.0,0.0,0.0,0.0,0.0,0.0,0.0,0.0,0.0,0.0,0.0,3.0353,3.021,2.9831,3.0299,3.1693,3.2088,3.3165,0.0,0.0,0.0,0.0,0.0,0.0,0.0,0.0,0.0,0.0,0.0,0.0,3.4654,0.0,3.2602,3.2064,3.1038,3.0654,3.0635,3.0462,3.0404,3.0327,2.9775,3.0529,3.154,3.0442,3.067,0.0,0.0,0.0,0.0,0.0,0.0,0.0,0.0,0.0,3.6339,0.0,0.0,0.0,0.0,0.0,0.0,0.0,0.0,0.0,0.0,0.0,0.0,0.0,0.0,0.0,0.0,0.0,0.0,4.0489,4.0496,3.9881,3.8354,3.7007,3.6096,3.575,3.5731,3.5577,3.525,3.5404,3.5423,3.525,3.5423,3.55,3.55,3.55,3.55,3.55,3.55,3.55,3.55,3.55,3.55,3.55,3.55,3.55,3.55,3.55,3.55,3.5596,3.6404,3.7257,3.8123,3.3199,3.3404,3.3886,3.4585,0.0,0.0,0.0,0.0,0.0,0.0,0.0,0.0,0.0,0.0,0.0,0.0,0.0,0.0,3.1697,0.0,0.0,3.0198,3.0368,3.0307,2.9988,3.1675,3.2763,3.3199,0.0,0.0,0.0,0.0,0.0,0.0,3.166,0.0,0.0,0.0,3.2699,0.0,3.2699,3.3314,0.0,3.216,3.1545,3.1448,3.0673,3.0404,3.05,0.0,3.159,3.2009,0.0,3.1856,3.0439,3.4302,0.0,0.0,0.0,0.0,0.0,0.0,3.4756,0.0,0.0,0.0,3.5139,3.4803,0.0,0.0,0.0,0.0,0.0,0.0,0.0,0.0,0.0,0.0,0.0,0.0,0.0,0.0,0.0,4.0496,4.0131,3.9227,3.8977,3.818,3.6654,3.6558,3.5892,3.4398,3.5103,3.5141,3.4359,3.5115,3.55,3.55,3.55,3.55,3.55,3.55,3.55,3.55,3.55,3.55,3.55,3.55,3.55,3.55,3.55,3.55,3.5596,3.6404,3.7257,3.8123,3.3578,3.3694,3.3917,3.4234,0.0,0.0,0.0,0.0,0.0,0.0,0.0,0.0,0.0,0.0,0.0,0.0,0.0,3.0133,0.0,0.0,0.0,0.0,3.1395,3.1242,3.1138,3.2399,3.3255,3.3641,3.4885,0.0,0.0,0.0,0.0,0.0,3.2199,0.0,3.2936,0.0,3.3804,0.0,0.0,0.0,0.0,3.1792,3.0942,3.0904,3.0538,3.0404,3.0462,0.0,3.1611,0.0,0.0,0.0,0.0,0.0,0.0,0.0,0.0,0.0,0.0,0.0,0.0,0.0,3.5176,0.0,3.5266,0.0,0.0,0.0,0.0,0.0,0.0,0.0,3.6321,0.0,0.0,0.0,0.0,0.0,0.0,0.0,0.0,0.0,0.0,0.0,3.8834,3.8007,3.6769,3.6692,3.6154,3.4988,3.5308,3.5327,3.4968,3.5327,3.55,3.55,3.55,3.55,3.55,3.55,3.55,3.55,3.55,3.55,3.55,3.55,3.55,3.55,3.55,3.55,3.5596,3.6404,3.7257,3.8123,3.41,0.0,0.0,0.0,0.0,0.0,0.0,0.0,0.0,0.0,0.0,0.0,3.3334,3.251,0.0,0.0,3.0664,3.0877,0.0,0.0,3.1594,0.0,0.0,0.0,0.0,3.2958,3.3737,3.4205,0.0,0.0,0.0,0.0,0.0,0.0,0.0,3.3603,3.3654,0.0,3.4875,3.5248,3.5282,3.4623,3.3418,3.1493,3.0615,3.0404,3.0404,3.0404,3.0442,3.0673,3.1574,0.0,3.0425,0.0,0.0,0.0,0.0,0.0,3.4922,0.0,0.0,0.0,0.0,0.0,0.0,0.0,0.0,0.0,0.0,0.0,0.0,0.0,0.0,0.0,0.0,0.0,0.0,0.0,0.0,0.0,0.0,0.0,0.0,0.0,0.0,0.0,0.0,3.8565,3.7469,3.7199,3.6673,3.5846,3.5615,3.55,3.55,3.55,3.55,3.55,3.55,3.55,3.55,3.55,3.55,3.55,3.55,3.55,3.55,3.55,3.55,3.55,3.55,3.55,3.5577,3.6154,3.7065,3.8084,3.4821,3.4325,0.0,0.0,0.0,0.0,0.0,0.0,0.0,0.0,0.0,0.0,0.0,0.0,0.0,0.0,0.0,3.0784,3.1899,0.0,3.1515,0.0,0.0,3.2361,0.0,0.0,3.393,3.4205,0.0,0.0,0.0,0.0,0.0,0.0,0.0,3.5423,3.5417,3.5527,3.5088,3.4347,3.4485,3.3464,3.1863,0.0,3.1135,3.0404,3.0404,0.0,0.0,3.1365,3.173,0.0,0.0,0.0,0.0,0.0,0.0,0.0,0.0,0.0,0.0,3.4428,0.0,0.0,0.0,0.0,3.4402,0.0,0.0,0.0,0.0,0.0,0.0,0.0,0.0,0.0,0.0,0.0,0.0,0.0,0.0,0.0,0.0,0.0,0.0,0.0,0.0,0.0,3.9304,3.8411,3.7565,3.6692,3.5904,3.55,3.55,3.55,3.55,3.55,3.55,3.55,3.55,3.55,3.55,3.55,3.55,3.55,3.55,3.55,3.55,3.55,3.55,3.55,3.55,3.5538,3.6577,3.8007,3.5697,0.0,0.0,0.0,0.0,0.0,0.0,3.7239,0.0,0.0,0.0,0.0,0.0,3.3771,3.2675,0.0,0.0,3.1316,3.2025,3.2589,0.0,0.0,0.0,3.3766,0.0,0.0,0.0,0.0,0.0,0.0,0.0,0.0,0.0,0.0,0.0,3.5048,0.0,0.0,0.0,0.0,0.0,3.3662,3.3386,0.0,0.0,3.0404,3.0404,3.0404,0.0,3.0731,3.1234,3.1535,3.0383,3.0897,3.1821,3.1313,3.1597,0.0,0.0,0.0,3.2226,3.4177,0.0,0.0,0.0,0.0,0.0,0.0,0.0,0.0,0.0,0.0,0.0,0.0,0.0,0.0,0.0,0.0,0.0,0.0,0.0,0.0,0.0,0.0,0.0,0.0,0.0,0.0,0.0,3.9015,3.82,3.675,3.6442,3.6038,3.5519,3.55,3.55,3.55,3.55,3.55,3.55,3.55,3.55,3.55,3.55,3.55,3.55,3.55,3.55,3.55,3.55,3.55,3.5635,3.6757,3.7507,3.8161,3.656,0.0,0.0,0.0,0.0,0.0,0.0,0.0,0.0,0.0,3.8046,0.0,3.6373,0.0,3.4184,0.0,3.267,3.27,3.2706,3.292,0.0,3.2197,3.3463,0.0,0.0,0.0,0.0,0.0,0.0,3.6385,0.0,0.0,0.0,0.0,0.0,3.5391,3.5691,0.0,3.5651,0.0,0.0,3.3915,0.0,0.0,3.0979,3.0893,0.0,3.0477,3.0477,3.0477,3.0844,3.1057,2.9655,3.042,3.1646,3.0589,3.1109,3.2146,3.2793,3.2187,0.0,3.3727,3.3322,0.0,3.4844,0.0,0.0,0.0,0.0,0.0,0.0,0.0,0.0,0.0,0.0,0.0,0.0,3.6118,0.0,0.0,0.0,0.0,0.0,0.0,0.0,0.0,0.0,0.0,0.0,0.0,3.8796,3.7661,3.7315,3.675,3.5923,3.5923,3.5788,3.55,3.55,3.55,3.55,3.55,3.55,3.5481,3.5173,3.5045,3.5045,3.5045,3.5045,3.5064,3.5385,3.55,3.5673,3.7026,3.793,3.8661,3.7456,0.0,0.0,0.0,3.823,0.0,0.0,0.0,3.9625,0.0,3.9386,3.9239,3.7676,3.7456,3.6813,3.5206,3.5023,3.4674,3.3917,3.3133,0.0,0.0,3.1751,3.1636,3.1014,0.0,0.0,0.0,0.0,0.0,0.0,0.0,0.0,0.0,3.6924,0.0,3.584,3.674,3.6643,3.583,3.5036,3.4196,3.3336,3.2379,3.2001,3.1849,3.092,3.0603,3.0603,3.0603,3.0603,3.0469,2.9694,2.9466,2.9484,2.9538,2.9551,2.9948,3.1679,3.2148,3.2304,3.3062,0.0,0.0,0.0,0.0,3.2899,0.0,0.0,0.0,0.0,0.0,0.0,0.0,0.0,0.0,0.0,0.0,0.0,0.0,0.0,0.0,0.0,0.0,0.0,0.0,0.0,0.0,0.0,0.0,3.94,3.9304,3.8488,3.7642,3.6769,3.6712,3.6327,3.5558,3.5519,3.55,3.55,3.55,3.5481,3.5385,3.4564,3.4186,3.4148,3.4186,3.4205,3.4282,3.5154,3.5519,3.5654,3.6423,3.7796,3.9419,3.9016,3.9772,4.0194,0.0,3.9368,3.9038,0.0,0.0,0.0,0.0,3.9239,3.8615,3.7603,3.6978,3.6431,3.6009,3.5371,0.0,0.0,0.0,0.0,3.1488,3.2985,3.2983,3.1042,3.3891,0.0,3.55,0.0,0.0,3.8121,0.0,0.0,0.0,0.0,0.0,3.6906,3.7144,3.6755,3.5896,3.5039,3.4941,0.0,0.0,3.2516,3.2801,3.1171,3.0603,3.0603,3.0603,3.0603,3.0564,3.0353,3.0334,3.037,3.0381,3.0458,3.0644,3.1113,3.123,3.1426,3.2264,3.2478,3.2688,0.0,0.0,0.0,0.0,0.0,0.0,0.0,0.0,0.0,0.0,0.0,0.0,0.0,0.0,0.0,3.6934,0.0,0.0,0.0,0.0,0.0,0.0,0.0,0.0,0.0,0.0,0.0,3.9342,3.9092,3.8546,3.768,3.7019,3.6596,3.6385,3.5788,3.55,3.55,3.55,3.5154,3.4526,3.4302,3.384,3.3276,3.3936,3.4205,3.4282,3.5154,3.5865,3.6423,3.6615,3.7796,3.9323,4.0249,0.0,0.0,4.1754,0.0,0.0,4.0948,4.102,0.0,4.0469,4.0341,0.0,3.8686,3.8153,3.7441,3.6376,3.5862,0.0,3.5023,0.0,0.0,3.2485,3.3041,3.257,3.0856,3.3402,0.0,3.5335,0.0,0.0,3.92,0.0,0.0,0.0,0.0,3.778,3.7832,3.7461,3.7012,3.6484,3.5625,0.0,0.0,3.3418,3.2793,3.2695,3.1248,3.0725,3.0725,3.0725,3.0725,3.0725,3.0725,3.076,3.0792,3.0792,3.0838,3.0898,3.0898,3.0898,3.1016,3.1504,3.1621,3.1835,3.2648,3.2381,3.1984,0.0,0.0,0.0,0.0,0.0,0.0,0.0,0.0,0.0,0.0,0.0,0.0,0.0,3.6291,0.0,0.0,0.0,0.0,0.0,0.0,0.0,0.0,0.0,0.0,3.9881,3.9823,3.9246,3.8007,3.7507,3.6904,3.6173,3.5712,3.55,3.55,3.55,3.5231,3.4737,3.3949,3.3353,3.2949,3.343,3.3622,3.3757,3.5,3.5788,3.6173,3.6173,3.7507,3.9304,0.0,0.0,0.0,0.0,0.0,0.0,0.0,4.1967,0.0,4.1205,0.0,4.1735,4.0212,4.0065,3.9166,3.6964,0.0,3.6248,3.5371,3.3812,3.317,3.377,3.2617,3.1589,3.077,3.2712,3.423,0.0,0.0,0.0,0.0,0.0,0.0,0.0,0.0,0.0,0.0,3.7636,3.7226,3.7051,3.6309,3.5547,3.4785,3.3906,3.3066,3.2246,3.1387,3.0996,3.0898,3.0898,3.0898,3.0898,3.0898,3.0898,3.0898,3.0898,3.0898,3.0898,3.0898,3.0898,3.0898,3.0898,3.0898,3.1094,3.1855,3.1945,3.1652,3.096,3.1829,3.1864,0.0,0.0,0.0,0.0,0.0,0.0,0.0,0.0,0.0,0.0,0.0,0.0,0.0,0.0,0.0,0.0,0.0,0.0,0.0,0.0,0.0,4.0535,4.0496,3.9861,3.8507,0.0,3.7334,3.5981,3.5654,3.55,3.55,3.55,3.5442,3.525,3.3737,3.3006,3.291,3.3026,3.3141,3.3391,3.4904,3.55,3.55,3.55,3.7046,3.913,0.0,0.0,0.0,0.0,0.0,4.3271,4.3877,4.303,4.2011,4.1205,4.1809,4.1937,4.0985,4.0875,4.0451,3.935,3.8652,0.0,0.0,0.0,0.0,3.3825,3.3161,3.2404,3.1607,3.2815,3.4329,0.0,0.0,0.0,0.0,0.0,0.0,0.0,0.0,0.0,3.839,3.751,0.0,3.6211,3.6055,3.5918,3.5684,3.4805,3.3945,3.3086,3.2266,3.1504,3.0898,3.0898,3.0898,3.0898,3.0898,3.0898,3.0898,3.0898,3.0898,3.0898,3.0898,3.0898,3.0898,3.0898,3.0898,3.0937,3.1094,3.1113,3.1053,3.0917,3.1092,3.1307,3.1445,0.0,0.0,0.0,0.0,0.0,0.0,0.0,0.0,0.0,0.0,3.4521,0.0,0.0,0.0,0.0,0.0,0.0,0.0,0.0,0.0,0.0,4.0496,0.0,0.0,0.0,3.82,3.8604,3.65,3.55,3.55,3.55,3.5122,3.441,3.4109,3.3564,3.2968,3.3686,3.4391,3.5077,3.5385,3.55,3.55,3.55,3.6654,3.8238,0.0,0.0,0.0,0.0,0.0,0.0,0.0,4.4081,0.0,4.268,4.2942,4.2643,4.1256,4.1095,4.0451,3.8796,3.8285,3.7749,3.6942,3.6119,3.5298,3.4454,3.4179,0.0,3.2249,3.2858,3.4078,3.5893,0.0,0.0,0.0,0.0,0.0,0.0,0.0,3.9443,0.0,0.0,0.0,3.6621,3.6172,3.5996,3.5898,3.5039,3.4434,3.3906,3.2656,3.1934,3.1504,3.1055,3.0898,3.0898,3.0898,3.0898,3.0898,3.0898,3.0898,3.0898,3.0898,3.0898,3.0898,3.0898,3.0898,3.0898,3.0898,3.0898,3.0898,3.0898,3.0838,3.1067,3.1946,3.2786,0.0,0.0,0.0,0.0,0.0,0.0,0.0,0.0,0.0,0.0,0.0,0.0,0.0,0.0,0.0,0.0,0.0,0.0,0.0,0.0,0.0,0.0,0.0,0.0,0.0,3.793,3.6288,3.55,3.55,3.55,3.5269,3.4853,3.4398,3.3955,3.3603,3.4032,3.4718,3.55,3.55,3.575,3.6115,3.6115,3.7219,3.8604,0.0,4.4373,0.0,0.0,4.4806,0.0,4.514,4.4919,4.454,4.4058,4.4073,4.3472,4.1785,4.1751,4.0877,3.8481,3.8335,3.7927,3.6886,3.6652,3.6248,3.5555,3.5188,3.4417,3.3133,3.2988,3.3763,0.0,0.0,0.0,0.0,0.0,0.0,0.0,0.0,0.0,0.0,0.0,3.7441,3.7246,3.6543,3.6172,3.5937,3.5234,3.4863,3.4531,3.3203,3.2617,3.2344,3.166,3.1191,3.0898,3.0898,3.0898,3.0898,3.0898,3.0898,3.0898,3.0898,3.0898,3.0898,3.0898,3.0898,3.0898,3.0898,3.0898,3.0898,3.0898,3.0816,3.1018,3.1879,3.2445,0.0,0.0,0.0,0.0,0.0,0.0,0.0,0.0,0.0,0.0,3.5926,0.0,0.0,0.0,0.0,0.0,0.0,0.0,0.0,0.0,0.0,4.0477,3.9835,0.0,3.7661,3.6962,3.5962,3.55,3.55,3.55,3.55,3.5462,3.4776,3.4468,3.4468,3.4468,3.4872,3.55,3.55,3.5885,3.6462,3.6635,3.77,3.8938,0.0,0.0,0.0,0.0,0.0,0.0,4.5467,4.5263,4.4806,4.4087,4.4304,4.421,4.3361,4.3871,4.3306,4.0974,4.103,4.0436,3.8609,3.7804,3.7345,3.7272,3.5811,3.4931,3.4784,3.3361,3.3586,0.0,0.0,0.0,0.0,0.0,0.0,0.0,0.0,0.0,0.0,3.8341,3.7917,3.7285,3.7207,3.6719,3.5996,3.5918,3.5391,3.4687,3.4512,3.3965,3.3281,3.3184,3.2168,3.0898,3.0898,3.0898,3.0898,3.0898,3.0898,3.0898,3.0898,3.0898,3.0898,3.0898,3.0898,3.0898,3.0898,3.0898,3.0898,3.0898,3.0898,3.1152,3.2011,3.1601,3.1621,0.0,0.0,0.0,0.0,0.0,0.0,0.0,0.0,0.0,0.0,3.6387,0.0,0.0,3.8028,0.0,0.0,0.0,0.0,4.1662,0.0,4.1635,4.1566,3.92,3.7969,3.7853,3.625,3.55,3.55,3.55,3.55,3.55,3.5404,3.5385,3.5385,3.5385,3.5423,3.55,3.55,3.5558,3.5692,3.6423,3.7296,3.8229,0.0,0.0,0.0,0.0,0.0,0.0,0.0,4.5495,4.5213,4.4726,4.4806,4.4499,4.3498,4.363,4.3245,4.1819,4.1815,4.1573,4.079,3.9992,3.9331,3.8845,3.7692,3.6801,3.6339,3.5696,3.5716,0.0,0.0,0.0,0.0,0.0,0.0,0.0,0.0,3.9692,3.9109,3.8691,3.8357,3.8027,3.7519,3.709,3.6719,3.6191,3.5781,3.541,3.4883,3.4473,3.4101,3.3574,3.2949,3.2324,3.1836,3.2012,3.2305,3.1816,3.2012,3.2305,3.1816,3.168,3.1543,3.1035,3.0898,3.0898,3.0898,3.0898,3.0898,3.0898,3.0898,3.1016,3.1367,3.1562,3.1738,0.0,0.0,0.0,0.0,0.0,0.0,0.0,0.0,0.0,0.0,0.0,0.0,0.0,0.0,0.0,0.0,0.0,0.0,4.2566,0.0,4.1027,4.1027,3.9008,3.7738,3.7219,3.6058,3.55,3.55,3.55,3.55,3.55,3.55,3.55,3.55,3.55,3.55,3.5558,3.6038,3.6538,3.7118,3.7984,3.8871,3.9683,4.5191,0.0,4.5594,0.0,4.5594,4.5594,4.5594,4.5594,4.5513,4.5292,4.5243,4.4838,4.3794,4.3853,4.3577,4.2547,4.2562,4.2491,4.2119,4.156,4.0892,4.0091,3.9248,0.0,3.7578,3.7324,3.7181,3.713,3.8693,0.0,0.0,0.0,0.0,0.0,3.9941,3.9895,3.9673,3.9196,3.8984,3.8926,3.8301,3.791,3.7617,3.6992,3.6758,3.6641,3.5781,3.5469,3.5332,3.4453,3.416,3.3984,3.2891,3.2949,3.3281,3.2715,3.2969,3.3223,3.2422,3.2363,3.2285,3.1172,3.1094,3.1211,3.0957,3.0898,3.0898,3.0898,3.0898,3.0898,3.0898,3.1406,3.1699,3.1348,0.0,0.0,0.0,0.0,0.0,0.0,3.1828,3.2262,3.3001,3.4875,0.0,0.0,0.0,0.0,0.0,0.0,0.0,0.0,0.0,0.0,0.0,3.8719,3.745,3.6346,3.5769,3.55,3.55,3.55,3.55,3.55,3.55,3.55,3.5519,3.575,3.5846,3.5923,3.675,3.7324,3.7797,3.8694,3.9434,4.0043,4.5522,4.5594,4.5594,4.5594,4.5594,4.5594,4.5594,4.5594,4.5594,4.5586,4.5586,4.5342,4.467,4.5182,4.4949,4.3422,4.365,4.3363,4.2181,4.21,4.1742,0.0,0.0,3.9286,3.8395,3.7616,3.7192,3.7192,0.0,0.0,3.8955,0.0,4.1505,4.069,4.0883,4.0504,3.9717,3.9822,3.9883,3.9883,3.9863,3.9355,3.8574,3.8574,3.8574,3.8457,3.7578,3.7266,3.7148,3.6269,3.5976,3.5664,3.3926,3.3398,3.3398,3.3398,3.3398,3.3223,3.2422,3.2773,3.2988,3.1328,3.1543,3.1953,3.1094,3.0898,3.0898,3.0898,3.0898,3.0898,3.0898,3.0918,3.1191,3.2051,0.0,0.0,0.0,0.0,0.0,3.4165,3.5109,3.5012,3.3446,3.5582,0.0,0.0,0.0,0.0,0.0,0.0,0.0,4.1797,4.1788,0.0,3.9342,3.843,3.7161,3.5519,3.55,3.55,3.55,3.55,3.55,3.55,3.55,3.55,3.5558,3.6365,3.6692,3.6769,3.7642,3.7553,3.7013,3.7827,3.8205,3.8454,4.7117,4.7298,4.7124,4.6586,4.649,4.6297,4.5691,4.5594,4.5594,4.5594,4.5594,4.5513,4.5312,4.5466,4.5398,0.0,4.4978,4.4901,0.0,4.3934,4.3235,4.2431,4.1589,4.0709,3.9848,3.9578,3.9176,3.864,0.0,0.0,0.0,4.1409,4.1286,4.0058,4.0706,4.0896,4.0739,4.0761,4.0781,4.0723,4.0137,3.9726,3.9414,3.8828,3.8594,3.8555,3.8281,3.8184,3.8144,3.7871,3.7773,3.7578,3.6426,3.5644,3.5059,3.4453,3.4707,3.498,3.4141,3.4082,3.4023,3.2891,3.2402,3.2129,3.1855,3.1328,3.0898,3.0898,3.0898,3.0898,3.0898,3.0898,3.1191,3.2051,3.1973,0.0,0.0,0.0,0.0,3.2644,3.3316,3.3417,3.2436,3.4695,0.0,0.0,0.0,0.0,0.0,0.0,0.0,0.0,4.1527,0.0,3.9304,3.843,3.7161,3.55,3.55,3.55,3.55,3.55,3.55,3.55,3.55,3.55,3.5558,3.6365,3.6692,3.6846,3.8315,3.8408,3.7901,3.9393,3.9645,3.9394,4.7885,4.8105,4.7855,4.7038,4.6904,4.6605,4.5729,4.5594,4.5594,4.5594,4.5594,4.5594,4.5594,4.5594,0.0,4.5594,4.5594,4.5594,4.5594,4.5094,4.4412,4.3585,4.3028,4.2335,4.1497,4.1162,0.0,4.0239,4.1007,4.115,4.0703,4.133,4.1119,4.0219,4.0819,4.1126,4.1191,4.1191,4.1191,4.1152,4.0605,4.0391,4.0332,3.9785,3.957,3.9531,3.9219,3.9082,3.9043,3.8711,3.8594,3.8496,3.7969,3.7402,3.6738,3.5547,3.5801,3.623,3.5039,3.4941,3.4902,3.3691,3.3262,3.3047,3.2734,3.2226,3.1836,3.1836,3.1836,3.1836,3.1836,3.1836,3.2012,3.2559,3.2656,3.2928,3.3686,0.0,0.0,0.0,0.0,0.0,0.0,3.4876,3.597,0.0,0.0,0.0,0.0,0.0,0.0,4.2132,4.1073,0.0,3.8815,3.8277,3.7161,3.55,3.55,3.55,3.55,3.55,3.55,3.55,3.55,3.55,3.5558,3.6365,3.6692,3.6834,3.8297,3.8363,3.7795,3.8988,3.9321,3.9306,4.8029,4.8202,4.7932,0.0,4.6904,0.0,4.5729,4.5594,4.5594,4.5594,4.5594,4.5594,4.5594,4.5594,4.5594,4.5594,0.0,0.0,0.0,4.5594,4.521,4.4335,4.4297,4.3912,4.3124,4.2316,4.1885,4.1885,4.1158,4.0781,4.0798,4.0932,4.1037,4.1101,4.1169,4.123,4.1289,4.1211,4.1191,4.1191,4.1191,4.1191,4.1191,4.1191,4.1191,4.1094,4.0273,3.998,3.9863,3.9043,3.8789,3.8769,3.8711,3.873,3.8437,3.6699,3.6719,3.6953,3.5312,3.543,3.5625,3.4062,3.4238,3.4551,3.3613,3.3398,3.3398,3.3398,3.3398,3.3398,3.3398,3.3457,3.3516,3.3574,3.3633,3.3924,3.468,0.0,0.0,0.0,0.0,0.0,0.0,3.5855,3.5641,0.0,0.0,0.0,0.0,0.0,4.1538,4.0523,4.0496,3.9727,3.8104,3.8084,3.7276,3.5673,3.5615,3.5615,3.5673,3.5558,3.5538,3.5577,3.5519,3.55,3.5558,3.6365,3.6692,3.679,3.7738,3.7614,3.6949,3.7172,3.7753,3.8453,0.0,0.0,4.8625,4.7163,4.6904,4.6605,4.5729,4.5594,4.5594,4.5594,4.5594,4.5594,4.5594,4.5594,4.5594,4.5594,4.5594,4.5594,4.5594,4.5594,4.521,4.4335,4.4297,4.3912,4.3124,4.2893,4.2797,4.2797,4.2047,4.1723,4.1766,4.1248,4.1385,4.2049,4.1465,4.1543,4.207,4.1465,4.1191,4.1191,4.1191,4.1191,4.1191,4.1191,4.1191,4.1172,4.0976,4.0898,4.0859,4.0644,4.0586,4.0469,3.9805,4.0059,4.0234,3.8496,3.7656,3.7207,3.6797,3.6348,3.6055,3.6309,3.6035,3.5293,3.375,3.3398,3.3398,3.3398,3.3398,3.3398,3.3398,3.3945,3.4609,3.5273,3.5937,3.6445,3.6639,3.6431,0.0,0.0,3.5474,3.5485,3.4967,3.5513,3.6387,0.0,0.0,0.0,0.0,4.1242,4.142,4.0535,4.0496,4.0015,3.8996,3.8996,3.845,3.7411,3.6731,3.675,3.7353,3.6077,3.5846,3.6385,3.5769,3.55,3.5558,3.6365,3.6692,3.6796,3.7691,3.7586,3.7148,3.85,3.8801,3.8748,4.9817,4.9663,4.899,4.7682,4.7135,4.6605,4.5729,4.5594,4.5594,4.5594,4.5594,4.5594,4.5594,4.5594,4.5594,4.5594,4.5594,4.5594,4.5594,4.5594,4.5402,4.4913,4.4893,4.4682,4.4239,4.3855,4.347,4.3104,4.2735,4.2593,4.2684,4.2348,4.2483,4.2988,4.2539,4.2598,4.2949,4.2109,4.1758,4.1719,4.1348,4.1191,4.1191,4.1191,4.1191,4.1191,4.1191,4.1191,4.1191,4.1191,4.1191,4.1113,4.0644,4.082,4.1016,4.0078,3.918,3.8398,3.8008,3.7559,3.7305,3.7773,3.7246,3.6445,3.5898,3.5469,3.5293,3.5684,3.5469,3.5293,3.5703,3.584,3.6172,3.7051,3.7598,3.7891,3.7891,3.7516,0.0,3.595,3.5836,3.5674,3.5284,3.6026,3.6912,3.7844,3.9265,0.0,4.015,4.1201,4.1393,4.0535,4.0496,4.0112,3.9304,3.8892,3.8469,3.7988,3.7526,3.7546,3.7969,3.6654,3.6536,3.7314,3.6086,3.6018,3.6753,3.6389,3.648,3.6883,3.7424,3.7376,3.7176,3.861,3.9136,3.9252,4.999,4.9529,4.874,4.7875,4.7163,4.6451,4.571,4.5594,4.5594,4.5594,4.5594,4.5594,4.5594,4.5594,4.5594,4.5594,4.5594,4.5594,4.5594,4.5594,4.5594,4.5594,4.5594,4.5594,4.5594,4.4874,4.4162,4.347,4.3439,4.3488,4.3603,4.3607,4.3717,4.3887,4.3613,4.3574,4.3633,4.2637,4.2226,4.2168,4.1601,4.1387,4.1387,4.1387,4.1465,4.1562,4.1426,4.1465,4.1582,4.1582,4.1484,4.1387,4.1387,4.1308,4.1191,4.1191,4.0684,3.9902,3.9023,3.8809,3.8769,3.8633,3.8144,3.7851,3.8457,3.8027,3.7715,3.8457,3.8008,3.7715,3.8457,3.8105,3.793,3.8672,3.8906,3.8945,3.8809,0.0,3.7637,3.7519,3.6738,3.625,3.6387,3.6914,3.7337,3.748,3.9422,4.0301,3.9621,4.0868,4.1258,4.0516,4.0496,4.0169,3.9496,3.8738,3.8373,3.8373,3.8257,3.8257,3.8334,3.7362,3.7469,3.8299,3.6706,3.6878,3.8195,3.6706,3.645,3.7027,3.7262,3.7237,3.7172,3.8349,3.9173,3.9767,4.7605,4.7375,4.7009,4.6144,4.5883,4.5768,4.5614,4.5594,4.5594,4.5594,4.5594,4.5594,4.5594,4.5594,4.5594,4.5594,4.5594,4.5594,4.5594,4.5594,4.5594,4.5594,4.5594,4.5594,4.5594,4.5479,4.5344,4.521,4.4703,4.4471,4.4498,4.3941,4.4082,4.4726,4.3262,4.3008,4.3594,4.2031,4.1387,4.1426,4.1992,4.2207,4.2207,4.2207,4.2676,4.3223,4.248,4.2695,4.3301,4.3301,4.2812,4.2207,4.2207,4.1758,4.1191,4.1191,4.1094,4.0801,3.9941,3.9707,3.9512,3.8789,3.9043,3.9336,3.873,3.8496,3.8437,3.8574,3.8496,3.8437,3.8574,3.9082,3.9531,3.9687,4.0312,4.0547,3.9805,0.0,3.9219,3.8496,3.7637,3.7383,3.8125,3.7547,3.7739,3.9197,3.9496,3.9876,4.0465,4.0631,4.065,4.0496,4.0496,4.0439,4.0304,4.0189,4.0112,4.0092,3.9419,3.9457,4.0062,3.862,3.8413,3.9152,3.8263,3.8045,3.8273,3.8017,3.7546,3.7079,3.7835,3.7734,3.7359,3.8956,3.9678,3.998,4.7625,4.7192,4.6778,4.6374,4.5913,4.5594,4.5594,4.5594,4.5594,4.5594,4.5594,4.5594,4.5594,4.5594,4.5594,4.5594,4.5594,4.5594,4.5594,4.5594,4.5594,4.5594,4.5594,4.5594,4.5594,4.5594,4.5594,4.5594,4.5317,4.5245,4.5335,4.5033,4.5174,4.5664,4.4863,4.4726,4.5019,4.3769,4.2988,4.2578,4.2949,4.2812,4.2441,4.293,4.3359,4.3652,4.3242,4.3359,4.3691,4.3691,4.3125,4.2402,4.2402,4.2148,4.1758,4.1328,4.1191,4.1113,4.0703,4.0918,4.1055,4.0215,4.0293,4.0488,4.0098,3.9648,3.9551,4.0469,3.9922,3.957,4.0488,4.0625,4.0742,4.1172,4.1582,0.0,0.0,4.0469,3.9746,3.9355,3.8535,3.8164,3.8555,3.8539,3.8812,3.9594,3.9932,4.0249,4.057,4.0523,4.0496,4.0496,4.0496,4.0496,4.0496,4.0496,4.0496,4.0496,4.0131,4.0183,4.0571,3.9383,3.9364,4.0197,3.8917,3.8935,3.9798,3.884,3.8509,3.8606,3.8997,3.8948,3.8802,4.0052,4.0544,4.0664,4.8105,4.7451,4.6904,4.6904,4.6182,4.5594,4.5594,4.5594,4.5594,4.5594,4.5594,4.5594,4.5594,4.5594,4.5594,4.5594,4.5594,4.5594,4.5594,4.5594,4.5594,4.5594,4.5594,4.5594,4.5594,4.5594,4.5594,4.5594,4.5627,4.5735,4.5877,4.5916,4.6069,4.6248,4.6074,4.5996,4.5937,4.5078,4.4316,4.3711,4.3926,4.3594,4.3086,4.375,4.4121,4.4277,4.4062,4.4121,4.4297,4.4297,4.373,4.3008,4.3008,4.2871,4.2578,4.1953,4.1641,4.1445,4.125,4.1797,4.2207,4.1406,4.1348,4.1426,4.123,4.082,4.0859,4.2129,4.1543,4.1113,4.2207,4.2051,4.1855,4.207,0.0,0.0,0.0,4.1172,4.041,4.0215,3.9434,3.8984,3.918,3.9497,3.9765,3.9919,4.0417,4.0684,4.0577,4.057,4.057,4.057,4.0523,4.0496,4.0496,4.0496,4.0519,4.0545,4.0545,4.0616,4.0696,4.0058,4.0229,4.0937,3.9624,3.9876,4.1094,3.9766,3.9473,3.9922,4.0117,4.0078,4.0019,4.0879,4.1191,4.1191,4.8105,4.7451,4.6904,4.6904,4.6182,4.5594,4.5594,4.5594,4.5594,4.5594,4.5594,4.5594,4.5594,4.5594,4.5594,4.5594,4.5594,4.5594,4.5594,4.5594,4.5594,4.5594,4.5594,4.5594,4.5594,4.5594,4.5594,4.5594,4.5718,4.5796,4.5809,4.5994,4.6106,4.6078,4.5407,4.5098,4.5039,4.418,4.3769,4.3769,4.457,4.4863,4.4824,4.4883,4.541,4.5996,4.5195,4.543,4.6113,4.6113,4.5527,4.4805,4.4805,4.4258,4.3594,4.3535,4.2949,4.2148,4.1406,4.1797,4.2207,4.1406,4.1758,4.2129,4.1367,4.1738,4.2246,4.2363,4.2949,4.3203,4.2539,4.3008,4.3027,4.1523,0.0,0.0,4.1504,4.1816,4.1933,4.1191,4.0332,4.0117,4.0937,4.0219,4.0036,4.0834,4.0825,4.0785,4.0777,4.0777,4.0777,4.0777,4.0597,4.0496,4.0496,4.0496,4.0566,4.068,4.068,4.0721,4.0789,4.0858,4.0929,4.0998,4.0991,4.1074,4.1191,4.1055,4.0566,3.998,4.0781,4.0605,4.0019,4.0879,4.1191,4.1191,4.7451,4.7096,4.674,4.6182,4.5825,4.5594,4.5594,4.5594,4.5594,4.5594,4.5594,4.5594,4.5594,4.5594,4.5594,4.5594,4.5594,4.5594,4.5594,4.5594,4.5594,4.5594,4.5594,4.5594,4.5594,4.5594,4.5594,4.5594,4.566,4.5723,4.5803,4.5883,4.5975,4.6091,4.5817,4.5735,4.5781,4.5449,4.5,4.457,4.5469,4.5488,4.5058,4.5605,4.6016,4.6269,4.5937,4.6016,4.6308,4.6308,4.5723,4.5,4.5,4.4766,4.4512,4.4512,4.3887,4.3144,4.2832,4.2969,4.3125,4.2832,4.3398,4.3789,4.2949,4.2988,4.3359,4.3906,4.3848,4.3769,4.3965,4.4277,4.4297,4.3652,0.0,4.4101,4.293,4.3008,4.2715,4.1367,4.1348,4.1387,4.1211,4.0786,4.0643,4.0976,4.0874,4.0797,4.0797,4.0797,4.0797,4.0797,4.0733,4.0696,4.0696,4.0696,4.0703,4.0752,4.0752,4.0813,4.0922,4.0986,4.1051,4.1127,4.1171,4.1191,4.1191,4.1191,4.0996,4.0742,4.1074,4.0996,4.0742,4.1074,4.1191,4.1191,4.8144,4.7644,4.7086,4.649,4.596,4.5594,4.5594,4.5594,4.5594,4.5594,4.5594,4.5594,4.5594,4.5594,4.5594,4.5594,4.5594,4.5594,4.5594,4.5594,4.5594,4.5594,4.5594,4.5594,4.5594,4.5594,4.5594,4.5594,4.5594,4.5651,4.5733,4.5776,4.5878,4.6001,4.6072,4.6147,4.6246,4.6289,4.5957,4.5469,4.6055,4.5937,4.5469,4.6074,4.6308,4.6308,4.6308,4.6308,4.6308,4.6308,4.5898,4.541,4.541,4.541,4.541,4.541,4.4785,4.418,4.4433,4.4316,4.4043,4.3769,4.4355,4.4766,4.3906,4.3906,4.4277,4.4883,4.4746,4.4629,4.4941,4.5215,4.5234,4.4687,4.5058,4.5019,4.3867,4.3945,4.3476,4.1777,4.2051,4.207,4.1289,4.1126,4.1055,4.1055,4.0986,4.0922,4.0922,4.0922,4.0922,4.0922,4.0922,4.1059,4.1293,4.0967,4.0816,4.0864,4.0864,4.0925,4.1055,4.1055,4.1106,4.1191,4.1191,4.1191,4.1191,4.1191,4.1191,4.1191,4.1191,4.1191,4.1191,4.1191,4.1191,4.1191,5.0519,4.9298,4.8105,4.8086,4.6701,4.5594,4.5594,4.5594,4.5594,4.5594,4.5594,4.5594,4.5594,4.5594,4.5594,4.5594,4.5594,4.5594,4.5594,4.5594,4.5594,4.5594,4.5594,4.5594,4.5594,4.5594,4.5594,4.5594,4.5594,4.5594,4.5594,4.5733,4.5796,4.5816,4.6001,4.6108,4.6113,4.6246,4.6308,4.6308,4.6308,4.6308,4.6308,4.6308,4.6308,4.6308,4.6308,4.6308,4.6308,4.6308,4.6308,4.6308,4.6308,4.6308,4.6308,4.6308,4.5683,4.5195,4.6074,4.5664,4.4805,4.3945,4.4375,4.4785,4.3926,4.4394,4.5019,4.5019,4.5703,4.6035,4.5176,4.5723,4.5723,4.4004,4.5176,4.5683,4.3945,4.4453,4.4355,4.2617,4.2402,4.209,4.1289,4.1191,4.1191,4.1191,4.1191,4.1191,4.1211,4.1191,4.1211,4.1211,4.1211,4.1601,4.2402,4.1337,4.0867,4.1016,4.0996,4.1077,4.1191,4.1191,4.1191,4.1191,4.1191,4.1191,4.1191,4.1191,4.1191,4.1191,4.1191,4.1191,4.1191,4.1191,4.1191,4.1191,4.8933,4.8471,4.774,4.6547,4.5941,4.5594,4.5594,4.5594,4.5594,4.5594,4.5594,4.5594,4.5594,4.5594,4.5594,4.5594,4.5594,4.5594,4.5594,4.5594,4.5594,4.5594,4.5594,4.5594,4.5594,4.5594,4.5594,4.5594,4.5594,4.5594,4.5594,4.5643,4.5715,4.5803,4.5861,4.5978,4.6091,4.6145,4.6203,4.6308,4.6308,4.6308,4.6308,4.6308,4.6308,4.6308,4.6308,4.6308,4.6308,4.6308,4.6308,4.6308,4.6308,4.6308,4.6308,4.6308,4.6113,4.5976,4.623,4.6113,4.5859,4.5586,4.5723,4.584,4.5586,4.5723,4.5918,4.5918,4.6113,4.6211,4.5957,4.6113,4.6133,4.5605,4.5957,4.5898,4.4766,4.5351,4.5273,4.3516,4.3301,4.2988,4.2129,4.1523,4.1191,4.1191,4.1191,4.1445,4.2012,4.1504,4.1738,4.293,4.2363,4.2441,4.3301,4.1829,4.1377,4.1988,4.1403,4.1151,4.1191,4.1191,4.1191,4.1191,4.1191,4.1191,4.1191,4.1191,4.1191,4.1191,4.1191,4.1191,4.1191,4.1191,4.1191,4.1191,4.8202,4.7836,4.7317,4.6297,4.5825,4.5594,4.5594,4.5594,4.5594,4.5594,4.5594,4.5594,4.5594,4.5594,4.5594,4.5594,4.5594,4.5594,4.5594,4.5594,4.5594,4.5594,4.5594,4.5594,4.5594,4.5594,4.5594,4.5594,4.5594,4.5594,4.5594,4.5594,4.5643,4.5711,4.5789,4.5867,4.5998,4.6067,4.6147,4.6224,4.6289,4.6308,4.6308,4.6308,4.6308,4.6308,4.6308,4.6308,4.6308,4.6308,4.6308,4.6308,4.6308,4.6308,4.6308,4.6308,4.6308,4.6308,4.6308,4.6308,4.6308,4.6308,4.6308,4.6308,4.6308,4.6308,4.6308,4.6308,4.6308,4.6308,4.6308,4.6308,4.6308,4.6308,4.6308,4.6113,4.5586,4.5976,4.5781,4.4375,4.3906,4.3496,4.2969,4.1875,4.1191,4.1191,4.1484,4.1894,4.2363,4.2266,4.2656,4.3672,4.3183,4.332,4.4219,4.2871,4.2422,4.2891,4.207,4.168,4.168,4.168,4.1504,4.1191,4.1191,4.1191,4.1191,4.1191,4.1191,4.1191,4.1191,4.1191,4.1191,4.1191,4.1191,4.1191,4.799,4.7413,4.6885,4.6797,4.6124,4.5594,4.5594,4.5594,4.5594,4.5594,4.5594,4.5594,4.5594,4.5594,4.5594,4.5594,4.5594,4.5671,4.5806,4.5691,4.5633,4.571,4.5633,4.5594,4.5594,4.5594,4.5594,4.5594,4.5594,4.5594,4.5594,4.5594,4.5594,4.5603,4.5737,4.5783,4.5803,4.6006,4.608,4.6113,4.6226,4.6289,4.6308,4.6308,4.6308,4.6308,4.6308,4.6308,4.6308,4.6308,4.6308,4.6308,4.6308,4.6308,4.6308,4.6308,4.6308,4.6308,4.6308,4.6308,4.6308,4.6308,4.6308,4.6308,4.6308,4.6308,4.6308,4.6308,4.6308,4.6308,4.6308,4.6308,4.6308,4.6308,4.6308,4.6308,4.6308,4.6308,4.6016,4.5215,4.4355,4.3828,4.3828,4.2363,4.1426,4.1426,4.2109,4.2558,4.2637,4.3301,4.3769,4.3926,4.3867,4.4238,4.5117,4.4258,4.3828,4.3808,4.293,4.2519,4.2519,4.2519,4.2129,4.1426,4.1348,4.1308,4.1308,4.123,4.1191,4.1191,4.1191,4.1191,4.1191,4.1191,4.1191,4.1191,4.7154,4.7019,4.6682,4.599,4.5729,4.5594,4.5594,4.5594,4.5594,4.5594,4.5594,4.5594,4.5594,4.5594,4.5594,4.5594,4.5594,4.6172,4.7471,4.6317,4.5893,4.6586,4.5951,4.5594,4.5594,4.5594,4.5594,4.5594,4.5594,4.5594,4.5594,4.5594,4.5594,4.5594,4.5627,4.57,4.5803,4.5858,4.5966,4.6091,4.6122,4.6201,4.6308,4.6308,4.6308,4.6308,4.6308,4.6308,4.6308,4.6308,4.6308,4.6308,4.6308,4.6308,4.6308,4.6308,4.6308,4.6308,4.6308,4.6308,4.6308,4.6308,4.6308,4.6308,4.6308,4.6308,4.6308,4.6308,4.6308,4.6308,4.6308,4.6308,4.6308,4.6308,4.6308,4.6308,4.6308,4.6308,4.623,4.6035,4.5254,4.4726,4.4726,4.3769,4.3164,4.3164,4.332,4.3711,4.4394,4.3965,4.4336,4.5683,4.5078,4.5137,4.6016,4.5156,4.4726,4.4707,4.3828,4.3418,4.3418,4.3418,4.332,4.3125,4.2441,4.2148,4.209,4.1465,4.1191,4.1191,4.1191,4.1191,4.1191,4.1191,4.1191,4.1191,4.6278,4.6278,4.6144,4.5691,4.5594,4.5594,4.5594,4.5594,4.5594,4.5594,4.5594,4.5594,4.5594,4.5594,4.5768,4.6182,4.5845,4.6297,4.799,4.6913,4.6586,4.7451,4.6663,4.622,4.622,4.5806,4.5594,4.5594,4.5594,4.5594,4.5594,4.5594,4.5594,4.5594,4.5594,4.5643,4.5708,4.5763,4.5861,4.5974,4.6064,4.6145,4.6202,4.6288,4.6308,4.6308,4.6308,4.6308,4.6308,4.6308,4.6308,4.6308,4.6308,4.6308,4.6308,4.6308,4.6308,4.6308,4.6308,4.6308,4.6308,4.6308,4.6308,4.6308,4.6308,4.6308,4.6308,4.6308,4.6308,4.6308,4.6308,4.6308,4.6308,4.6308,4.6308,4.6308,4.6308,4.6308,4.6308,4.6308,4.5527,4.4844,4.4414,4.4336,4.4141,4.373,4.4082,4.4512,4.498,4.4961,4.5351,4.6269,4.5859,4.584,4.6308,4.5859,4.5625,4.5605,4.4746,4.4316,4.4316,4.4316,4.3867,4.3047,4.2598,4.2187,4.1797,4.1367,4.1191,4.1191,4.1191,4.1191,4.1191,4.1191,4.1191,4.1191,4.5594,4.5594,4.5594,4.5594,4.5594,4.5594,4.5594,4.5594,4.5594,4.5594,4.5594,4.5594,4.5594,4.5594,4.5951,4.6808,4.6105,4.6297,4.799,4.7355,4.725,4.8067,4.7336,4.6904,4.6904,4.6047,4.5594,4.5594,4.5594,4.5594,4.5594,4.5594,4.5594,4.5594,4.5594,4.5594,4.5603,4.5723,4.5769,4.5803,4.5975,4.6061,4.608,4.6203,4.6268,4.6268,4.6289,4.6308,4.6308,4.6308,4.6308,4.6308,4.6308,4.6308,4.6308,4.6308,4.6308,4.6308,4.6308,4.6308,4.6308,4.6308,4.6308,4.6308,4.6308,4.6308,4.6308,4.6308,4.6308,4.6308,4.6308,4.6308,4.6308,4.6308,4.6308,4.6308,4.6308,4.6308,4.6308,4.6308,4.5664,4.4941,4.4219,4.4805,4.4922,4.4199,4.4805,4.5215,4.5215,4.5918,4.6308,4.6308,4.6308,4.6308,4.6308,4.6308,4.6308,4.6289,4.5566,4.5215,4.5215,4.5215,4.4433,4.3047,4.2754,4.2246,4.1601,4.1328,4.1191,4.1191,4.1191,4.1191,4.1191,4.1191,4.1191,4.1191,4.5594,4.5594,4.5594,4.5594,4.5594,4.5594,4.5594,4.5594,4.5594,4.5594,4.5594,4.5594,4.5594,4.5594,4.5951,4.6808,4.6105,4.6297,4.799,4.7355,4.725,4.8067,4.7336,4.6904,4.6904,4.6047,4.5594,4.5594,4.5594,4.5594,4.5594,4.5594,4.5594,4.5594,4.5594,4.5594,4.5594,4.5629,4.5685,4.5803,4.5828,4.5885,4.5936,4.6077,4.614,4.6145,4.6268,4.6308,4.6308,4.6308,4.6308,4.6308,4.6308,4.6308,4.6308,4.6308,4.6308,4.6308,4.6308,4.6308,4.6308,4.6308,4.6308,4.6308,4.6308,4.6308,4.6308,4.6308,4.6308,4.6308,4.6308,4.6308,4.6308,4.6308,4.6308,4.6308,4.6308,4.6308,4.6308,4.6308,4.6191,4.6074,4.5957,4.6055,4.6074,4.5957,4.6055,4.6113,4.6113,4.623,4.6308,4.6308,4.6308,4.6308,4.6308,4.6308,4.6308,4.6308,4.6172,4.6113,4.6113,4.6113,4.5996,4.5683,4.418,4.3457,4.3242,4.1797,4.1191,4.1191,4.1191,4.1191,4.1191,4.1191,4.1191,4.1191,4.571,4.599,4.6163,4.5691,4.5594,4.5594,4.5594,4.5594,4.5594,4.5594,4.5594,4.5594,4.5594,4.5594,4.5951,4.6808,4.6105,4.6518,4.8682,4.8048,4.7952,4.8798,4.849,4.7855,4.6923,4.6528,4.6086,4.5594,4.5594,4.5594,4.5594,4.5594,4.5594,4.5594,4.5594,4.5594,4.5594,4.5594,4.5635,4.5692,4.5782,4.5828,4.5845,4.5952,4.6036,4.6117,4.6247,4.6308,4.6308,4.6308,4.6308,4.6308,4.6308,4.6308,4.6308,4.6308,4.6308,4.6308,4.6308,4.6308,4.6308,4.6308,4.6308,4.6308,4.6308,4.6308,4.6308,4.6308,4.6308,4.6308,4.6308,4.6308,4.6308,4.6308,4.6308,4.6308,4.6308,4.6308,4.6308,4.6308,4.6308,4.6308,4.6308,4.6308,4.6308,4.6308,4.6308,4.6308,4.6308,4.6308,4.6308,4.6308,4.6308,4.6308,4.6308,4.6308,4.6308,4.6308,4.6308,4.6308,4.6308,4.6308,4.6035,4.5508,4.4258,4.3418,4.2871,4.1699,4.1191,4.1191,4.1191,4.1191,4.1191,4.1191,4.1191,4.1191]}]]